<?xml version="1.0" encoding="UTF-8" standalone="no" ?>
<gpx xmlns="http://www.topografix.com/GPX/1/1" xmlns:xsi="http://www.w3.org/2001/XMLSchema-instance" xsi:schemaLocation="http://www.topografix.com/GPX/1/1 http://www.topografix.com/GPX/1/1/gpx.xsd" version="1.1" creator="VisuGPX - https://www.visugpx.com">
  <metadata>
    <name>macot montmery macot</name>
    <desc><![CDATA[première sortie longue]]></desc>
  </metadata>
  <trk>
    <name><![CDATA[macot montmery macot_1]]></name>
    <trkseg>
      <trkpt lat="45.55424" lon="6.67723">
        <ele>788</ele>
        <time>2013-04-01T07:21:43Z</time>
      </trkpt>
      <trkpt lat="45.55418" lon="6.67721">
        <ele>785</ele>
        <time>2013-04-01T07:21:46Z</time>
      </trkpt>
      <trkpt lat="45.55415" lon="6.67708">
        <ele>785</ele>
        <time>2013-04-01T07:21:50Z</time>
      </trkpt>
      <trkpt lat="45.5542" lon="6.67698">
        <ele>785</ele>
        <time>2013-04-01T07:21:53Z</time>
      </trkpt>
      <trkpt lat="45.55427" lon="6.67683">
        <ele>785</ele>
        <time>2013-04-01T07:21:58Z</time>
      </trkpt>
      <trkpt lat="45.5543" lon="6.67674">
        <ele>785</ele>
        <time>2013-04-01T07:22:01Z</time>
      </trkpt>
      <trkpt lat="45.55436" lon="6.67646">
        <ele>785</ele>
        <time>2013-04-01T07:22:09Z</time>
      </trkpt>
      <trkpt lat="45.55434" lon="6.67617">
        <ele>786</ele>
        <time>2013-04-01T07:22:17Z</time>
      </trkpt>
      <trkpt lat="45.55433" lon="6.67607">
        <ele>786</ele>
        <time>2013-04-01T07:22:20Z</time>
      </trkpt>
      <trkpt lat="45.55432" lon="6.67601">
        <ele>786</ele>
        <time>2013-04-01T07:22:22Z</time>
      </trkpt>
      <trkpt lat="45.5543" lon="6.67592">
        <ele>786</ele>
        <time>2013-04-01T07:22:25Z</time>
      </trkpt>
      <trkpt lat="45.55423" lon="6.67555">
        <ele>786</ele>
        <time>2013-04-01T07:22:36Z</time>
      </trkpt>
      <trkpt lat="45.55421" lon="6.67538">
        <ele>783</ele>
        <time>2013-04-01T07:22:41Z</time>
      </trkpt>
      <trkpt lat="45.5542" lon="6.67512">
        <ele>783</ele>
        <time>2013-04-01T07:22:48Z</time>
      </trkpt>
      <trkpt lat="45.55419" lon="6.67505">
        <ele>783</ele>
        <time>2013-04-01T07:22:50Z</time>
      </trkpt>
      <trkpt lat="45.55417" lon="6.67498">
        <ele>783</ele>
        <time>2013-04-01T07:22:52Z</time>
      </trkpt>
      <trkpt lat="45.55416" lon="6.67492">
        <ele>783</ele>
        <time>2013-04-01T07:22:54Z</time>
      </trkpt>
      <trkpt lat="45.55409" lon="6.67468">
        <ele>783</ele>
        <time>2013-04-01T07:23:01Z</time>
      </trkpt>
      <trkpt lat="45.55406" lon="6.67462">
        <ele>783</ele>
        <time>2013-04-01T07:23:03Z</time>
      </trkpt>
      <trkpt lat="45.55404" lon="6.67456">
        <ele>777</ele>
        <time>2013-04-01T07:23:05Z</time>
      </trkpt>
      <trkpt lat="45.55401" lon="6.67443">
        <ele>777</ele>
        <time>2013-04-01T07:23:09Z</time>
      </trkpt>
      <trkpt lat="45.55401" lon="6.67436">
        <ele>777</ele>
        <time>2013-04-01T07:23:11Z</time>
      </trkpt>
      <trkpt lat="45.55401" lon="6.67411">
        <ele>777</ele>
        <time>2013-04-01T07:23:18Z</time>
      </trkpt>
      <trkpt lat="45.554" lon="6.6739">
        <ele>777</ele>
        <time>2013-04-01T07:23:24Z</time>
      </trkpt>
      <trkpt lat="45.554" lon="6.67362">
        <ele>770</ele>
        <time>2013-04-01T07:23:32Z</time>
      </trkpt>
      <trkpt lat="45.55399" lon="6.67337">
        <ele>770</ele>
        <time>2013-04-01T07:23:39Z</time>
      </trkpt>
      <trkpt lat="45.55395" lon="6.6732">
        <ele>770</ele>
        <time>2013-04-01T07:23:44Z</time>
      </trkpt>
      <trkpt lat="45.55393" lon="6.67314">
        <ele>770</ele>
        <time>2013-04-01T07:23:46Z</time>
      </trkpt>
      <trkpt lat="45.55391" lon="6.67309">
        <ele>770</ele>
        <time>2013-04-01T07:23:48Z</time>
      </trkpt>
      <trkpt lat="45.55382" lon="6.67289">
        <ele>767</ele>
        <time>2013-04-01T07:23:55Z</time>
      </trkpt>
      <trkpt lat="45.55376" lon="6.67277">
        <ele>767</ele>
        <time>2013-04-01T07:23:59Z</time>
      </trkpt>
      <trkpt lat="45.55374" lon="6.6727">
        <ele>775</ele>
        <time>2013-04-01T07:24:01Z</time>
      </trkpt>
      <trkpt lat="45.55372" lon="6.67264">
        <ele>775</ele>
        <time>2013-04-01T07:24:03Z</time>
      </trkpt>
      <trkpt lat="45.55361" lon="6.67242">
        <ele>775</ele>
        <time>2013-04-01T07:24:11Z</time>
      </trkpt>
      <trkpt lat="45.55354" lon="6.67238">
        <ele>775</ele>
        <time>2013-04-01T07:24:17Z</time>
      </trkpt>
      <trkpt lat="45.55354" lon="6.67236">
        <ele>775</ele>
        <time>2013-04-01T07:24:19Z</time>
      </trkpt>
      <trkpt lat="45.55352" lon="6.67228">
        <ele>775</ele>
        <time>2013-04-01T07:24:21Z</time>
      </trkpt>
      <trkpt lat="45.55344" lon="6.6721">
        <ele>766</ele>
        <time>2013-04-01T07:24:26Z</time>
      </trkpt>
      <trkpt lat="45.5533" lon="6.67189">
        <ele>766</ele>
        <time>2013-04-01T07:24:34Z</time>
      </trkpt>
      <trkpt lat="45.55315" lon="6.67161">
        <ele>766</ele>
        <time>2013-04-01T07:24:43Z</time>
      </trkpt>
      <trkpt lat="45.55312" lon="6.67157">
        <ele>766</ele>
        <time>2013-04-01T07:24:45Z</time>
      </trkpt>
      <trkpt lat="45.55309" lon="6.67151">
        <ele>766</ele>
        <time>2013-04-01T07:24:47Z</time>
      </trkpt>
      <trkpt lat="45.55297" lon="6.6713">
        <ele>757</ele>
        <time>2013-04-01T07:24:54Z</time>
      </trkpt>
      <trkpt lat="45.55287" lon="6.67111">
        <ele>764</ele>
        <time>2013-04-01T07:25:00Z</time>
      </trkpt>
      <trkpt lat="45.55284" lon="6.67105">
        <ele>764</ele>
        <time>2013-04-01T07:25:02Z</time>
      </trkpt>
      <trkpt lat="45.5528" lon="6.67099">
        <ele>764</ele>
        <time>2013-04-01T07:25:04Z</time>
      </trkpt>
      <trkpt lat="45.55271" lon="6.6708">
        <ele>764</ele>
        <time>2013-04-01T07:25:10Z</time>
      </trkpt>
      <trkpt lat="45.55268" lon="6.67074">
        <ele>764</ele>
        <time>2013-04-01T07:25:12Z</time>
      </trkpt>
      <trkpt lat="45.55264" lon="6.67068">
        <ele>764</ele>
        <time>2013-04-01T07:25:14Z</time>
      </trkpt>
      <trkpt lat="45.5526" lon="6.67062">
        <ele>764</ele>
        <time>2013-04-01T07:25:16Z</time>
      </trkpt>
      <trkpt lat="45.55248" lon="6.67043">
        <ele>754</ele>
        <time>2013-04-01T07:25:23Z</time>
      </trkpt>
      <trkpt lat="45.55245" lon="6.67037">
        <ele>754</ele>
        <time>2013-04-01T07:25:25Z</time>
      </trkpt>
      <trkpt lat="45.55242" lon="6.67032">
        <ele>754</ele>
        <time>2013-04-01T07:25:27Z</time>
      </trkpt>
      <trkpt lat="45.5523" lon="6.6702">
        <ele>754</ele>
        <time>2013-04-01T07:25:33Z</time>
      </trkpt>
      <trkpt lat="45.55226" lon="6.67016">
        <ele>754</ele>
        <time>2013-04-01T07:25:35Z</time>
      </trkpt>
      <trkpt lat="45.55222" lon="6.6701">
        <ele>754</ele>
        <time>2013-04-01T07:25:37Z</time>
      </trkpt>
      <trkpt lat="45.55207" lon="6.66991">
        <ele>758</ele>
        <time>2013-04-01T07:25:45Z</time>
      </trkpt>
      <trkpt lat="45.55203" lon="6.66986">
        <ele>758</ele>
        <time>2013-04-01T07:25:47Z</time>
      </trkpt>
      <trkpt lat="45.55199" lon="6.66981">
        <ele>758</ele>
        <time>2013-04-01T07:25:49Z</time>
      </trkpt>
      <trkpt lat="45.55195" lon="6.66977">
        <ele>758</ele>
        <time>2013-04-01T07:25:51Z</time>
      </trkpt>
      <trkpt lat="45.55191" lon="6.66972">
        <ele>758</ele>
        <time>2013-04-01T07:25:53Z</time>
      </trkpt>
      <trkpt lat="45.55177" lon="6.66956">
        <ele>750</ele>
        <time>2013-04-01T07:26:00Z</time>
      </trkpt>
      <trkpt lat="45.55174" lon="6.6695">
        <ele>750</ele>
        <time>2013-04-01T07:26:02Z</time>
      </trkpt>
      <trkpt lat="45.55169" lon="6.66942">
        <ele>750</ele>
        <time>2013-04-01T07:26:05Z</time>
      </trkpt>
      <trkpt lat="45.55157" lon="6.66917">
        <ele>750</ele>
        <time>2013-04-01T07:26:13Z</time>
      </trkpt>
      <trkpt lat="45.55154" lon="6.66912">
        <ele>750</ele>
        <time>2013-04-01T07:26:15Z</time>
      </trkpt>
      <trkpt lat="45.55151" lon="6.66906">
        <ele>750</ele>
        <time>2013-04-01T07:26:17Z</time>
      </trkpt>
      <trkpt lat="45.55143" lon="6.66888">
        <ele>750</ele>
        <time>2013-04-01T07:26:23Z</time>
      </trkpt>
      <trkpt lat="45.5514" lon="6.66882">
        <ele>743</ele>
        <time>2013-04-01T07:26:25Z</time>
      </trkpt>
      <trkpt lat="45.55137" lon="6.66876">
        <ele>743</ele>
        <time>2013-04-01T07:26:27Z</time>
      </trkpt>
      <trkpt lat="45.55134" lon="6.6687">
        <ele>743</ele>
        <time>2013-04-01T07:26:29Z</time>
      </trkpt>
      <trkpt lat="45.55123" lon="6.66848">
        <ele>754</ele>
        <time>2013-04-01T07:26:36Z</time>
      </trkpt>
      <trkpt lat="45.5512" lon="6.66842">
        <ele>754</ele>
        <time>2013-04-01T07:26:38Z</time>
      </trkpt>
      <trkpt lat="45.55117" lon="6.66836">
        <ele>754</ele>
        <time>2013-04-01T07:26:40Z</time>
      </trkpt>
      <trkpt lat="45.55109" lon="6.66818">
        <ele>754</ele>
        <time>2013-04-01T07:26:46Z</time>
      </trkpt>
      <trkpt lat="45.55106" lon="6.66812">
        <ele>754</ele>
        <time>2013-04-01T07:26:48Z</time>
      </trkpt>
      <trkpt lat="45.55103" lon="6.66806">
        <ele>754</ele>
        <time>2013-04-01T07:26:50Z</time>
      </trkpt>
      <trkpt lat="45.55094" lon="6.66788">
        <ele>742</ele>
        <time>2013-04-01T07:26:56Z</time>
      </trkpt>
      <trkpt lat="45.55091" lon="6.66783">
        <ele>742</ele>
        <time>2013-04-01T07:26:58Z</time>
      </trkpt>
      <trkpt lat="45.55088" lon="6.66777">
        <ele>742</ele>
        <time>2013-04-01T07:27:00Z</time>
      </trkpt>
      <trkpt lat="45.55081" lon="6.6676">
        <ele>742</ele>
        <time>2013-04-01T07:27:06Z</time>
      </trkpt>
      <trkpt lat="45.55077" lon="6.66755">
        <ele>742</ele>
        <time>2013-04-01T07:27:08Z</time>
      </trkpt>
      <trkpt lat="45.55074" lon="6.66749">
        <ele>742</ele>
        <time>2013-04-01T07:27:10Z</time>
      </trkpt>
      <trkpt lat="45.55065" lon="6.66732">
        <ele>742</ele>
        <time>2013-04-01T07:27:16Z</time>
      </trkpt>
      <trkpt lat="45.55062" lon="6.66728">
        <ele>742</ele>
        <time>2013-04-01T07:27:18Z</time>
      </trkpt>
      <trkpt lat="45.55059" lon="6.66723">
        <ele>742</ele>
        <time>2013-04-01T07:27:20Z</time>
      </trkpt>
      <trkpt lat="45.55061" lon="6.66715">
        <ele>731</ele>
        <time>2013-04-01T07:27:25Z</time>
      </trkpt>
      <trkpt lat="45.5506" lon="6.6671">
        <ele>731</ele>
        <time>2013-04-01T07:27:27Z</time>
      </trkpt>
      <trkpt lat="45.55057" lon="6.66707">
        <ele>731</ele>
        <time>2013-04-01T07:27:29Z</time>
      </trkpt>
      <trkpt lat="45.55057" lon="6.66706">
        <ele>731</ele>
        <time>2013-04-01T07:27:31Z</time>
      </trkpt>
      <trkpt lat="45.55057" lon="6.66705">
        <ele>731</ele>
        <time>2013-04-01T07:27:34Z</time>
      </trkpt>
      <trkpt lat="45.55058" lon="6.66705">
        <ele>731</ele>
        <time>2013-04-01T07:27:36Z</time>
      </trkpt>
      <trkpt lat="45.55059" lon="6.66706">
        <ele>731</ele>
        <time>2013-04-01T07:27:45Z</time>
      </trkpt>
      <trkpt lat="45.55064" lon="6.66704">
        <ele>731</ele>
        <time>2013-04-01T07:27:53Z</time>
      </trkpt>
      <trkpt lat="45.55069" lon="6.66688">
        <ele>731</ele>
        <time>2013-04-01T07:27:58Z</time>
      </trkpt>
      <trkpt lat="45.55075" lon="6.66675">
        <ele>731</ele>
        <time>2013-04-01T07:28:03Z</time>
      </trkpt>
      <trkpt lat="45.55076" lon="6.66672">
        <ele>731</ele>
        <time>2013-04-01T07:28:06Z</time>
      </trkpt>
      <trkpt lat="45.55077" lon="6.66668">
        <ele>731</ele>
        <time>2013-04-01T07:28:10Z</time>
      </trkpt>
      <trkpt lat="45.55081" lon="6.66664">
        <ele>731</ele>
        <time>2013-04-01T07:28:14Z</time>
      </trkpt>
      <trkpt lat="45.55086" lon="6.66663">
        <ele>731</ele>
        <time>2013-04-01T07:28:16Z</time>
      </trkpt>
      <trkpt lat="45.55091" lon="6.66663">
        <ele>731</ele>
        <time>2013-04-01T07:28:18Z</time>
      </trkpt>
      <trkpt lat="45.55095" lon="6.66663">
        <ele>731</ele>
        <time>2013-04-01T07:28:20Z</time>
      </trkpt>
      <trkpt lat="45.55099" lon="6.66662">
        <ele>731</ele>
        <time>2013-04-01T07:28:22Z</time>
      </trkpt>
      <trkpt lat="45.55113" lon="6.66662">
        <ele>731</ele>
        <time>2013-04-01T07:28:28Z</time>
      </trkpt>
      <trkpt lat="45.55117" lon="6.66662">
        <ele>731</ele>
        <time>2013-04-01T07:28:30Z</time>
      </trkpt>
      <trkpt lat="45.55121" lon="6.66662">
        <ele>731</ele>
        <time>2013-04-01T07:28:32Z</time>
      </trkpt>
      <trkpt lat="45.55129" lon="6.6666">
        <ele>724</ele>
        <time>2013-04-01T07:28:36Z</time>
      </trkpt>
      <trkpt lat="45.55135" lon="6.66659">
        <ele>724</ele>
        <time>2013-04-01T07:28:39Z</time>
      </trkpt>
      <trkpt lat="45.55142" lon="6.66658">
        <ele>724</ele>
        <time>2013-04-01T07:28:42Z</time>
      </trkpt>
      <trkpt lat="45.55146" lon="6.66656">
        <ele>724</ele>
        <time>2013-04-01T07:28:44Z</time>
      </trkpt>
      <trkpt lat="45.55151" lon="6.66655">
        <ele>724</ele>
        <time>2013-04-01T07:28:46Z</time>
      </trkpt>
      <trkpt lat="45.5516" lon="6.66651">
        <ele>724</ele>
        <time>2013-04-01T07:28:50Z</time>
      </trkpt>
      <trkpt lat="45.55164" lon="6.6665">
        <ele>724</ele>
        <time>2013-04-01T07:28:52Z</time>
      </trkpt>
      <trkpt lat="45.55169" lon="6.66648">
        <ele>724</ele>
        <time>2013-04-01T07:28:54Z</time>
      </trkpt>
      <trkpt lat="45.55172" lon="6.66645">
        <ele>724</ele>
        <time>2013-04-01T07:28:56Z</time>
      </trkpt>
      <trkpt lat="45.55174" lon="6.66644">
        <ele>724</ele>
        <time>2013-04-01T07:28:58Z</time>
      </trkpt>
      <trkpt lat="45.55175" lon="6.66644">
        <ele>724</ele>
        <time>2013-04-01T07:29:00Z</time>
      </trkpt>
      <trkpt lat="45.55175" lon="6.66644">
        <ele>724</ele>
        <time>2013-04-01T07:29:02Z</time>
      </trkpt>
      <trkpt lat="45.55176" lon="6.66644">
        <ele>724</ele>
        <time>2013-04-01T07:29:06Z</time>
      </trkpt>
      <trkpt lat="45.55176" lon="6.66644">
        <ele>724</ele>
        <time>2013-04-01T07:29:15Z</time>
      </trkpt>
      <trkpt lat="45.55176" lon="6.66644">
        <ele>724</ele>
        <time>2013-04-01T07:29:23Z</time>
      </trkpt>
      <trkpt lat="45.55177" lon="6.66645">
        <ele>724</ele>
        <time>2013-04-01T07:29:32Z</time>
      </trkpt>
      <trkpt lat="45.55183" lon="6.66635">
        <ele>724</ele>
        <time>2013-04-01T07:29:40Z</time>
      </trkpt>
      <trkpt lat="45.55192" lon="6.6663">
        <ele>724</ele>
        <time>2013-04-01T07:29:44Z</time>
      </trkpt>
      <trkpt lat="45.55198" lon="6.66628">
        <ele>724</ele>
        <time>2013-04-01T07:29:46Z</time>
      </trkpt>
      <trkpt lat="45.55203" lon="6.66626">
        <ele>724</ele>
        <time>2013-04-01T07:29:48Z</time>
      </trkpt>
      <trkpt lat="45.55213" lon="6.66622">
        <ele>711</ele>
        <time>2013-04-01T07:29:52Z</time>
      </trkpt>
      <trkpt lat="45.55218" lon="6.6662">
        <ele>711</ele>
        <time>2013-04-01T07:29:54Z</time>
      </trkpt>
      <trkpt lat="45.55222" lon="6.66617">
        <ele>711</ele>
        <time>2013-04-01T07:29:56Z</time>
      </trkpt>
      <trkpt lat="45.55233" lon="6.66612">
        <ele>711</ele>
        <time>2013-04-01T07:30:00Z</time>
      </trkpt>
      <trkpt lat="45.55238" lon="6.6661">
        <ele>711</ele>
        <time>2013-04-01T07:30:02Z</time>
      </trkpt>
      <trkpt lat="45.55242" lon="6.66607">
        <ele>711</ele>
        <time>2013-04-01T07:30:04Z</time>
      </trkpt>
      <trkpt lat="45.55253" lon="6.66603">
        <ele>711</ele>
        <time>2013-04-01T07:30:08Z</time>
      </trkpt>
      <trkpt lat="45.55261" lon="6.66602">
        <ele>711</ele>
        <time>2013-04-01T07:30:11Z</time>
      </trkpt>
      <trkpt lat="45.55266" lon="6.666">
        <ele>711</ele>
        <time>2013-04-01T07:30:13Z</time>
      </trkpt>
      <trkpt lat="45.55279" lon="6.66596">
        <ele>711</ele>
        <time>2013-04-01T07:30:18Z</time>
      </trkpt>
      <trkpt lat="45.55289" lon="6.66593">
        <ele>711</ele>
        <time>2013-04-01T07:30:22Z</time>
      </trkpt>
      <trkpt lat="45.55294" lon="6.66592">
        <ele>708</ele>
        <time>2013-04-01T07:30:24Z</time>
      </trkpt>
      <trkpt lat="45.55299" lon="6.66591">
        <ele>708</ele>
        <time>2013-04-01T07:30:26Z</time>
      </trkpt>
      <trkpt lat="45.55309" lon="6.66586">
        <ele>708</ele>
        <time>2013-04-01T07:30:30Z</time>
      </trkpt>
      <trkpt lat="45.55317" lon="6.66583">
        <ele>708</ele>
        <time>2013-04-01T07:30:33Z</time>
      </trkpt>
      <trkpt lat="45.55322" lon="6.66582">
        <ele>708</ele>
        <time>2013-04-01T07:30:35Z</time>
      </trkpt>
      <trkpt lat="45.55327" lon="6.6658">
        <ele>708</ele>
        <time>2013-04-01T07:30:37Z</time>
      </trkpt>
      <trkpt lat="45.55342" lon="6.66571">
        <ele>708</ele>
        <time>2013-04-01T07:30:43Z</time>
      </trkpt>
      <trkpt lat="45.55347" lon="6.66568">
        <ele>708</ele>
        <time>2013-04-01T07:30:45Z</time>
      </trkpt>
      <trkpt lat="45.55352" lon="6.66565">
        <ele>708</ele>
        <time>2013-04-01T07:30:47Z</time>
      </trkpt>
      <trkpt lat="45.55357" lon="6.66563">
        <ele>708</ele>
        <time>2013-04-01T07:30:49Z</time>
      </trkpt>
      <trkpt lat="45.55364" lon="6.66559">
        <ele>708</ele>
        <time>2013-04-01T07:30:52Z</time>
      </trkpt>
      <trkpt lat="45.55369" lon="6.66556">
        <ele>708</ele>
        <time>2013-04-01T07:30:54Z</time>
      </trkpt>
      <trkpt lat="45.55374" lon="6.66553">
        <ele>708</ele>
        <time>2013-04-01T07:30:56Z</time>
      </trkpt>
      <trkpt lat="45.55386" lon="6.66546">
        <ele>702</ele>
        <time>2013-04-01T07:31:01Z</time>
      </trkpt>
      <trkpt lat="45.55391" lon="6.66543">
        <ele>697</ele>
        <time>2013-04-01T07:31:03Z</time>
      </trkpt>
      <trkpt lat="45.55395" lon="6.6654">
        <ele>697</ele>
        <time>2013-04-01T07:31:05Z</time>
      </trkpt>
      <trkpt lat="45.554" lon="6.66536">
        <ele>697</ele>
        <time>2013-04-01T07:31:07Z</time>
      </trkpt>
      <trkpt lat="45.55407" lon="6.6653">
        <ele>697</ele>
        <time>2013-04-01T07:31:10Z</time>
      </trkpt>
      <trkpt lat="45.55411" lon="6.66525">
        <ele>697</ele>
        <time>2013-04-01T07:31:12Z</time>
      </trkpt>
      <trkpt lat="45.55415" lon="6.66519">
        <ele>697</ele>
        <time>2013-04-01T07:31:14Z</time>
      </trkpt>
      <trkpt lat="45.55419" lon="6.66508">
        <ele>697</ele>
        <time>2013-04-01T07:31:17Z</time>
      </trkpt>
      <trkpt lat="45.55423" lon="6.66502">
        <ele>697</ele>
        <time>2013-04-01T07:31:19Z</time>
      </trkpt>
      <trkpt lat="45.55426" lon="6.66496">
        <ele>697</ele>
        <time>2013-04-01T07:31:21Z</time>
      </trkpt>
      <trkpt lat="45.55429" lon="6.6649">
        <ele>697</ele>
        <time>2013-04-01T07:31:23Z</time>
      </trkpt>
      <trkpt lat="45.55433" lon="6.66482">
        <ele>697</ele>
        <time>2013-04-01T07:31:25Z</time>
      </trkpt>
      <trkpt lat="45.55436" lon="6.66475">
        <ele>697</ele>
        <time>2013-04-01T07:31:27Z</time>
      </trkpt>
      <trkpt lat="45.55437" lon="6.66468">
        <ele>697</ele>
        <time>2013-04-01T07:31:29Z</time>
      </trkpt>
      <trkpt lat="45.55439" lon="6.6646">
        <ele>693</ele>
        <time>2013-04-01T07:31:31Z</time>
      </trkpt>
      <trkpt lat="45.55439" lon="6.66453">
        <ele>693</ele>
        <time>2013-04-01T07:31:33Z</time>
      </trkpt>
      <trkpt lat="45.5544" lon="6.66434">
        <ele>693</ele>
        <time>2013-04-01T07:31:38Z</time>
      </trkpt>
      <trkpt lat="45.55442" lon="6.66409">
        <ele>693</ele>
        <time>2013-04-01T07:31:45Z</time>
      </trkpt>
      <trkpt lat="45.55442" lon="6.66397">
        <ele>693</ele>
        <time>2013-04-01T07:31:48Z</time>
      </trkpt>
      <trkpt lat="45.55444" lon="6.66386">
        <ele>693</ele>
        <time>2013-04-01T07:31:51Z</time>
      </trkpt>
      <trkpt lat="45.55445" lon="6.66376">
        <ele>688</ele>
        <time>2013-04-01T07:31:54Z</time>
      </trkpt>
      <trkpt lat="45.55445" lon="6.66368">
        <ele>688</ele>
        <time>2013-04-01T07:31:56Z</time>
      </trkpt>
      <trkpt lat="45.55446" lon="6.6636">
        <ele>688</ele>
        <time>2013-04-01T07:31:58Z</time>
      </trkpt>
      <trkpt lat="45.55446" lon="6.66341">
        <ele>688</ele>
        <time>2013-04-01T07:32:03Z</time>
      </trkpt>
      <trkpt lat="45.55446" lon="6.66335">
        <ele>688</ele>
        <time>2013-04-01T07:32:05Z</time>
      </trkpt>
      <trkpt lat="45.55446" lon="6.66327">
        <ele>688</ele>
        <time>2013-04-01T07:32:07Z</time>
      </trkpt>
      <trkpt lat="45.55447" lon="6.6632">
        <ele>688</ele>
        <time>2013-04-01T07:32:09Z</time>
      </trkpt>
      <trkpt lat="45.55447" lon="6.66313">
        <ele>688</ele>
        <time>2013-04-01T07:32:11Z</time>
      </trkpt>
      <trkpt lat="45.55449" lon="6.6629">
        <ele>682</ele>
        <time>2013-04-01T07:32:18Z</time>
      </trkpt>
      <trkpt lat="45.55449" lon="6.66283">
        <ele>682</ele>
        <time>2013-04-01T07:32:20Z</time>
      </trkpt>
      <trkpt lat="45.5545" lon="6.66277">
        <ele>682</ele>
        <time>2013-04-01T07:32:22Z</time>
      </trkpt>
      <trkpt lat="45.55451" lon="6.66266">
        <ele>682</ele>
        <time>2013-04-01T07:32:25Z</time>
      </trkpt>
      <trkpt lat="45.55454" lon="6.66253">
        <ele>682</ele>
        <time>2013-04-01T07:32:29Z</time>
      </trkpt>
      <trkpt lat="45.55454" lon="6.66248">
        <ele>682</ele>
        <time>2013-04-01T07:32:31Z</time>
      </trkpt>
      <trkpt lat="45.55455" lon="6.66238">
        <ele>682</ele>
        <time>2013-04-01T07:32:37Z</time>
      </trkpt>
      <trkpt lat="45.55455" lon="6.66236">
        <ele>682</ele>
        <time>2013-04-01T07:32:39Z</time>
      </trkpt>
      <trkpt lat="45.55456" lon="6.66232">
        <ele>682</ele>
        <time>2013-04-01T07:32:41Z</time>
      </trkpt>
      <trkpt lat="45.55457" lon="6.66228">
        <ele>682</ele>
        <time>2013-04-01T07:32:45Z</time>
      </trkpt>
      <trkpt lat="45.55457" lon="6.66222">
        <ele>682</ele>
        <time>2013-04-01T07:32:49Z</time>
      </trkpt>
      <trkpt lat="45.55462" lon="6.66213">
        <ele>678</ele>
        <time>2013-04-01T07:32:56Z</time>
      </trkpt>
      <trkpt lat="45.55464" lon="6.66208">
        <ele>678</ele>
        <time>2013-04-01T07:33:01Z</time>
      </trkpt>
      <trkpt lat="45.55465" lon="6.66207">
        <ele>668</ele>
        <time>2013-04-01T07:33:03Z</time>
      </trkpt>
      <trkpt lat="45.55465" lon="6.66207">
        <ele>668</ele>
        <time>2013-04-01T07:33:05Z</time>
      </trkpt>
      <trkpt lat="45.55465" lon="6.66207">
        <ele>668</ele>
        <time>2013-04-01T07:33:13Z</time>
      </trkpt>
      <trkpt lat="45.55467" lon="6.66202">
        <ele>668</ele>
        <time>2013-04-01T07:33:27Z</time>
      </trkpt>
      <trkpt lat="45.55469" lon="6.66202">
        <ele>668</ele>
        <time>2013-04-01T07:33:33Z</time>
      </trkpt>
      <trkpt lat="45.55469" lon="6.662">
        <ele>668</ele>
        <time>2013-04-01T07:33:41Z</time>
      </trkpt>
      <trkpt lat="45.5548" lon="6.66192">
        <ele>668</ele>
        <time>2013-04-01T07:33:47Z</time>
      </trkpt>
      <trkpt lat="45.55484" lon="6.66188">
        <ele>668</ele>
        <time>2013-04-01T07:33:49Z</time>
      </trkpt>
      <trkpt lat="45.55489" lon="6.66184">
        <ele>668</ele>
        <time>2013-04-01T07:33:51Z</time>
      </trkpt>
      <trkpt lat="45.55494" lon="6.66183">
        <ele>668</ele>
        <time>2013-04-01T07:33:53Z</time>
      </trkpt>
      <trkpt lat="45.555" lon="6.66184">
        <ele>668</ele>
        <time>2013-04-01T07:33:55Z</time>
      </trkpt>
      <trkpt lat="45.55507" lon="6.66186">
        <ele>668</ele>
        <time>2013-04-01T07:33:58Z</time>
      </trkpt>
      <trkpt lat="45.55518" lon="6.66186">
        <ele>668</ele>
        <time>2013-04-01T07:34:02Z</time>
      </trkpt>
      <trkpt lat="45.55523" lon="6.66186">
        <ele>668</ele>
        <time>2013-04-01T07:34:04Z</time>
      </trkpt>
      <trkpt lat="45.55529" lon="6.66185">
        <ele>668</ele>
        <time>2013-04-01T07:34:06Z</time>
      </trkpt>
      <trkpt lat="45.55533" lon="6.66184">
        <ele>668</ele>
        <time>2013-04-01T07:34:08Z</time>
      </trkpt>
      <trkpt lat="45.55537" lon="6.66181">
        <ele>668</ele>
        <time>2013-04-01T07:34:10Z</time>
      </trkpt>
      <trkpt lat="45.55537" lon="6.66176">
        <ele>668</ele>
        <time>2013-04-01T07:34:12Z</time>
      </trkpt>
      <trkpt lat="45.55535" lon="6.66174">
        <ele>668</ele>
        <time>2013-04-01T07:34:14Z</time>
      </trkpt>
      <trkpt lat="45.55533" lon="6.66174">
        <ele>668</ele>
        <time>2013-04-01T07:34:16Z</time>
      </trkpt>
      <trkpt lat="45.55531" lon="6.66174">
        <ele>668</ele>
        <time>2013-04-01T07:34:18Z</time>
      </trkpt>
      <trkpt lat="45.55529" lon="6.66172">
        <ele>668</ele>
        <time>2013-04-01T07:34:21Z</time>
      </trkpt>
      <trkpt lat="45.55531" lon="6.6617">
        <ele>668</ele>
        <time>2013-04-01T07:34:23Z</time>
      </trkpt>
      <trkpt lat="45.55535" lon="6.66168">
        <ele>668</ele>
        <time>2013-04-01T07:34:25Z</time>
      </trkpt>
      <trkpt lat="45.5554" lon="6.66165">
        <ele>668</ele>
        <time>2013-04-01T07:34:27Z</time>
      </trkpt>
      <trkpt lat="45.55544" lon="6.66163">
        <ele>668</ele>
        <time>2013-04-01T07:34:29Z</time>
      </trkpt>
      <trkpt lat="45.55568" lon="6.66135">
        <ele>662</ele>
        <time>2013-04-01T07:34:41Z</time>
      </trkpt>
      <trkpt lat="45.55576" lon="6.66116">
        <ele>661</ele>
        <time>2013-04-01T07:34:47Z</time>
      </trkpt>
      <trkpt lat="45.55581" lon="6.66094">
        <ele>661</ele>
        <time>2013-04-01T07:34:53Z</time>
      </trkpt>
      <trkpt lat="45.55587" lon="6.66074">
        <ele>661</ele>
        <time>2013-04-01T07:34:59Z</time>
      </trkpt>
      <trkpt lat="45.55588" lon="6.66069">
        <ele>661</ele>
        <time>2013-04-01T07:35:01Z</time>
      </trkpt>
      <trkpt lat="45.55589" lon="6.66064">
        <ele>661</ele>
        <time>2013-04-01T07:35:03Z</time>
      </trkpt>
      <trkpt lat="45.55596" lon="6.66044">
        <ele>661</ele>
        <time>2013-04-01T07:35:10Z</time>
      </trkpt>
      <trkpt lat="45.55599" lon="6.66039">
        <ele>661</ele>
        <time>2013-04-01T07:35:12Z</time>
      </trkpt>
      <trkpt lat="45.55602" lon="6.66034">
        <ele>661</ele>
        <time>2013-04-01T07:35:14Z</time>
      </trkpt>
      <trkpt lat="45.55627" lon="6.66018">
        <ele>661</ele>
        <time>2013-04-01T07:35:25Z</time>
      </trkpt>
      <trkpt lat="45.55645" lon="6.66008">
        <ele>673</ele>
        <time>2013-04-01T07:35:33Z</time>
      </trkpt>
      <trkpt lat="45.55648" lon="6.66004">
        <ele>673</ele>
        <time>2013-04-01T07:35:35Z</time>
      </trkpt>
      <trkpt lat="45.55652" lon="6.66">
        <ele>673</ele>
        <time>2013-04-01T07:35:37Z</time>
      </trkpt>
      <trkpt lat="45.55662" lon="6.65964">
        <ele>677</ele>
        <time>2013-04-01T07:35:49Z</time>
      </trkpt>
      <trkpt lat="45.55661" lon="6.65933">
        <ele>677</ele>
        <time>2013-04-01T07:35:59Z</time>
      </trkpt>
      <trkpt lat="45.55661" lon="6.65923">
        <ele>677</ele>
        <time>2013-04-01T07:36:02Z</time>
      </trkpt>
      <trkpt lat="45.55662" lon="6.65918">
        <ele>677</ele>
        <time>2013-04-01T07:36:04Z</time>
      </trkpt>
      <trkpt lat="45.55663" lon="6.65898">
        <ele>677</ele>
        <time>2013-04-01T07:36:11Z</time>
      </trkpt>
      <trkpt lat="45.55661" lon="6.6587">
        <ele>678</ele>
        <time>2013-04-01T07:36:20Z</time>
      </trkpt>
      <trkpt lat="45.55661" lon="6.65863">
        <ele>678</ele>
        <time>2013-04-01T07:36:22Z</time>
      </trkpt>
      <trkpt lat="45.55661" lon="6.65858">
        <ele>678</ele>
        <time>2013-04-01T07:36:24Z</time>
      </trkpt>
      <trkpt lat="45.55663" lon="6.65827">
        <ele>678</ele>
        <time>2013-04-01T07:36:34Z</time>
      </trkpt>
      <trkpt lat="45.55663" lon="6.6582">
        <ele>678</ele>
        <time>2013-04-01T07:36:36Z</time>
      </trkpt>
      <trkpt lat="45.55664" lon="6.65814">
        <ele>678</ele>
        <time>2013-04-01T07:36:38Z</time>
      </trkpt>
      <trkpt lat="45.5567" lon="6.65773">
        <ele>680</ele>
        <time>2013-04-01T07:36:51Z</time>
      </trkpt>
      <trkpt lat="45.55671" lon="6.65767">
        <ele>680</ele>
        <time>2013-04-01T07:36:53Z</time>
      </trkpt>
      <trkpt lat="45.55671" lon="6.6576">
        <ele>680</ele>
        <time>2013-04-01T07:36:55Z</time>
      </trkpt>
      <trkpt lat="45.55672" lon="6.65753">
        <ele>680</ele>
        <time>2013-04-01T07:36:57Z</time>
      </trkpt>
      <trkpt lat="45.55672" lon="6.65728">
        <ele>680</ele>
        <time>2013-04-01T07:37:05Z</time>
      </trkpt>
      <trkpt lat="45.55673" lon="6.65722">
        <ele>680</ele>
        <time>2013-04-01T07:37:07Z</time>
      </trkpt>
      <trkpt lat="45.55674" lon="6.65716">
        <ele>672</ele>
        <time>2013-04-01T07:37:09Z</time>
      </trkpt>
      <trkpt lat="45.55675" lon="6.65697">
        <ele>672</ele>
        <time>2013-04-01T07:37:15Z</time>
      </trkpt>
      <trkpt lat="45.55676" lon="6.65692">
        <ele>672</ele>
        <time>2013-04-01T07:37:17Z</time>
      </trkpt>
      <trkpt lat="45.55677" lon="6.65686">
        <ele>672</ele>
        <time>2013-04-01T07:37:19Z</time>
      </trkpt>
      <trkpt lat="45.55684" lon="6.65673">
        <ele>672</ele>
        <time>2013-04-01T07:37:25Z</time>
      </trkpt>
      <trkpt lat="45.55688" lon="6.65672">
        <ele>672</ele>
        <time>2013-04-01T07:37:27Z</time>
      </trkpt>
      <trkpt lat="45.55692" lon="6.65673">
        <ele>672</ele>
        <time>2013-04-01T07:37:29Z</time>
      </trkpt>
      <trkpt lat="45.55694" lon="6.65677">
        <ele>672</ele>
        <time>2013-04-01T07:37:31Z</time>
      </trkpt>
      <trkpt lat="45.55695" lon="6.65682">
        <ele>672</ele>
        <time>2013-04-01T07:37:33Z</time>
      </trkpt>
      <trkpt lat="45.55696" lon="6.65685">
        <ele>672</ele>
        <time>2013-04-01T07:37:35Z</time>
      </trkpt>
      <trkpt lat="45.557" lon="6.65686">
        <ele>672</ele>
        <time>2013-04-01T07:37:37Z</time>
      </trkpt>
      <trkpt lat="45.5571" lon="6.65671">
        <ele>672</ele>
        <time>2013-04-01T07:37:43Z</time>
      </trkpt>
      <trkpt lat="45.55723" lon="6.65636">
        <ele>691</ele>
        <time>2013-04-01T07:37:54Z</time>
      </trkpt>
      <trkpt lat="45.55732" lon="6.65617">
        <ele>684</ele>
        <time>2013-04-01T07:38:01Z</time>
      </trkpt>
      <trkpt lat="45.55737" lon="6.65619">
        <ele>684</ele>
        <time>2013-04-01T07:38:05Z</time>
      </trkpt>
      <trkpt lat="45.55748" lon="6.65627">
        <ele>691</ele>
        <time>2013-04-01T07:38:11Z</time>
      </trkpt>
      <trkpt lat="45.55751" lon="6.65632">
        <ele>691</ele>
        <time>2013-04-01T07:38:13Z</time>
      </trkpt>
      <trkpt lat="45.55753" lon="6.65635">
        <ele>691</ele>
        <time>2013-04-01T07:38:15Z</time>
      </trkpt>
      <trkpt lat="45.55758" lon="6.65643">
        <ele>691</ele>
        <time>2013-04-01T07:38:19Z</time>
      </trkpt>
      <trkpt lat="45.55758" lon="6.65647">
        <ele>691</ele>
        <time>2013-04-01T07:38:21Z</time>
      </trkpt>
      <trkpt lat="45.55759" lon="6.65649">
        <ele>691</ele>
        <time>2013-04-01T07:38:23Z</time>
      </trkpt>
      <trkpt lat="45.5576" lon="6.65651">
        <ele>691</ele>
        <time>2013-04-01T07:38:25Z</time>
      </trkpt>
      <trkpt lat="45.55763" lon="6.65652">
        <ele>691</ele>
        <time>2013-04-01T07:38:27Z</time>
      </trkpt>
      <trkpt lat="45.55765" lon="6.65652">
        <ele>691</ele>
        <time>2013-04-01T07:38:29Z</time>
      </trkpt>
      <trkpt lat="45.55767" lon="6.65649">
        <ele>691</ele>
        <time>2013-04-01T07:38:31Z</time>
      </trkpt>
      <trkpt lat="45.55769" lon="6.65647">
        <ele>691</ele>
        <time>2013-04-01T07:38:33Z</time>
      </trkpt>
      <trkpt lat="45.55771" lon="6.65643">
        <ele>691</ele>
        <time>2013-04-01T07:38:36Z</time>
      </trkpt>
      <trkpt lat="45.55787" lon="6.6563">
        <ele>691</ele>
        <time>2013-04-01T07:38:46Z</time>
      </trkpt>
      <trkpt lat="45.5579" lon="6.6563">
        <ele>691</ele>
        <time>2013-04-01T07:38:50Z</time>
      </trkpt>
      <trkpt lat="45.55791" lon="6.65628">
        <ele>691</ele>
        <time>2013-04-01T07:38:52Z</time>
      </trkpt>
      <trkpt lat="45.55792" lon="6.65626">
        <ele>691</ele>
        <time>2013-04-01T07:38:54Z</time>
      </trkpt>
      <trkpt lat="45.55794" lon="6.65625">
        <ele>699</ele>
        <time>2013-04-01T07:38:56Z</time>
      </trkpt>
      <trkpt lat="45.55796" lon="6.65624">
        <ele>699</ele>
        <time>2013-04-01T07:38:58Z</time>
      </trkpt>
      <trkpt lat="45.55798" lon="6.65623">
        <ele>699</ele>
        <time>2013-04-01T07:39:00Z</time>
      </trkpt>
      <trkpt lat="45.558" lon="6.65622">
        <ele>699</ele>
        <time>2013-04-01T07:39:02Z</time>
      </trkpt>
      <trkpt lat="45.55803" lon="6.65621">
        <ele>699</ele>
        <time>2013-04-01T07:39:05Z</time>
      </trkpt>
      <trkpt lat="45.55805" lon="6.6562">
        <ele>699</ele>
        <time>2013-04-01T07:39:07Z</time>
      </trkpt>
      <trkpt lat="45.55807" lon="6.65618">
        <ele>699</ele>
        <time>2013-04-01T07:39:09Z</time>
      </trkpt>
      <trkpt lat="45.5581" lon="6.65616">
        <ele>699</ele>
        <time>2013-04-01T07:39:11Z</time>
      </trkpt>
      <trkpt lat="45.55812" lon="6.65615">
        <ele>699</ele>
        <time>2013-04-01T07:39:13Z</time>
      </trkpt>
      <trkpt lat="45.55816" lon="6.65614">
        <ele>699</ele>
        <time>2013-04-01T07:39:16Z</time>
      </trkpt>
      <trkpt lat="45.55816" lon="6.65617">
        <ele>699</ele>
        <time>2013-04-01T07:39:18Z</time>
      </trkpt>
      <trkpt lat="45.55816" lon="6.65621">
        <ele>699</ele>
        <time>2013-04-01T07:39:20Z</time>
      </trkpt>
      <trkpt lat="45.55816" lon="6.65627">
        <ele>715</ele>
        <time>2013-04-01T07:39:24Z</time>
      </trkpt>
      <trkpt lat="45.55817" lon="6.65632">
        <ele>715</ele>
        <time>2013-04-01T07:39:27Z</time>
      </trkpt>
      <trkpt lat="45.55817" lon="6.65637">
        <ele>715</ele>
        <time>2013-04-01T07:39:30Z</time>
      </trkpt>
      <trkpt lat="45.55817" lon="6.6564">
        <ele>715</ele>
        <time>2013-04-01T07:39:32Z</time>
      </trkpt>
      <trkpt lat="45.55817" lon="6.65643">
        <ele>715</ele>
        <time>2013-04-01T07:39:34Z</time>
      </trkpt>
      <trkpt lat="45.55816" lon="6.65647">
        <ele>715</ele>
        <time>2013-04-01T07:39:36Z</time>
      </trkpt>
      <trkpt lat="45.55815" lon="6.65651">
        <ele>715</ele>
        <time>2013-04-01T07:39:38Z</time>
      </trkpt>
      <trkpt lat="45.55813" lon="6.65658">
        <ele>715</ele>
        <time>2013-04-01T07:39:42Z</time>
      </trkpt>
      <trkpt lat="45.55814" lon="6.65661">
        <ele>715</ele>
        <time>2013-04-01T07:39:45Z</time>
      </trkpt>
      <trkpt lat="45.55813" lon="6.65663">
        <ele>715</ele>
        <time>2013-04-01T07:39:48Z</time>
      </trkpt>
      <trkpt lat="45.55811" lon="6.65666">
        <ele>715</ele>
        <time>2013-04-01T07:39:50Z</time>
      </trkpt>
      <trkpt lat="45.55811" lon="6.65669">
        <ele>715</ele>
        <time>2013-04-01T07:39:53Z</time>
      </trkpt>
      <trkpt lat="45.55808" lon="6.65674">
        <ele>715</ele>
        <time>2013-04-01T07:40:00Z</time>
      </trkpt>
      <trkpt lat="45.55805" lon="6.65677">
        <ele>715</ele>
        <time>2013-04-01T07:40:05Z</time>
      </trkpt>
      <trkpt lat="45.55801" lon="6.65685">
        <ele>715</ele>
        <time>2013-04-01T07:40:15Z</time>
      </trkpt>
      <trkpt lat="45.55801" lon="6.65686">
        <ele>715</ele>
        <time>2013-04-01T07:40:17Z</time>
      </trkpt>
      <trkpt lat="45.558" lon="6.65687">
        <ele>715</ele>
        <time>2013-04-01T07:40:19Z</time>
      </trkpt>
      <trkpt lat="45.55799" lon="6.65689">
        <ele>715</ele>
        <time>2013-04-01T07:40:21Z</time>
      </trkpt>
      <trkpt lat="45.55798" lon="6.6569">
        <ele>715</ele>
        <time>2013-04-01T07:40:23Z</time>
      </trkpt>
      <trkpt lat="45.55798" lon="6.65692">
        <ele>715</ele>
        <time>2013-04-01T07:40:25Z</time>
      </trkpt>
      <trkpt lat="45.55797" lon="6.65693">
        <ele>715</ele>
        <time>2013-04-01T07:40:27Z</time>
      </trkpt>
      <trkpt lat="45.55796" lon="6.65694">
        <ele>715</ele>
        <time>2013-04-01T07:40:29Z</time>
      </trkpt>
      <trkpt lat="45.55796" lon="6.65695">
        <ele>715</ele>
        <time>2013-04-01T07:40:31Z</time>
      </trkpt>
      <trkpt lat="45.55795" lon="6.65696">
        <ele>715</ele>
        <time>2013-04-01T07:40:33Z</time>
      </trkpt>
      <trkpt lat="45.55795" lon="6.65697">
        <ele>715</ele>
        <time>2013-04-01T07:40:35Z</time>
      </trkpt>
      <trkpt lat="45.55795" lon="6.65698">
        <ele>715</ele>
        <time>2013-04-01T07:40:37Z</time>
      </trkpt>
      <trkpt lat="45.55796" lon="6.65698">
        <ele>715</ele>
        <time>2013-04-01T07:40:39Z</time>
      </trkpt>
      <trkpt lat="45.55797" lon="6.65701">
        <ele>715</ele>
        <time>2013-04-01T07:40:42Z</time>
      </trkpt>
      <trkpt lat="45.55796" lon="6.65703">
        <ele>715</ele>
        <time>2013-04-01T07:40:44Z</time>
      </trkpt>
      <trkpt lat="45.55795" lon="6.65704">
        <ele>715</ele>
        <time>2013-04-01T07:40:46Z</time>
      </trkpt>
      <trkpt lat="45.55794" lon="6.65707">
        <ele>715</ele>
        <time>2013-04-01T07:40:50Z</time>
      </trkpt>
      <trkpt lat="45.55793" lon="6.65708">
        <ele>715</ele>
        <time>2013-04-01T07:40:52Z</time>
      </trkpt>
      <trkpt lat="45.55792" lon="6.6571">
        <ele>691</ele>
        <time>2013-04-01T07:40:55Z</time>
      </trkpt>
      <trkpt lat="45.55788" lon="6.65716">
        <ele>691</ele>
        <time>2013-04-01T07:41:02Z</time>
      </trkpt>
      <trkpt lat="45.55788" lon="6.65717">
        <ele>691</ele>
        <time>2013-04-01T07:41:07Z</time>
      </trkpt>
      <trkpt lat="45.55787" lon="6.6572">
        <ele>691</ele>
        <time>2013-04-01T07:41:09Z</time>
      </trkpt>
      <trkpt lat="45.55786" lon="6.65723">
        <ele>714</ele>
        <time>2013-04-01T07:41:13Z</time>
      </trkpt>
      <trkpt lat="45.55781" lon="6.65732">
        <ele>714</ele>
        <time>2013-04-01T07:41:19Z</time>
      </trkpt>
      <trkpt lat="45.55782" lon="6.65737">
        <ele>714</ele>
        <time>2013-04-01T07:41:22Z</time>
      </trkpt>
      <trkpt lat="45.55782" lon="6.65744">
        <ele>714</ele>
        <time>2013-04-01T07:41:25Z</time>
      </trkpt>
      <trkpt lat="45.55782" lon="6.65749">
        <ele>714</ele>
        <time>2013-04-01T07:41:28Z</time>
      </trkpt>
      <trkpt lat="45.55783" lon="6.65752">
        <ele>714</ele>
        <time>2013-04-01T07:41:30Z</time>
      </trkpt>
      <trkpt lat="45.55783" lon="6.65758">
        <ele>714</ele>
        <time>2013-04-01T07:41:33Z</time>
      </trkpt>
      <trkpt lat="45.55782" lon="6.65765">
        <ele>714</ele>
        <time>2013-04-01T07:41:37Z</time>
      </trkpt>
      <trkpt lat="45.55782" lon="6.65767">
        <ele>714</ele>
        <time>2013-04-01T07:41:39Z</time>
      </trkpt>
      <trkpt lat="45.55783" lon="6.65771">
        <ele>714</ele>
        <time>2013-04-01T07:41:41Z</time>
      </trkpt>
      <trkpt lat="45.55783" lon="6.65774">
        <ele>714</ele>
        <time>2013-04-01T07:41:43Z</time>
      </trkpt>
      <trkpt lat="45.55784" lon="6.65778">
        <ele>714</ele>
        <time>2013-04-01T07:41:46Z</time>
      </trkpt>
      <trkpt lat="45.55783" lon="6.65782">
        <ele>714</ele>
        <time>2013-04-01T07:41:49Z</time>
      </trkpt>
      <trkpt lat="45.55784" lon="6.65783">
        <ele>714</ele>
        <time>2013-04-01T07:41:51Z</time>
      </trkpt>
      <trkpt lat="45.55786" lon="6.65784">
        <ele>714</ele>
        <time>2013-04-01T07:41:53Z</time>
      </trkpt>
      <trkpt lat="45.55788" lon="6.65786">
        <ele>714</ele>
        <time>2013-04-01T07:41:55Z</time>
      </trkpt>
      <trkpt lat="45.55792" lon="6.65785">
        <ele>714</ele>
        <time>2013-04-01T07:41:58Z</time>
      </trkpt>
      <trkpt lat="45.55795" lon="6.65785">
        <ele>738</ele>
        <time>2013-04-01T07:42:00Z</time>
      </trkpt>
      <trkpt lat="45.55797" lon="6.65785">
        <ele>738</ele>
        <time>2013-04-01T07:42:02Z</time>
      </trkpt>
      <trkpt lat="45.55804" lon="6.65775">
        <ele>738</ele>
        <time>2013-04-01T07:42:10Z</time>
      </trkpt>
      <trkpt lat="45.55806" lon="6.65773">
        <ele>738</ele>
        <time>2013-04-01T07:42:12Z</time>
      </trkpt>
      <trkpt lat="45.55807" lon="6.65773">
        <ele>738</ele>
        <time>2013-04-01T07:42:14Z</time>
      </trkpt>
      <trkpt lat="45.55807" lon="6.65773">
        <ele>738</ele>
        <time>2013-04-01T07:42:16Z</time>
      </trkpt>
      <trkpt lat="45.55808" lon="6.65775">
        <ele>738</ele>
        <time>2013-04-01T07:42:18Z</time>
      </trkpt>
      <trkpt lat="45.55807" lon="6.65778">
        <ele>738</ele>
        <time>2013-04-01T07:42:20Z</time>
      </trkpt>
      <trkpt lat="45.55808" lon="6.65783">
        <ele>738</ele>
        <time>2013-04-01T07:42:22Z</time>
      </trkpt>
      <trkpt lat="45.55811" lon="6.6579">
        <ele>738</ele>
        <time>2013-04-01T07:42:28Z</time>
      </trkpt>
      <trkpt lat="45.55812" lon="6.65792">
        <ele>738</ele>
        <time>2013-04-01T07:42:30Z</time>
      </trkpt>
      <trkpt lat="45.55813" lon="6.65793">
        <ele>738</ele>
        <time>2013-04-01T07:42:32Z</time>
      </trkpt>
      <trkpt lat="45.55815" lon="6.65795">
        <ele>738</ele>
        <time>2013-04-01T07:42:35Z</time>
      </trkpt>
      <trkpt lat="45.55815" lon="6.65797">
        <ele>738</ele>
        <time>2013-04-01T07:42:37Z</time>
      </trkpt>
      <trkpt lat="45.55816" lon="6.65801">
        <ele>738</ele>
        <time>2013-04-01T07:42:41Z</time>
      </trkpt>
      <trkpt lat="45.55817" lon="6.65805">
        <ele>755</ele>
        <time>2013-04-01T07:42:44Z</time>
      </trkpt>
      <trkpt lat="45.55818" lon="6.65807">
        <ele>755</ele>
        <time>2013-04-01T07:42:46Z</time>
      </trkpt>
      <trkpt lat="45.55818" lon="6.65809">
        <ele>755</ele>
        <time>2013-04-01T07:42:48Z</time>
      </trkpt>
      <trkpt lat="45.55818" lon="6.65811">
        <ele>755</ele>
        <time>2013-04-01T07:42:50Z</time>
      </trkpt>
      <trkpt lat="45.55819" lon="6.65818">
        <ele>755</ele>
        <time>2013-04-01T07:42:54Z</time>
      </trkpt>
      <trkpt lat="45.5582" lon="6.65824">
        <ele>755</ele>
        <time>2013-04-01T07:42:57Z</time>
      </trkpt>
      <trkpt lat="45.55819" lon="6.65828">
        <ele>755</ele>
        <time>2013-04-01T07:42:59Z</time>
      </trkpt>
      <trkpt lat="45.55821" lon="6.65832">
        <ele>755</ele>
        <time>2013-04-01T07:43:01Z</time>
      </trkpt>
      <trkpt lat="45.55822" lon="6.65836">
        <ele>755</ele>
        <time>2013-04-01T07:43:03Z</time>
      </trkpt>
      <trkpt lat="45.55822" lon="6.65837">
        <ele>755</ele>
        <time>2013-04-01T07:43:06Z</time>
      </trkpt>
      <trkpt lat="45.55822" lon="6.65841">
        <ele>755</ele>
        <time>2013-04-01T07:43:12Z</time>
      </trkpt>
      <trkpt lat="45.55823" lon="6.65854">
        <ele>755</ele>
        <time>2013-04-01T07:43:26Z</time>
      </trkpt>
      <trkpt lat="45.55825" lon="6.65861">
        <ele>755</ele>
        <time>2013-04-01T07:43:31Z</time>
      </trkpt>
      <trkpt lat="45.55826" lon="6.65864">
        <ele>755</ele>
        <time>2013-04-01T07:43:33Z</time>
      </trkpt>
      <trkpt lat="45.55827" lon="6.65867">
        <ele>755</ele>
        <time>2013-04-01T07:43:35Z</time>
      </trkpt>
      <trkpt lat="45.5583" lon="6.65868">
        <ele>755</ele>
        <time>2013-04-01T07:43:37Z</time>
      </trkpt>
      <trkpt lat="45.55832" lon="6.65871">
        <ele>755</ele>
        <time>2013-04-01T07:43:39Z</time>
      </trkpt>
      <trkpt lat="45.55833" lon="6.65873">
        <ele>755</ele>
        <time>2013-04-01T07:43:41Z</time>
      </trkpt>
      <trkpt lat="45.55835" lon="6.65877">
        <ele>755</ele>
        <time>2013-04-01T07:43:43Z</time>
      </trkpt>
      <trkpt lat="45.55835" lon="6.6588">
        <ele>755</ele>
        <time>2013-04-01T07:43:45Z</time>
      </trkpt>
      <trkpt lat="45.55835" lon="6.65886">
        <ele>755</ele>
        <time>2013-04-01T07:43:48Z</time>
      </trkpt>
      <trkpt lat="45.55835" lon="6.65888">
        <ele>761</ele>
        <time>2013-04-01T07:43:50Z</time>
      </trkpt>
      <trkpt lat="45.55834" lon="6.65896">
        <ele>761</ele>
        <time>2013-04-01T07:43:57Z</time>
      </trkpt>
      <trkpt lat="45.5583" lon="6.65908">
        <ele>761</ele>
        <time>2013-04-01T07:44:05Z</time>
      </trkpt>
      <trkpt lat="45.55829" lon="6.65914">
        <ele>761</ele>
        <time>2013-04-01T07:44:08Z</time>
      </trkpt>
      <trkpt lat="45.55828" lon="6.65921">
        <ele>761</ele>
        <time>2013-04-01T07:44:11Z</time>
      </trkpt>
      <trkpt lat="45.55827" lon="6.65927">
        <ele>761</ele>
        <time>2013-04-01T07:44:14Z</time>
      </trkpt>
      <trkpt lat="45.55827" lon="6.65932">
        <ele>761</ele>
        <time>2013-04-01T07:44:16Z</time>
      </trkpt>
      <trkpt lat="45.55828" lon="6.65935">
        <ele>761</ele>
        <time>2013-04-01T07:44:18Z</time>
      </trkpt>
      <trkpt lat="45.55828" lon="6.65937">
        <ele>761</ele>
        <time>2013-04-01T07:44:23Z</time>
      </trkpt>
      <trkpt lat="45.55829" lon="6.65943">
        <ele>761</ele>
        <time>2013-04-01T07:44:26Z</time>
      </trkpt>
      <trkpt lat="45.55833" lon="6.65948">
        <ele>761</ele>
        <time>2013-04-01T07:44:29Z</time>
      </trkpt>
      <trkpt lat="45.55836" lon="6.65951">
        <ele>761</ele>
        <time>2013-04-01T07:44:31Z</time>
      </trkpt>
      <trkpt lat="45.55839" lon="6.65953">
        <ele>761</ele>
        <time>2013-04-01T07:44:33Z</time>
      </trkpt>
      <trkpt lat="45.55845" lon="6.65958">
        <ele>761</ele>
        <time>2013-04-01T07:44:37Z</time>
      </trkpt>
      <trkpt lat="45.55848" lon="6.65961">
        <ele>761</ele>
        <time>2013-04-01T07:44:39Z</time>
      </trkpt>
      <trkpt lat="45.5585" lon="6.65963">
        <ele>761</ele>
        <time>2013-04-01T07:44:41Z</time>
      </trkpt>
      <trkpt lat="45.55853" lon="6.65963">
        <ele>761</ele>
        <time>2013-04-01T07:44:43Z</time>
      </trkpt>
      <trkpt lat="45.55854" lon="6.65963">
        <ele>761</ele>
        <time>2013-04-01T07:44:45Z</time>
      </trkpt>
      <trkpt lat="45.55856" lon="6.65964">
        <ele>761</ele>
        <time>2013-04-01T07:44:47Z</time>
      </trkpt>
      <trkpt lat="45.5586" lon="6.65978">
        <ele>767</ele>
        <time>2013-04-01T07:44:53Z</time>
      </trkpt>
      <trkpt lat="45.55862" lon="6.65984">
        <ele>767</ele>
        <time>2013-04-01T07:44:55Z</time>
      </trkpt>
      <trkpt lat="45.55865" lon="6.65989">
        <ele>767</ele>
        <time>2013-04-01T07:44:57Z</time>
      </trkpt>
      <trkpt lat="45.55869" lon="6.65999">
        <ele>767</ele>
        <time>2013-04-01T07:45:01Z</time>
      </trkpt>
      <trkpt lat="45.55872" lon="6.66003">
        <ele>767</ele>
        <time>2013-04-01T07:45:03Z</time>
      </trkpt>
      <trkpt lat="45.55875" lon="6.66008">
        <ele>767</ele>
        <time>2013-04-01T07:45:05Z</time>
      </trkpt>
      <trkpt lat="45.55883" lon="6.66026">
        <ele>787</ele>
        <time>2013-04-01T07:45:12Z</time>
      </trkpt>
      <trkpt lat="45.55885" lon="6.66031">
        <ele>787</ele>
        <time>2013-04-01T07:45:14Z</time>
      </trkpt>
      <trkpt lat="45.55886" lon="6.66036">
        <ele>787</ele>
        <time>2013-04-01T07:45:16Z</time>
      </trkpt>
      <trkpt lat="45.55892" lon="6.66061">
        <ele>789</ele>
        <time>2013-04-01T07:45:26Z</time>
      </trkpt>
      <trkpt lat="45.55893" lon="6.66068">
        <ele>789</ele>
        <time>2013-04-01T07:45:28Z</time>
      </trkpt>
      <trkpt lat="45.55893" lon="6.66073">
        <ele>789</ele>
        <time>2013-04-01T07:45:30Z</time>
      </trkpt>
      <trkpt lat="45.55895" lon="6.66098">
        <ele>789</ele>
        <time>2013-04-01T07:45:38Z</time>
      </trkpt>
      <trkpt lat="45.55895" lon="6.66104">
        <ele>789</ele>
        <time>2013-04-01T07:45:40Z</time>
      </trkpt>
      <trkpt lat="45.55896" lon="6.66109">
        <ele>789</ele>
        <time>2013-04-01T07:45:42Z</time>
      </trkpt>
      <trkpt lat="45.55896" lon="6.66115">
        <ele>789</ele>
        <time>2013-04-01T07:45:44Z</time>
      </trkpt>
      <trkpt lat="45.55897" lon="6.6612">
        <ele>789</ele>
        <time>2013-04-01T07:45:46Z</time>
      </trkpt>
      <trkpt lat="45.55899" lon="6.66125">
        <ele>789</ele>
        <time>2013-04-01T07:45:48Z</time>
      </trkpt>
      <trkpt lat="45.55902" lon="6.66129">
        <ele>789</ele>
        <time>2013-04-01T07:45:50Z</time>
      </trkpt>
      <trkpt lat="45.55905" lon="6.66132">
        <ele>789</ele>
        <time>2013-04-01T07:45:52Z</time>
      </trkpt>
      <trkpt lat="45.55908" lon="6.66133">
        <ele>789</ele>
        <time>2013-04-01T07:45:54Z</time>
      </trkpt>
      <trkpt lat="45.55913" lon="6.66133">
        <ele>789</ele>
        <time>2013-04-01T07:45:56Z</time>
      </trkpt>
      <trkpt lat="45.55918" lon="6.66133">
        <ele>789</ele>
        <time>2013-04-01T07:45:58Z</time>
      </trkpt>
      <trkpt lat="45.55922" lon="6.66131">
        <ele>789</ele>
        <time>2013-04-01T07:46:00Z</time>
      </trkpt>
      <trkpt lat="45.55926" lon="6.66127">
        <ele>789</ele>
        <time>2013-04-01T07:46:02Z</time>
      </trkpt>
      <trkpt lat="45.55929" lon="6.66124">
        <ele>789</ele>
        <time>2013-04-01T07:46:04Z</time>
      </trkpt>
      <trkpt lat="45.55932" lon="6.6612">
        <ele>789</ele>
        <time>2013-04-01T07:46:06Z</time>
      </trkpt>
      <trkpt lat="45.55937" lon="6.66117">
        <ele>789</ele>
        <time>2013-04-01T07:46:08Z</time>
      </trkpt>
      <trkpt lat="45.55943" lon="6.66122">
        <ele>789</ele>
        <time>2013-04-01T07:46:11Z</time>
      </trkpt>
      <trkpt lat="45.55952" lon="6.66157">
        <ele>789</ele>
        <time>2013-04-01T07:46:23Z</time>
      </trkpt>
      <trkpt lat="45.55951" lon="6.66175">
        <ele>789</ele>
        <time>2013-04-01T07:46:30Z</time>
      </trkpt>
      <trkpt lat="45.55953" lon="6.66187">
        <ele>789</ele>
        <time>2013-04-01T07:46:34Z</time>
      </trkpt>
      <trkpt lat="45.5596" lon="6.6621">
        <ele>789</ele>
        <time>2013-04-01T07:46:43Z</time>
      </trkpt>
      <trkpt lat="45.55974" lon="6.66225">
        <ele>797</ele>
        <time>2013-04-01T07:46:52Z</time>
      </trkpt>
      <trkpt lat="45.55977" lon="6.66228">
        <ele>797</ele>
        <time>2013-04-01T07:46:54Z</time>
      </trkpt>
      <trkpt lat="45.5598" lon="6.66231">
        <ele>797</ele>
        <time>2013-04-01T07:46:56Z</time>
      </trkpt>
      <trkpt lat="45.55983" lon="6.66234">
        <ele>797</ele>
        <time>2013-04-01T07:46:58Z</time>
      </trkpt>
      <trkpt lat="45.55989" lon="6.66243">
        <ele>797</ele>
        <time>2013-04-01T07:47:02Z</time>
      </trkpt>
      <trkpt lat="45.55991" lon="6.66247">
        <ele>797</ele>
        <time>2013-04-01T07:47:04Z</time>
      </trkpt>
      <trkpt lat="45.55994" lon="6.66252">
        <ele>797</ele>
        <time>2013-04-01T07:47:06Z</time>
      </trkpt>
      <trkpt lat="45.55997" lon="6.66264">
        <ele>797</ele>
        <time>2013-04-01T07:47:10Z</time>
      </trkpt>
      <trkpt lat="45.56" lon="6.66273">
        <ele>797</ele>
        <time>2013-04-01T07:47:13Z</time>
      </trkpt>
      <trkpt lat="45.56003" lon="6.66279">
        <ele>797</ele>
        <time>2013-04-01T07:47:15Z</time>
      </trkpt>
      <trkpt lat="45.56005" lon="6.66285">
        <ele>797</ele>
        <time>2013-04-01T07:47:17Z</time>
      </trkpt>
      <trkpt lat="45.56017" lon="6.66315">
        <ele>787</ele>
        <time>2013-04-01T07:47:26Z</time>
      </trkpt>
      <trkpt lat="45.5603" lon="6.66336">
        <ele>787</ele>
        <time>2013-04-01T07:47:32Z</time>
      </trkpt>
      <trkpt lat="45.56034" lon="6.66342">
        <ele>787</ele>
        <time>2013-04-01T07:47:34Z</time>
      </trkpt>
      <trkpt lat="45.56037" lon="6.66349">
        <ele>787</ele>
        <time>2013-04-01T07:47:36Z</time>
      </trkpt>
      <trkpt lat="45.56042" lon="6.66355">
        <ele>787</ele>
        <time>2013-04-01T07:47:38Z</time>
      </trkpt>
      <trkpt lat="45.56053" lon="6.66382">
        <ele>798</ele>
        <time>2013-04-01T07:47:45Z</time>
      </trkpt>
      <trkpt lat="45.56057" lon="6.66387">
        <ele>798</ele>
        <time>2013-04-01T07:47:47Z</time>
      </trkpt>
      <trkpt lat="45.56061" lon="6.66393">
        <ele>798</ele>
        <time>2013-04-01T07:47:49Z</time>
      </trkpt>
      <trkpt lat="45.56065" lon="6.664">
        <ele>798</ele>
        <time>2013-04-01T07:47:51Z</time>
      </trkpt>
      <trkpt lat="45.56077" lon="6.66421">
        <ele>798</ele>
        <time>2013-04-01T07:47:58Z</time>
      </trkpt>
      <trkpt lat="45.56096" lon="6.66451">
        <ele>798</ele>
        <time>2013-04-01T07:48:08Z</time>
      </trkpt>
      <trkpt lat="45.56116" lon="6.6649">
        <ele>778</ele>
        <time>2013-04-01T07:48:20Z</time>
      </trkpt>
      <trkpt lat="45.5612" lon="6.66496">
        <ele>778</ele>
        <time>2013-04-01T07:48:22Z</time>
      </trkpt>
      <trkpt lat="45.56123" lon="6.66502">
        <ele>778</ele>
        <time>2013-04-01T07:48:24Z</time>
      </trkpt>
      <trkpt lat="45.56126" lon="6.66508">
        <ele>778</ele>
        <time>2013-04-01T07:48:26Z</time>
      </trkpt>
      <trkpt lat="45.56132" lon="6.66522">
        <ele>814</ele>
        <time>2013-04-01T07:48:31Z</time>
      </trkpt>
      <trkpt lat="45.56137" lon="6.66526">
        <ele>814</ele>
        <time>2013-04-01T07:48:33Z</time>
      </trkpt>
      <trkpt lat="45.56149" lon="6.66544">
        <ele>799</ele>
        <time>2013-04-01T07:48:40Z</time>
      </trkpt>
      <trkpt lat="45.56154" lon="6.66563">
        <ele>799</ele>
        <time>2013-04-01T07:48:45Z</time>
      </trkpt>
      <trkpt lat="45.56161" lon="6.66604">
        <ele>799</ele>
        <time>2013-04-01T07:48:56Z</time>
      </trkpt>
      <trkpt lat="45.56164" lon="6.66621">
        <ele>799</ele>
        <time>2013-04-01T07:49:01Z</time>
      </trkpt>
      <trkpt lat="45.56172" lon="6.66647">
        <ele>788</ele>
        <time>2013-04-01T07:49:09Z</time>
      </trkpt>
      <trkpt lat="45.56172" lon="6.66652">
        <ele>788</ele>
        <time>2013-04-01T07:49:11Z</time>
      </trkpt>
      <trkpt lat="45.56174" lon="6.66659">
        <ele>788</ele>
        <time>2013-04-01T07:49:13Z</time>
      </trkpt>
      <trkpt lat="45.56184" lon="6.66697">
        <ele>788</ele>
        <time>2013-04-01T07:49:24Z</time>
      </trkpt>
      <trkpt lat="45.56189" lon="6.66716">
        <ele>788</ele>
        <time>2013-04-01T07:49:29Z</time>
      </trkpt>
      <trkpt lat="45.56192" lon="6.66723">
        <ele>778</ele>
        <time>2013-04-01T07:49:31Z</time>
      </trkpt>
      <trkpt lat="45.56193" lon="6.66731">
        <ele>778</ele>
        <time>2013-04-01T07:49:33Z</time>
      </trkpt>
      <trkpt lat="45.56201" lon="6.66759">
        <ele>778</ele>
        <time>2013-04-01T07:49:41Z</time>
      </trkpt>
      <trkpt lat="45.56208" lon="6.66796">
        <ele>778</ele>
        <time>2013-04-01T07:49:52Z</time>
      </trkpt>
      <trkpt lat="45.56209" lon="6.66803">
        <ele>778</ele>
        <time>2013-04-01T07:49:54Z</time>
      </trkpt>
      <trkpt lat="45.56211" lon="6.66809">
        <ele>815</ele>
        <time>2013-04-01T07:49:56Z</time>
      </trkpt>
      <trkpt lat="45.56216" lon="6.66821">
        <ele>815</ele>
        <time>2013-04-01T07:50:00Z</time>
      </trkpt>
      <trkpt lat="45.56229" lon="6.66866">
        <ele>815</ele>
        <time>2013-04-01T07:50:13Z</time>
      </trkpt>
      <trkpt lat="45.56241" lon="6.66905">
        <ele>803</ele>
        <time>2013-04-01T07:50:24Z</time>
      </trkpt>
      <trkpt lat="45.56253" lon="6.66943">
        <ele>803</ele>
        <time>2013-04-01T07:50:34Z</time>
      </trkpt>
      <trkpt lat="45.56258" lon="6.66957">
        <ele>803</ele>
        <time>2013-04-01T07:50:38Z</time>
      </trkpt>
      <trkpt lat="45.56261" lon="6.66963">
        <ele>803</ele>
        <time>2013-04-01T07:50:40Z</time>
      </trkpt>
      <trkpt lat="45.56264" lon="6.66971">
        <ele>790</ele>
        <time>2013-04-01T07:50:42Z</time>
      </trkpt>
      <trkpt lat="45.56269" lon="6.6702">
        <ele>790</ele>
        <time>2013-04-01T07:50:55Z</time>
      </trkpt>
      <trkpt lat="45.56271" lon="6.67042">
        <ele>790</ele>
        <time>2013-04-01T07:51:01Z</time>
      </trkpt>
      <trkpt lat="45.56278" lon="6.67072">
        <ele>784</ele>
        <time>2013-04-01T07:51:10Z</time>
      </trkpt>
      <trkpt lat="45.5628" lon="6.67078">
        <ele>784</ele>
        <time>2013-04-01T07:51:12Z</time>
      </trkpt>
      <trkpt lat="45.56282" lon="6.67085">
        <ele>784</ele>
        <time>2013-04-01T07:51:14Z</time>
      </trkpt>
      <trkpt lat="45.56288" lon="6.67107">
        <ele>784</ele>
        <time>2013-04-01T07:51:21Z</time>
      </trkpt>
      <trkpt lat="45.56296" lon="6.67131">
        <ele>822</ele>
        <time>2013-04-01T07:51:29Z</time>
      </trkpt>
      <trkpt lat="45.56298" lon="6.67137">
        <ele>811</ele>
        <time>2013-04-01T07:51:31Z</time>
      </trkpt>
      <trkpt lat="45.563" lon="6.67143">
        <ele>811</ele>
        <time>2013-04-01T07:51:33Z</time>
      </trkpt>
      <trkpt lat="45.56309" lon="6.67168">
        <ele>811</ele>
        <time>2013-04-01T07:51:41Z</time>
      </trkpt>
      <trkpt lat="45.56323" lon="6.67213">
        <ele>811</ele>
        <time>2013-04-01T07:51:54Z</time>
      </trkpt>
      <trkpt lat="45.56335" lon="6.67245">
        <ele>801</ele>
        <time>2013-04-01T07:52:04Z</time>
      </trkpt>
      <trkpt lat="45.56356" lon="6.67288">
        <ele>801</ele>
        <time>2013-04-01T07:52:18Z</time>
      </trkpt>
      <trkpt lat="45.56377" lon="6.67318">
        <ele>814</ele>
        <time>2013-04-01T07:52:29Z</time>
      </trkpt>
      <trkpt lat="45.56389" lon="6.6735">
        <ele>814</ele>
        <time>2013-04-01T07:52:39Z</time>
      </trkpt>
      <trkpt lat="45.56405" lon="6.67373">
        <ele>814</ele>
        <time>2013-04-01T07:52:48Z</time>
      </trkpt>
      <trkpt lat="45.5642" lon="6.67395">
        <ele>798</ele>
        <time>2013-04-01T07:52:59Z</time>
      </trkpt>
      <trkpt lat="45.56425" lon="6.6741">
        <ele>798</ele>
        <time>2013-04-01T07:53:05Z</time>
      </trkpt>
      <trkpt lat="45.56427" lon="6.67417">
        <ele>798</ele>
        <time>2013-04-01T07:53:07Z</time>
      </trkpt>
      <trkpt lat="45.56427" lon="6.67424">
        <ele>798</ele>
        <time>2013-04-01T07:53:09Z</time>
      </trkpt>
      <trkpt lat="45.56429" lon="6.6744">
        <ele>798</ele>
        <time>2013-04-01T07:53:14Z</time>
      </trkpt>
      <trkpt lat="45.5643" lon="6.67446">
        <ele>798</ele>
        <time>2013-04-01T07:53:16Z</time>
      </trkpt>
      <trkpt lat="45.5643" lon="6.67452">
        <ele>798</ele>
        <time>2013-04-01T07:53:18Z</time>
      </trkpt>
      <trkpt lat="45.5643" lon="6.67472">
        <ele>800</ele>
        <time>2013-04-01T07:53:24Z</time>
      </trkpt>
      <trkpt lat="45.56429" lon="6.67486">
        <ele>800</ele>
        <time>2013-04-01T07:53:29Z</time>
      </trkpt>
      <trkpt lat="45.56427" lon="6.67495">
        <ele>800</ele>
        <time>2013-04-01T07:53:32Z</time>
      </trkpt>
      <trkpt lat="45.56425" lon="6.67502">
        <ele>800</ele>
        <time>2013-04-01T07:53:34Z</time>
      </trkpt>
      <trkpt lat="45.56425" lon="6.67508">
        <ele>800</ele>
        <time>2013-04-01T07:53:36Z</time>
      </trkpt>
      <trkpt lat="45.56426" lon="6.67513">
        <ele>800</ele>
        <time>2013-04-01T07:53:38Z</time>
      </trkpt>
      <trkpt lat="45.56431" lon="6.6753">
        <ele>800</ele>
        <time>2013-04-01T07:53:45Z</time>
      </trkpt>
      <trkpt lat="45.56439" lon="6.67544">
        <ele>795</ele>
        <time>2013-04-01T07:53:52Z</time>
      </trkpt>
      <trkpt lat="45.5646" lon="6.67563">
        <ele>795</ele>
        <time>2013-04-01T07:54:03Z</time>
      </trkpt>
      <trkpt lat="45.56472" lon="6.67576">
        <ele>832</ele>
        <time>2013-04-01T07:54:11Z</time>
      </trkpt>
      <trkpt lat="45.56475" lon="6.67581">
        <ele>832</ele>
        <time>2013-04-01T07:54:13Z</time>
      </trkpt>
      <trkpt lat="45.56478" lon="6.67585">
        <ele>832</ele>
        <time>2013-04-01T07:54:15Z</time>
      </trkpt>
      <trkpt lat="45.56481" lon="6.67601">
        <ele>832</ele>
        <time>2013-04-01T07:54:20Z</time>
      </trkpt>
      <trkpt lat="45.56481" lon="6.67629">
        <ele>823</ele>
        <time>2013-04-01T07:54:28Z</time>
      </trkpt>
      <trkpt lat="45.56482" lon="6.67634">
        <ele>823</ele>
        <time>2013-04-01T07:54:30Z</time>
      </trkpt>
      <trkpt lat="45.56484" lon="6.67641">
        <ele>823</ele>
        <time>2013-04-01T07:54:32Z</time>
      </trkpt>
      <trkpt lat="45.56487" lon="6.67654">
        <ele>823</ele>
        <time>2013-04-01T07:54:36Z</time>
      </trkpt>
      <trkpt lat="45.56489" lon="6.67659">
        <ele>823</ele>
        <time>2013-04-01T07:54:38Z</time>
      </trkpt>
      <trkpt lat="45.5649" lon="6.67664">
        <ele>823</ele>
        <time>2013-04-01T07:54:40Z</time>
      </trkpt>
      <trkpt lat="45.56493" lon="6.67672">
        <ele>823</ele>
        <time>2013-04-01T07:54:43Z</time>
      </trkpt>
      <trkpt lat="45.56495" lon="6.67678">
        <ele>823</ele>
        <time>2013-04-01T07:54:45Z</time>
      </trkpt>
      <trkpt lat="45.56498" lon="6.67683">
        <ele>823</ele>
        <time>2013-04-01T07:54:47Z</time>
      </trkpt>
      <trkpt lat="45.56505" lon="6.67695">
        <ele>823</ele>
        <time>2013-04-01T07:54:52Z</time>
      </trkpt>
      <trkpt lat="45.56508" lon="6.677">
        <ele>823</ele>
        <time>2013-04-01T07:54:54Z</time>
      </trkpt>
      <trkpt lat="45.56513" lon="6.6771">
        <ele>823</ele>
        <time>2013-04-01T07:54:58Z</time>
      </trkpt>
      <trkpt lat="45.56515" lon="6.67714">
        <ele>823</ele>
        <time>2013-04-01T07:55:00Z</time>
      </trkpt>
      <trkpt lat="45.56517" lon="6.6772">
        <ele>823</ele>
        <time>2013-04-01T07:55:02Z</time>
      </trkpt>
      <trkpt lat="45.56527" lon="6.67739">
        <ele>806</ele>
        <time>2013-04-01T07:55:10Z</time>
      </trkpt>
      <trkpt lat="45.56533" lon="6.67759">
        <ele>806</ele>
        <time>2013-04-01T07:55:17Z</time>
      </trkpt>
      <trkpt lat="45.56534" lon="6.67766">
        <ele>806</ele>
        <time>2013-04-01T07:55:19Z</time>
      </trkpt>
      <trkpt lat="45.56536" lon="6.6777">
        <ele>806</ele>
        <time>2013-04-01T07:55:21Z</time>
      </trkpt>
      <trkpt lat="45.56545" lon="6.67791">
        <ele>806</ele>
        <time>2013-04-01T07:55:28Z</time>
      </trkpt>
      <trkpt lat="45.56547" lon="6.67796">
        <ele>853</ele>
        <time>2013-04-01T07:55:30Z</time>
      </trkpt>
      <trkpt lat="45.56549" lon="6.67801">
        <ele>853</ele>
        <time>2013-04-01T07:55:32Z</time>
      </trkpt>
      <trkpt lat="45.56551" lon="6.67806">
        <ele>835</ele>
        <time>2013-04-01T07:55:34Z</time>
      </trkpt>
      <trkpt lat="45.56553" lon="6.67811">
        <ele>835</ele>
        <time>2013-04-01T07:55:47Z</time>
      </trkpt>
      <trkpt lat="45.5657" lon="6.6784">
        <ele>835</ele>
        <time>2013-04-01T07:55:59Z</time>
      </trkpt>
      <trkpt lat="45.56585" lon="6.6787">
        <ele>835</ele>
        <time>2013-04-01T07:56:10Z</time>
      </trkpt>
      <trkpt lat="45.56588" lon="6.67877">
        <ele>835</ele>
        <time>2013-04-01T07:56:12Z</time>
      </trkpt>
      <trkpt lat="45.56589" lon="6.67882">
        <ele>835</ele>
        <time>2013-04-01T07:56:14Z</time>
      </trkpt>
      <trkpt lat="45.56592" lon="6.6789">
        <ele>816</ele>
        <time>2013-04-01T07:56:17Z</time>
      </trkpt>
      <trkpt lat="45.566" lon="6.67905">
        <ele>816</ele>
        <time>2013-04-01T07:56:23Z</time>
      </trkpt>
      <trkpt lat="45.56613" lon="6.67931">
        <ele>816</ele>
        <time>2013-04-01T07:56:33Z</time>
      </trkpt>
      <trkpt lat="45.56614" lon="6.67935">
        <ele>816</ele>
        <time>2013-04-01T07:56:35Z</time>
      </trkpt>
      <trkpt lat="45.56616" lon="6.67941">
        <ele>816</ele>
        <time>2013-04-01T07:56:37Z</time>
      </trkpt>
      <trkpt lat="45.56618" lon="6.67948">
        <ele>816</ele>
        <time>2013-04-01T07:56:40Z</time>
      </trkpt>
      <trkpt lat="45.56619" lon="6.67968">
        <ele>811</ele>
        <time>2013-04-01T07:56:47Z</time>
      </trkpt>
      <trkpt lat="45.56617" lon="6.67988">
        <ele>811</ele>
        <time>2013-04-01T07:56:53Z</time>
      </trkpt>
      <trkpt lat="45.56616" lon="6.67995">
        <ele>811</ele>
        <time>2013-04-01T07:56:55Z</time>
      </trkpt>
      <trkpt lat="45.56617" lon="6.68">
        <ele>811</ele>
        <time>2013-04-01T07:56:57Z</time>
      </trkpt>
      <trkpt lat="45.56622" lon="6.68023">
        <ele>811</ele>
        <time>2013-04-01T07:57:07Z</time>
      </trkpt>
      <trkpt lat="45.56622" lon="6.68023">
        <ele>811</ele>
        <time>2013-04-01T07:57:11Z</time>
      </trkpt>
      <trkpt lat="45.56624" lon="6.68027">
        <ele>811</ele>
        <time>2013-04-01T07:57:22Z</time>
      </trkpt>
      <trkpt lat="45.56632" lon="6.68035">
        <ele>855</ele>
        <time>2013-04-01T07:57:28Z</time>
      </trkpt>
      <trkpt lat="45.56643" lon="6.68054">
        <ele>847</ele>
        <time>2013-04-01T07:57:36Z</time>
      </trkpt>
      <trkpt lat="45.56646" lon="6.68059">
        <ele>847</ele>
        <time>2013-04-01T07:57:38Z</time>
      </trkpt>
      <trkpt lat="45.56647" lon="6.68064">
        <ele>847</ele>
        <time>2013-04-01T07:57:40Z</time>
      </trkpt>
      <trkpt lat="45.56649" lon="6.6807">
        <ele>847</ele>
        <time>2013-04-01T07:57:42Z</time>
      </trkpt>
      <trkpt lat="45.56657" lon="6.6809">
        <ele>847</ele>
        <time>2013-04-01T07:57:50Z</time>
      </trkpt>
      <trkpt lat="45.5666" lon="6.68101">
        <ele>847</ele>
        <time>2013-04-01T07:57:55Z</time>
      </trkpt>
      <trkpt lat="45.56663" lon="6.68105">
        <ele>847</ele>
        <time>2013-04-01T07:57:57Z</time>
      </trkpt>
      <trkpt lat="45.56665" lon="6.68109">
        <ele>847</ele>
        <time>2013-04-01T07:57:59Z</time>
      </trkpt>
      <trkpt lat="45.56666" lon="6.68114">
        <ele>847</ele>
        <time>2013-04-01T07:58:01Z</time>
      </trkpt>
      <trkpt lat="45.56668" lon="6.68118">
        <ele>847</ele>
        <time>2013-04-01T07:58:03Z</time>
      </trkpt>
      <trkpt lat="45.56669" lon="6.68121">
        <ele>847</ele>
        <time>2013-04-01T07:58:05Z</time>
      </trkpt>
      <trkpt lat="45.56671" lon="6.68132">
        <ele>847</ele>
        <time>2013-04-01T07:58:09Z</time>
      </trkpt>
      <trkpt lat="45.56671" lon="6.68136">
        <ele>841</ele>
        <time>2013-04-01T07:58:11Z</time>
      </trkpt>
      <trkpt lat="45.56671" lon="6.68142">
        <ele>841</ele>
        <time>2013-04-01T07:58:13Z</time>
      </trkpt>
      <trkpt lat="45.56673" lon="6.68155">
        <ele>841</ele>
        <time>2013-04-01T07:58:18Z</time>
      </trkpt>
      <trkpt lat="45.56673" lon="6.6816">
        <ele>841</ele>
        <time>2013-04-01T07:58:20Z</time>
      </trkpt>
      <trkpt lat="45.56674" lon="6.68166">
        <ele>841</ele>
        <time>2013-04-01T07:58:22Z</time>
      </trkpt>
      <trkpt lat="45.56675" lon="6.6817">
        <ele>841</ele>
        <time>2013-04-01T07:58:24Z</time>
      </trkpt>
      <trkpt lat="45.56678" lon="6.68196">
        <ele>841</ele>
        <time>2013-04-01T07:58:34Z</time>
      </trkpt>
      <trkpt lat="45.56679" lon="6.68205">
        <ele>841</ele>
        <time>2013-04-01T07:58:38Z</time>
      </trkpt>
      <trkpt lat="45.56682" lon="6.68207">
        <ele>841</ele>
        <time>2013-04-01T07:58:40Z</time>
      </trkpt>
      <trkpt lat="45.56686" lon="6.68207">
        <ele>841</ele>
        <time>2013-04-01T07:58:42Z</time>
      </trkpt>
      <trkpt lat="45.56687" lon="6.68204">
        <ele>841</ele>
        <time>2013-04-01T07:58:44Z</time>
      </trkpt>
      <trkpt lat="45.56687" lon="6.68193">
        <ele>841</ele>
        <time>2013-04-01T07:58:49Z</time>
      </trkpt>
      <trkpt lat="45.56688" lon="6.6818">
        <ele>841</ele>
        <time>2013-04-01T07:58:55Z</time>
      </trkpt>
      <trkpt lat="45.56691" lon="6.68177">
        <ele>841</ele>
        <time>2013-04-01T07:58:57Z</time>
      </trkpt>
      <trkpt lat="45.56691" lon="6.68173">
        <ele>841</ele>
        <time>2013-04-01T07:58:59Z</time>
      </trkpt>
      <trkpt lat="45.56692" lon="6.68168">
        <ele>841</ele>
        <time>2013-04-01T07:59:01Z</time>
      </trkpt>
      <trkpt lat="45.56692" lon="6.68164">
        <ele>841</ele>
        <time>2013-04-01T07:59:03Z</time>
      </trkpt>
      <trkpt lat="45.56692" lon="6.6816">
        <ele>841</ele>
        <time>2013-04-01T07:59:05Z</time>
      </trkpt>
      <trkpt lat="45.56693" lon="6.68155">
        <ele>841</ele>
        <time>2013-04-01T07:59:07Z</time>
      </trkpt>
      <trkpt lat="45.56693" lon="6.6815">
        <ele>841</ele>
        <time>2013-04-01T07:59:09Z</time>
      </trkpt>
      <trkpt lat="45.56694" lon="6.68145">
        <ele>841</ele>
        <time>2013-04-01T07:59:11Z</time>
      </trkpt>
      <trkpt lat="45.56698" lon="6.68136">
        <ele>841</ele>
        <time>2013-04-01T07:59:15Z</time>
      </trkpt>
      <trkpt lat="45.56698" lon="6.68131">
        <ele>847</ele>
        <time>2013-04-01T07:59:17Z</time>
      </trkpt>
      <trkpt lat="45.56702" lon="6.68116">
        <ele>847</ele>
        <time>2013-04-01T07:59:23Z</time>
      </trkpt>
      <trkpt lat="45.56702" lon="6.68108">
        <ele>847</ele>
        <time>2013-04-01T07:59:26Z</time>
      </trkpt>
      <trkpt lat="45.56701" lon="6.68103">
        <ele>847</ele>
        <time>2013-04-01T07:59:28Z</time>
      </trkpt>
      <trkpt lat="45.56697" lon="6.68084">
        <ele>847</ele>
        <time>2013-04-01T07:59:34Z</time>
      </trkpt>
      <trkpt lat="45.56695" lon="6.68079">
        <ele>847</ele>
        <time>2013-04-01T07:59:36Z</time>
      </trkpt>
      <trkpt lat="45.56694" lon="6.68072">
        <ele>847</ele>
        <time>2013-04-01T07:59:38Z</time>
      </trkpt>
      <trkpt lat="45.5669" lon="6.68064">
        <ele>847</ele>
        <time>2013-04-01T07:59:41Z</time>
      </trkpt>
      <trkpt lat="45.56689" lon="6.68045">
        <ele>855</ele>
        <time>2013-04-01T07:59:47Z</time>
      </trkpt>
      <trkpt lat="45.56695" lon="6.68026">
        <ele>855</ele>
        <time>2013-04-01T07:59:55Z</time>
      </trkpt>
      <trkpt lat="45.56697" lon="6.68022">
        <ele>855</ele>
        <time>2013-04-01T07:59:57Z</time>
      </trkpt>
      <trkpt lat="45.56698" lon="6.68018">
        <ele>855</ele>
        <time>2013-04-01T07:59:59Z</time>
      </trkpt>
      <trkpt lat="45.56698" lon="6.68009">
        <ele>855</ele>
        <time>2013-04-01T08:00:02Z</time>
      </trkpt>
      <trkpt lat="45.56699" lon="6.68004">
        <ele>855</ele>
        <time>2013-04-01T08:00:04Z</time>
      </trkpt>
      <trkpt lat="45.56699" lon="6.67998">
        <ele>855</ele>
        <time>2013-04-01T08:00:06Z</time>
      </trkpt>
      <trkpt lat="45.56701" lon="6.67986">
        <ele>855</ele>
        <time>2013-04-01T08:00:11Z</time>
      </trkpt>
      <trkpt lat="45.56699" lon="6.67979">
        <ele>855</ele>
        <time>2013-04-01T08:00:14Z</time>
      </trkpt>
      <trkpt lat="45.56698" lon="6.67971">
        <ele>855</ele>
        <time>2013-04-01T08:00:16Z</time>
      </trkpt>
      <trkpt lat="45.56697" lon="6.67965">
        <ele>859</ele>
        <time>2013-04-01T08:00:18Z</time>
      </trkpt>
      <trkpt lat="45.56698" lon="6.67956">
        <ele>859</ele>
        <time>2013-04-01T08:00:21Z</time>
      </trkpt>
      <trkpt lat="45.56699" lon="6.6795">
        <ele>859</ele>
        <time>2013-04-01T08:00:23Z</time>
      </trkpt>
      <trkpt lat="45.56699" lon="6.67944">
        <ele>859</ele>
        <time>2013-04-01T08:00:25Z</time>
      </trkpt>
      <trkpt lat="45.56701" lon="6.6792">
        <ele>859</ele>
        <time>2013-04-01T08:00:33Z</time>
      </trkpt>
      <trkpt lat="45.567" lon="6.67914">
        <ele>859</ele>
        <time>2013-04-01T08:00:35Z</time>
      </trkpt>
      <trkpt lat="45.567" lon="6.67906">
        <ele>859</ele>
        <time>2013-04-01T08:00:38Z</time>
      </trkpt>
      <trkpt lat="45.56697" lon="6.67892">
        <ele>859</ele>
        <time>2013-04-01T08:00:44Z</time>
      </trkpt>
      <trkpt lat="45.56694" lon="6.67887">
        <ele>859</ele>
        <time>2013-04-01T08:00:46Z</time>
      </trkpt>
      <trkpt lat="45.56691" lon="6.67883">
        <ele>875</ele>
        <time>2013-04-01T08:00:48Z</time>
      </trkpt>
      <trkpt lat="45.56688" lon="6.67879">
        <ele>875</ele>
        <time>2013-04-01T08:00:50Z</time>
      </trkpt>
      <trkpt lat="45.56682" lon="6.67859">
        <ele>875</ele>
        <time>2013-04-01T08:00:57Z</time>
      </trkpt>
      <trkpt lat="45.56681" lon="6.67855">
        <ele>875</ele>
        <time>2013-04-01T08:00:59Z</time>
      </trkpt>
      <trkpt lat="45.5668" lon="6.67848">
        <ele>875</ele>
        <time>2013-04-01T08:01:01Z</time>
      </trkpt>
      <trkpt lat="45.56678" lon="6.67842">
        <ele>875</ele>
        <time>2013-04-01T08:01:03Z</time>
      </trkpt>
      <trkpt lat="45.56671" lon="6.67827">
        <ele>875</ele>
        <time>2013-04-01T08:01:10Z</time>
      </trkpt>
      <trkpt lat="45.56669" lon="6.67823">
        <ele>875</ele>
        <time>2013-04-01T08:01:12Z</time>
      </trkpt>
      <trkpt lat="45.56667" lon="6.67818">
        <ele>875</ele>
        <time>2013-04-01T08:01:14Z</time>
      </trkpt>
      <trkpt lat="45.56664" lon="6.67813">
        <ele>875</ele>
        <time>2013-04-01T08:01:16Z</time>
      </trkpt>
      <trkpt lat="45.56659" lon="6.67801">
        <ele>898</ele>
        <time>2013-04-01T08:01:21Z</time>
      </trkpt>
      <trkpt lat="45.56657" lon="6.67795">
        <ele>898</ele>
        <time>2013-04-01T08:01:23Z</time>
      </trkpt>
      <trkpt lat="45.56656" lon="6.6779">
        <ele>898</ele>
        <time>2013-04-01T08:01:25Z</time>
      </trkpt>
      <trkpt lat="45.56653" lon="6.67777">
        <ele>898</ele>
        <time>2013-04-01T08:01:30Z</time>
      </trkpt>
      <trkpt lat="45.56651" lon="6.67772">
        <ele>898</ele>
        <time>2013-04-01T08:01:32Z</time>
      </trkpt>
      <trkpt lat="45.56649" lon="6.67765">
        <ele>898</ele>
        <time>2013-04-01T08:01:34Z</time>
      </trkpt>
      <trkpt lat="45.56646" lon="6.67758">
        <ele>898</ele>
        <time>2013-04-01T08:01:37Z</time>
      </trkpt>
      <trkpt lat="45.56639" lon="6.67746">
        <ele>898</ele>
        <time>2013-04-01T08:01:42Z</time>
      </trkpt>
      <trkpt lat="45.56638" lon="6.67742">
        <ele>898</ele>
        <time>2013-04-01T08:01:44Z</time>
      </trkpt>
      <trkpt lat="45.56635" lon="6.67738">
        <ele>898</ele>
        <time>2013-04-01T08:01:46Z</time>
      </trkpt>
      <trkpt lat="45.56632" lon="6.6773">
        <ele>898</ele>
        <time>2013-04-01T08:01:49Z</time>
      </trkpt>
      <trkpt lat="45.56628" lon="6.6772">
        <ele>869</ele>
        <time>2013-04-01T08:01:53Z</time>
      </trkpt>
      <trkpt lat="45.56626" lon="6.67715">
        <ele>869</ele>
        <time>2013-04-01T08:01:55Z</time>
      </trkpt>
      <trkpt lat="45.5662" lon="6.67699">
        <ele>869</ele>
        <time>2013-04-01T08:02:01Z</time>
      </trkpt>
      <trkpt lat="45.56617" lon="6.67681">
        <ele>869</ele>
        <time>2013-04-01T08:02:07Z</time>
      </trkpt>
      <trkpt lat="45.56617" lon="6.67675">
        <ele>869</ele>
        <time>2013-04-01T08:02:09Z</time>
      </trkpt>
      <trkpt lat="45.56616" lon="6.67669">
        <ele>869</ele>
        <time>2013-04-01T08:02:11Z</time>
      </trkpt>
      <trkpt lat="45.56617" lon="6.67652">
        <ele>869</ele>
        <time>2013-04-01T08:02:17Z</time>
      </trkpt>
      <trkpt lat="45.56618" lon="6.67645">
        <ele>869</ele>
        <time>2013-04-01T08:02:19Z</time>
      </trkpt>
      <trkpt lat="45.5662" lon="6.67639">
        <ele>869</ele>
        <time>2013-04-01T08:02:21Z</time>
      </trkpt>
      <trkpt lat="45.56626" lon="6.67618">
        <ele>872</ele>
        <time>2013-04-01T08:02:29Z</time>
      </trkpt>
      <trkpt lat="45.56627" lon="6.67612">
        <ele>872</ele>
        <time>2013-04-01T08:02:31Z</time>
      </trkpt>
      <trkpt lat="45.56629" lon="6.67607">
        <ele>905</ele>
        <time>2013-04-01T08:02:33Z</time>
      </trkpt>
      <trkpt lat="45.56636" lon="6.67588">
        <ele>905</ele>
        <time>2013-04-01T08:02:41Z</time>
      </trkpt>
      <trkpt lat="45.56637" lon="6.67584">
        <ele>905</ele>
        <time>2013-04-01T08:02:43Z</time>
      </trkpt>
      <trkpt lat="45.56639" lon="6.6758">
        <ele>905</ele>
        <time>2013-04-01T08:02:45Z</time>
      </trkpt>
      <trkpt lat="45.56641" lon="6.67571">
        <ele>905</ele>
        <time>2013-04-01T08:02:49Z</time>
      </trkpt>
      <trkpt lat="45.56645" lon="6.67563">
        <ele>905</ele>
        <time>2013-04-01T08:02:53Z</time>
      </trkpt>
      <trkpt lat="45.56647" lon="6.67558">
        <ele>905</ele>
        <time>2013-04-01T08:02:55Z</time>
      </trkpt>
      <trkpt lat="45.56648" lon="6.67549">
        <ele>905</ele>
        <time>2013-04-01T08:02:58Z</time>
      </trkpt>
      <trkpt lat="45.56649" lon="6.67545">
        <ele>905</ele>
        <time>2013-04-01T08:03:00Z</time>
      </trkpt>
      <trkpt lat="45.56649" lon="6.67532">
        <ele>906</ele>
        <time>2013-04-01T08:03:05Z</time>
      </trkpt>
      <trkpt lat="45.56649" lon="6.67526">
        <ele>906</ele>
        <time>2013-04-01T08:03:07Z</time>
      </trkpt>
      <trkpt lat="45.56649" lon="6.67519">
        <ele>906</ele>
        <time>2013-04-01T08:03:09Z</time>
      </trkpt>
      <trkpt lat="45.56642" lon="6.675">
        <ele>906</ele>
        <time>2013-04-01T08:03:16Z</time>
      </trkpt>
      <trkpt lat="45.5664" lon="6.67494">
        <ele>906</ele>
        <time>2013-04-01T08:03:18Z</time>
      </trkpt>
      <trkpt lat="45.56641" lon="6.67489">
        <ele>906</ele>
        <time>2013-04-01T08:03:20Z</time>
      </trkpt>
      <trkpt lat="45.56649" lon="6.67482">
        <ele>906</ele>
        <time>2013-04-01T08:03:26Z</time>
      </trkpt>
      <trkpt lat="45.56649" lon="6.67481">
        <ele>906</ele>
        <time>2013-04-01T08:03:28Z</time>
      </trkpt>
      <trkpt lat="45.56648" lon="6.67482">
        <ele>906</ele>
        <time>2013-04-01T08:03:33Z</time>
      </trkpt>
      <trkpt lat="45.56657" lon="6.67473">
        <ele>906</ele>
        <time>2013-04-01T08:03:43Z</time>
      </trkpt>
      <trkpt lat="45.56663" lon="6.67468">
        <ele>906</ele>
        <time>2013-04-01T08:03:47Z</time>
      </trkpt>
      <trkpt lat="45.56666" lon="6.67466">
        <ele>906</ele>
        <time>2013-04-01T08:03:49Z</time>
      </trkpt>
      <trkpt lat="45.56669" lon="6.67464">
        <ele>906</ele>
        <time>2013-04-01T08:03:51Z</time>
      </trkpt>
      <trkpt lat="45.56675" lon="6.67457">
        <ele>906</ele>
        <time>2013-04-01T08:03:56Z</time>
      </trkpt>
      <trkpt lat="45.56677" lon="6.67459">
        <ele>906</ele>
        <time>2013-04-01T08:03:58Z</time>
      </trkpt>
      <trkpt lat="45.56677" lon="6.67462">
        <ele>906</ele>
        <time>2013-04-01T08:04:00Z</time>
      </trkpt>
      <trkpt lat="45.56678" lon="6.67467">
        <ele>906</ele>
        <time>2013-04-01T08:04:05Z</time>
      </trkpt>
      <trkpt lat="45.56677" lon="6.67471">
        <ele>906</ele>
        <time>2013-04-01T08:04:07Z</time>
      </trkpt>
      <trkpt lat="45.56677" lon="6.67477">
        <ele>906</ele>
        <time>2013-04-01T08:04:10Z</time>
      </trkpt>
      <trkpt lat="45.56678" lon="6.6748">
        <ele>906</ele>
        <time>2013-04-01T08:04:12Z</time>
      </trkpt>
      <trkpt lat="45.5668" lon="6.67485">
        <ele>906</ele>
        <time>2013-04-01T08:04:14Z</time>
      </trkpt>
      <trkpt lat="45.56681" lon="6.67491">
        <ele>906</ele>
        <time>2013-04-01T08:04:16Z</time>
      </trkpt>
      <trkpt lat="45.56679" lon="6.67496">
        <ele>906</ele>
        <time>2013-04-01T08:04:18Z</time>
      </trkpt>
      <trkpt lat="45.56679" lon="6.67505">
        <ele>906</ele>
        <time>2013-04-01T08:04:21Z</time>
      </trkpt>
      <trkpt lat="45.5668" lon="6.67509">
        <ele>906</ele>
        <time>2013-04-01T08:04:23Z</time>
      </trkpt>
      <trkpt lat="45.56682" lon="6.67518">
        <ele>906</ele>
        <time>2013-04-01T08:04:26Z</time>
      </trkpt>
      <trkpt lat="45.56683" lon="6.67524">
        <ele>906</ele>
        <time>2013-04-01T08:04:28Z</time>
      </trkpt>
      <trkpt lat="45.56684" lon="6.6753">
        <ele>906</ele>
        <time>2013-04-01T08:04:30Z</time>
      </trkpt>
      <trkpt lat="45.56686" lon="6.67547">
        <ele>905</ele>
        <time>2013-04-01T08:04:35Z</time>
      </trkpt>
      <trkpt lat="45.56686" lon="6.67568">
        <ele>905</ele>
        <time>2013-04-01T08:04:41Z</time>
      </trkpt>
      <trkpt lat="45.56687" lon="6.6758">
        <ele>905</ele>
        <time>2013-04-01T08:04:45Z</time>
      </trkpt>
      <trkpt lat="45.56688" lon="6.67594">
        <ele>905</ele>
        <time>2013-04-01T08:04:49Z</time>
      </trkpt>
      <trkpt lat="45.56688" lon="6.67601">
        <ele>905</ele>
        <time>2013-04-01T08:04:51Z</time>
      </trkpt>
      <trkpt lat="45.56693" lon="6.67641">
        <ele>905</ele>
        <time>2013-04-01T08:05:03Z</time>
      </trkpt>
      <trkpt lat="45.56694" lon="6.67651">
        <ele>905</ele>
        <time>2013-04-01T08:05:06Z</time>
      </trkpt>
      <trkpt lat="45.56695" lon="6.67661">
        <ele>905</ele>
        <time>2013-04-01T08:05:09Z</time>
      </trkpt>
      <trkpt lat="45.56695" lon="6.67667">
        <ele>905</ele>
        <time>2013-04-01T08:05:11Z</time>
      </trkpt>
      <trkpt lat="45.56694" lon="6.67688">
        <ele>905</ele>
        <time>2013-04-01T08:05:17Z</time>
      </trkpt>
      <trkpt lat="45.56693" lon="6.67717">
        <ele>905</ele>
        <time>2013-04-01T08:05:27Z</time>
      </trkpt>
      <trkpt lat="45.56694" lon="6.67722">
        <ele>898</ele>
        <time>2013-04-01T08:05:29Z</time>
      </trkpt>
      <trkpt lat="45.56696" lon="6.67728">
        <ele>898</ele>
        <time>2013-04-01T08:05:31Z</time>
      </trkpt>
      <trkpt lat="45.56699" lon="6.67732">
        <ele>898</ele>
        <time>2013-04-01T08:05:33Z</time>
      </trkpt>
      <trkpt lat="45.56699" lon="6.67734">
        <ele>898</ele>
        <time>2013-04-01T08:05:37Z</time>
      </trkpt>
      <trkpt lat="45.56707" lon="6.67744">
        <ele>898</ele>
        <time>2013-04-01T08:05:49Z</time>
      </trkpt>
      <trkpt lat="45.56716" lon="6.67752">
        <ele>939</ele>
        <time>2013-04-01T08:05:53Z</time>
      </trkpt>
      <trkpt lat="45.56736" lon="6.67772">
        <ele>939</ele>
        <time>2013-04-01T08:06:02Z</time>
      </trkpt>
      <trkpt lat="45.56741" lon="6.67776">
        <ele>939</ele>
        <time>2013-04-01T08:06:04Z</time>
      </trkpt>
      <trkpt lat="45.56746" lon="6.67779">
        <ele>939</ele>
        <time>2013-04-01T08:06:06Z</time>
      </trkpt>
      <trkpt lat="45.5675" lon="6.67784">
        <ele>939</ele>
        <time>2013-04-01T08:06:08Z</time>
      </trkpt>
      <trkpt lat="45.5677" lon="6.67802">
        <ele>939</ele>
        <time>2013-04-01T08:06:16Z</time>
      </trkpt>
      <trkpt lat="45.56786" lon="6.67825">
        <ele>913</ele>
        <time>2013-04-01T08:06:24Z</time>
      </trkpt>
      <trkpt lat="45.56798" lon="6.67854">
        <ele>937</ele>
        <time>2013-04-01T08:06:33Z</time>
      </trkpt>
      <trkpt lat="45.56803" lon="6.67872">
        <ele>937</ele>
        <time>2013-04-01T08:06:39Z</time>
      </trkpt>
      <trkpt lat="45.56811" lon="6.67879">
        <ele>937</ele>
        <time>2013-04-01T08:06:43Z</time>
      </trkpt>
      <trkpt lat="45.56818" lon="6.67906">
        <ele>925</ele>
        <time>2013-04-01T08:06:52Z</time>
      </trkpt>
      <trkpt lat="45.56821" lon="6.67928">
        <ele>925</ele>
        <time>2013-04-01T08:06:59Z</time>
      </trkpt>
      <trkpt lat="45.56824" lon="6.67937">
        <ele>925</ele>
        <time>2013-04-01T08:07:04Z</time>
      </trkpt>
      <trkpt lat="45.56835" lon="6.67956">
        <ele>925</ele>
        <time>2013-04-01T08:07:11Z</time>
      </trkpt>
      <trkpt lat="45.56842" lon="6.67968">
        <ele>925</ele>
        <time>2013-04-01T08:07:17Z</time>
      </trkpt>
      <trkpt lat="45.56844" lon="6.67972">
        <ele>919</ele>
        <time>2013-04-01T08:07:19Z</time>
      </trkpt>
      <trkpt lat="45.56846" lon="6.67975">
        <ele>919</ele>
        <time>2013-04-01T08:07:21Z</time>
      </trkpt>
      <trkpt lat="45.56849" lon="6.67982">
        <ele>919</ele>
        <time>2013-04-01T08:07:25Z</time>
      </trkpt>
      <trkpt lat="45.56852" lon="6.67985">
        <ele>919</ele>
        <time>2013-04-01T08:07:27Z</time>
      </trkpt>
      <trkpt lat="45.56853" lon="6.67988">
        <ele>919</ele>
        <time>2013-04-01T08:07:29Z</time>
      </trkpt>
      <trkpt lat="45.56854" lon="6.67992">
        <ele>919</ele>
        <time>2013-04-01T08:07:31Z</time>
      </trkpt>
      <trkpt lat="45.56856" lon="6.67995">
        <ele>919</ele>
        <time>2013-04-01T08:07:33Z</time>
      </trkpt>
      <trkpt lat="45.56856" lon="6.67995">
        <ele>919</ele>
        <time>2013-04-01T08:07:35Z</time>
      </trkpt>
      <trkpt lat="45.56857" lon="6.67994">
        <ele>919</ele>
        <time>2013-04-01T08:07:37Z</time>
      </trkpt>
      <trkpt lat="45.56857" lon="6.67996">
        <ele>919</ele>
        <time>2013-04-01T08:07:39Z</time>
      </trkpt>
      <trkpt lat="45.56857" lon="6.67996">
        <ele>919</ele>
        <time>2013-04-01T08:07:42Z</time>
      </trkpt>
      <trkpt lat="45.56856" lon="6.67996">
        <ele>919</ele>
        <time>2013-04-01T08:07:49Z</time>
      </trkpt>
      <trkpt lat="45.56856" lon="6.67996">
        <ele>919</ele>
        <time>2013-04-01T08:07:57Z</time>
      </trkpt>
      <trkpt lat="45.56871" lon="6.68022">
        <ele>919</ele>
        <time>2013-04-01T08:08:08Z</time>
      </trkpt>
      <trkpt lat="45.56876" lon="6.68032">
        <ele>947</ele>
        <time>2013-04-01T08:08:13Z</time>
      </trkpt>
      <trkpt lat="45.56879" lon="6.68036">
        <ele>947</ele>
        <time>2013-04-01T08:08:15Z</time>
      </trkpt>
      <trkpt lat="45.56881" lon="6.68041">
        <ele>947</ele>
        <time>2013-04-01T08:08:17Z</time>
      </trkpt>
      <trkpt lat="45.56883" lon="6.68045">
        <ele>947</ele>
        <time>2013-04-01T08:08:19Z</time>
      </trkpt>
      <trkpt lat="45.56889" lon="6.68055">
        <ele>941</ele>
        <time>2013-04-01T08:08:24Z</time>
      </trkpt>
      <trkpt lat="45.56892" lon="6.6806">
        <ele>941</ele>
        <time>2013-04-01T08:08:26Z</time>
      </trkpt>
      <trkpt lat="45.56895" lon="6.68063">
        <ele>941</ele>
        <time>2013-04-01T08:08:28Z</time>
      </trkpt>
      <trkpt lat="45.56903" lon="6.68078">
        <ele>941</ele>
        <time>2013-04-01T08:08:36Z</time>
      </trkpt>
      <trkpt lat="45.56905" lon="6.68082">
        <ele>941</ele>
        <time>2013-04-01T08:08:38Z</time>
      </trkpt>
      <trkpt lat="45.56907" lon="6.68087">
        <ele>941</ele>
        <time>2013-04-01T08:08:40Z</time>
      </trkpt>
      <trkpt lat="45.5691" lon="6.68101">
        <ele>941</ele>
        <time>2013-04-01T08:08:46Z</time>
      </trkpt>
      <trkpt lat="45.56911" lon="6.68107">
        <ele>941</ele>
        <time>2013-04-01T08:08:48Z</time>
      </trkpt>
      <trkpt lat="45.56914" lon="6.68112">
        <ele>941</ele>
        <time>2013-04-01T08:08:50Z</time>
      </trkpt>
      <trkpt lat="45.56915" lon="6.68118">
        <ele>941</ele>
        <time>2013-04-01T08:08:52Z</time>
      </trkpt>
      <trkpt lat="45.56924" lon="6.68126">
        <ele>941</ele>
        <time>2013-04-01T08:08:56Z</time>
      </trkpt>
      <trkpt lat="45.56951" lon="6.68141">
        <ele>935</ele>
        <time>2013-04-01T08:09:06Z</time>
      </trkpt>
      <trkpt lat="45.56972" lon="6.6815">
        <ele>961</ele>
        <time>2013-04-01T08:09:14Z</time>
      </trkpt>
      <trkpt lat="45.56974" lon="6.68159">
        <ele>961</ele>
        <time>2013-04-01T08:09:18Z</time>
      </trkpt>
      <trkpt lat="45.56966" lon="6.68167">
        <ele>961</ele>
        <time>2013-04-01T08:09:22Z</time>
      </trkpt>
      <trkpt lat="45.56948" lon="6.68182">
        <ele>935</ele>
        <time>2013-04-01T08:09:30Z</time>
      </trkpt>
      <trkpt lat="45.56937" lon="6.68187">
        <ele>935</ele>
        <time>2013-04-01T08:09:34Z</time>
      </trkpt>
      <trkpt lat="45.56924" lon="6.68193">
        <ele>935</ele>
        <time>2013-04-01T08:09:39Z</time>
      </trkpt>
      <trkpt lat="45.56912" lon="6.68205">
        <ele>935</ele>
        <time>2013-04-01T08:09:45Z</time>
      </trkpt>
      <trkpt lat="45.56899" lon="6.68239">
        <ele>941</ele>
        <time>2013-04-01T08:09:55Z</time>
      </trkpt>
      <trkpt lat="45.56897" lon="6.68247">
        <ele>941</ele>
        <time>2013-04-01T08:09:57Z</time>
      </trkpt>
      <trkpt lat="45.56896" lon="6.68269">
        <ele>941</ele>
        <time>2013-04-01T08:10:03Z</time>
      </trkpt>
      <trkpt lat="45.56896" lon="6.683">
        <ele>940</ele>
        <time>2013-04-01T08:10:12Z</time>
      </trkpt>
      <trkpt lat="45.56901" lon="6.68308">
        <ele>940</ele>
        <time>2013-04-01T08:10:15Z</time>
      </trkpt>
      <trkpt lat="45.56903" lon="6.68315">
        <ele>940</ele>
        <time>2013-04-01T08:10:18Z</time>
      </trkpt>
      <trkpt lat="45.56904" lon="6.68321">
        <ele>940</ele>
        <time>2013-04-01T08:10:20Z</time>
      </trkpt>
      <trkpt lat="45.56905" lon="6.68327">
        <ele>940</ele>
        <time>2013-04-01T08:10:22Z</time>
      </trkpt>
      <trkpt lat="45.56905" lon="6.68336">
        <ele>940</ele>
        <time>2013-04-01T08:10:26Z</time>
      </trkpt>
      <trkpt lat="45.56903" lon="6.68339">
        <ele>940</ele>
        <time>2013-04-01T08:10:28Z</time>
      </trkpt>
      <trkpt lat="45.56903" lon="6.68344">
        <ele>940</ele>
        <time>2013-04-01T08:10:30Z</time>
      </trkpt>
      <trkpt lat="45.56904" lon="6.68351">
        <ele>940</ele>
        <time>2013-04-01T08:10:33Z</time>
      </trkpt>
      <trkpt lat="45.56907" lon="6.68357">
        <ele>940</ele>
        <time>2013-04-01T08:10:37Z</time>
      </trkpt>
      <trkpt lat="45.5691" lon="6.6836">
        <ele>940</ele>
        <time>2013-04-01T08:10:39Z</time>
      </trkpt>
      <trkpt lat="45.56913" lon="6.68363">
        <ele>940</ele>
        <time>2013-04-01T08:10:41Z</time>
      </trkpt>
      <trkpt lat="45.56924" lon="6.68371">
        <ele>940</ele>
        <time>2013-04-01T08:10:47Z</time>
      </trkpt>
      <trkpt lat="45.56927" lon="6.68374">
        <ele>940</ele>
        <time>2013-04-01T08:10:49Z</time>
      </trkpt>
      <trkpt lat="45.56929" lon="6.68378">
        <ele>940</ele>
        <time>2013-04-01T08:10:51Z</time>
      </trkpt>
      <trkpt lat="45.56933" lon="6.68391">
        <ele>932</ele>
        <time>2013-04-01T08:10:56Z</time>
      </trkpt>
      <trkpt lat="45.56935" lon="6.68397">
        <ele>932</ele>
        <time>2013-04-01T08:10:58Z</time>
      </trkpt>
      <trkpt lat="45.56936" lon="6.68402">
        <ele>932</ele>
        <time>2013-04-01T08:11:00Z</time>
      </trkpt>
      <trkpt lat="45.5694" lon="6.68417">
        <ele>932</ele>
        <time>2013-04-01T08:11:06Z</time>
      </trkpt>
      <trkpt lat="45.56941" lon="6.68421">
        <ele>932</ele>
        <time>2013-04-01T08:11:08Z</time>
      </trkpt>
      <trkpt lat="45.56943" lon="6.68425">
        <ele>932</ele>
        <time>2013-04-01T08:11:10Z</time>
      </trkpt>
      <trkpt lat="45.56946" lon="6.68427">
        <ele>932</ele>
        <time>2013-04-01T08:11:12Z</time>
      </trkpt>
      <trkpt lat="45.56956" lon="6.68426">
        <ele>932</ele>
        <time>2013-04-01T08:11:17Z</time>
      </trkpt>
      <trkpt lat="45.56957" lon="6.68424">
        <ele>932</ele>
        <time>2013-04-01T08:11:19Z</time>
      </trkpt>
      <trkpt lat="45.56957" lon="6.68414">
        <ele>932</ele>
        <time>2013-04-01T08:11:23Z</time>
      </trkpt>
      <trkpt lat="45.56957" lon="6.68402">
        <ele>932</ele>
        <time>2013-04-01T08:11:27Z</time>
      </trkpt>
      <trkpt lat="45.56958" lon="6.68399">
        <ele>932</ele>
        <time>2013-04-01T08:11:29Z</time>
      </trkpt>
      <trkpt lat="45.5696" lon="6.68392">
        <ele>932</ele>
        <time>2013-04-01T08:11:31Z</time>
      </trkpt>
      <trkpt lat="45.56962" lon="6.68384">
        <ele>932</ele>
        <time>2013-04-01T08:11:34Z</time>
      </trkpt>
      <trkpt lat="45.56967" lon="6.68369">
        <ele>967</ele>
        <time>2013-04-01T08:11:40Z</time>
      </trkpt>
      <trkpt lat="45.56967" lon="6.6836">
        <ele>967</ele>
        <time>2013-04-01T08:11:43Z</time>
      </trkpt>
      <trkpt lat="45.56967" lon="6.68354">
        <ele>967</ele>
        <time>2013-04-01T08:11:45Z</time>
      </trkpt>
      <trkpt lat="45.56966" lon="6.68349">
        <ele>967</ele>
        <time>2013-04-01T08:11:47Z</time>
      </trkpt>
      <trkpt lat="45.56961" lon="6.68328">
        <ele>940</ele>
        <time>2013-04-01T08:11:56Z</time>
      </trkpt>
      <trkpt lat="45.5696" lon="6.68322">
        <ele>940</ele>
        <time>2013-04-01T08:11:58Z</time>
      </trkpt>
      <trkpt lat="45.56959" lon="6.68319">
        <ele>940</ele>
        <time>2013-04-01T08:12:00Z</time>
      </trkpt>
      <trkpt lat="45.5696" lon="6.68314">
        <ele>940</ele>
        <time>2013-04-01T08:12:02Z</time>
      </trkpt>
      <trkpt lat="45.5696" lon="6.68304">
        <ele>940</ele>
        <time>2013-04-01T08:12:07Z</time>
      </trkpt>
      <trkpt lat="45.5696" lon="6.68294">
        <ele>941</ele>
        <time>2013-04-01T08:12:11Z</time>
      </trkpt>
      <trkpt lat="45.5696" lon="6.68289">
        <ele>941</ele>
        <time>2013-04-01T08:12:13Z</time>
      </trkpt>
      <trkpt lat="45.5696" lon="6.68285">
        <ele>941</ele>
        <time>2013-04-01T08:12:15Z</time>
      </trkpt>
      <trkpt lat="45.56961" lon="6.68278">
        <ele>941</ele>
        <time>2013-04-01T08:12:18Z</time>
      </trkpt>
      <trkpt lat="45.56961" lon="6.68274">
        <ele>941</ele>
        <time>2013-04-01T08:12:20Z</time>
      </trkpt>
      <trkpt lat="45.56962" lon="6.68269">
        <ele>941</ele>
        <time>2013-04-01T08:12:22Z</time>
      </trkpt>
      <trkpt lat="45.56968" lon="6.68264">
        <ele>965</ele>
        <time>2013-04-01T08:12:26Z</time>
      </trkpt>
      <trkpt lat="45.56973" lon="6.68269">
        <ele>965</ele>
        <time>2013-04-01T08:12:30Z</time>
      </trkpt>
      <trkpt lat="45.56974" lon="6.68273">
        <ele>965</ele>
        <time>2013-04-01T08:12:32Z</time>
      </trkpt>
      <trkpt lat="45.56975" lon="6.68277">
        <ele>965</ele>
        <time>2013-04-01T08:12:34Z</time>
      </trkpt>
      <trkpt lat="45.56975" lon="6.68279">
        <ele>965</ele>
        <time>2013-04-01T08:12:36Z</time>
      </trkpt>
      <trkpt lat="45.56975" lon="6.68285">
        <ele>965</ele>
        <time>2013-04-01T08:12:39Z</time>
      </trkpt>
      <trkpt lat="45.56975" lon="6.68288">
        <ele>965</ele>
        <time>2013-04-01T08:12:41Z</time>
      </trkpt>
      <trkpt lat="45.56976" lon="6.68292">
        <ele>965</ele>
        <time>2013-04-01T08:12:43Z</time>
      </trkpt>
      <trkpt lat="45.56978" lon="6.68301">
        <ele>967</ele>
        <time>2013-04-01T08:12:47Z</time>
      </trkpt>
      <trkpt lat="45.56979" lon="6.68305">
        <ele>967</ele>
        <time>2013-04-01T08:12:49Z</time>
      </trkpt>
      <trkpt lat="45.5698" lon="6.6831">
        <ele>967</ele>
        <time>2013-04-01T08:12:51Z</time>
      </trkpt>
      <trkpt lat="45.56981" lon="6.68313">
        <ele>967</ele>
        <time>2013-04-01T08:12:53Z</time>
      </trkpt>
      <trkpt lat="45.56987" lon="6.68323">
        <ele>967</ele>
        <time>2013-04-01T08:12:59Z</time>
      </trkpt>
      <trkpt lat="45.56993" lon="6.68326">
        <ele>967</ele>
        <time>2013-04-01T08:13:02Z</time>
      </trkpt>
      <trkpt lat="45.56995" lon="6.6833">
        <ele>967</ele>
        <time>2013-04-01T08:13:04Z</time>
      </trkpt>
      <trkpt lat="45.56998" lon="6.68335">
        <ele>967</ele>
        <time>2013-04-01T08:13:07Z</time>
      </trkpt>
      <trkpt lat="45.57001" lon="6.6834">
        <ele>967</ele>
        <time>2013-04-01T08:13:09Z</time>
      </trkpt>
      <trkpt lat="45.57002" lon="6.68343">
        <ele>967</ele>
        <time>2013-04-01T08:13:11Z</time>
      </trkpt>
      <trkpt lat="45.57011" lon="6.68354">
        <ele>967</ele>
        <time>2013-04-01T08:13:17Z</time>
      </trkpt>
      <trkpt lat="45.57017" lon="6.68362">
        <ele>967</ele>
        <time>2013-04-01T08:13:21Z</time>
      </trkpt>
      <trkpt lat="45.57017" lon="6.68365">
        <ele>967</ele>
        <time>2013-04-01T08:13:23Z</time>
      </trkpt>
      <trkpt lat="45.5702" lon="6.68376">
        <ele>967</ele>
        <time>2013-04-01T08:13:27Z</time>
      </trkpt>
      <trkpt lat="45.57026" lon="6.68388">
        <ele>960</ele>
        <time>2013-04-01T08:13:43Z</time>
      </trkpt>
      <trkpt lat="45.57031" lon="6.68395">
        <ele>960</ele>
        <time>2013-04-01T08:13:47Z</time>
      </trkpt>
      <trkpt lat="45.57035" lon="6.68398">
        <ele>960</ele>
        <time>2013-04-01T08:13:49Z</time>
      </trkpt>
      <trkpt lat="45.57038" lon="6.684">
        <ele>960</ele>
        <time>2013-04-01T08:13:51Z</time>
      </trkpt>
      <trkpt lat="45.57048" lon="6.68409">
        <ele>985</ele>
        <time>2013-04-01T08:13:57Z</time>
      </trkpt>
      <trkpt lat="45.57052" lon="6.68412">
        <ele>985</ele>
        <time>2013-04-01T08:13:59Z</time>
      </trkpt>
      <trkpt lat="45.57055" lon="6.68416">
        <ele>985</ele>
        <time>2013-04-01T08:14:01Z</time>
      </trkpt>
      <trkpt lat="45.57061" lon="6.68423">
        <ele>985</ele>
        <time>2013-04-01T08:14:05Z</time>
      </trkpt>
      <trkpt lat="45.57064" lon="6.68427">
        <ele>985</ele>
        <time>2013-04-01T08:14:07Z</time>
      </trkpt>
      <trkpt lat="45.57067" lon="6.68431">
        <ele>985</ele>
        <time>2013-04-01T08:14:09Z</time>
      </trkpt>
      <trkpt lat="45.57069" lon="6.68435">
        <ele>985</ele>
        <time>2013-04-01T08:14:11Z</time>
      </trkpt>
      <trkpt lat="45.57077" lon="6.68453">
        <ele>985</ele>
        <time>2013-04-01T08:14:19Z</time>
      </trkpt>
      <trkpt lat="45.57079" lon="6.68457">
        <ele>985</ele>
        <time>2013-04-01T08:14:21Z</time>
      </trkpt>
      <trkpt lat="45.5708" lon="6.68461">
        <ele>985</ele>
        <time>2013-04-01T08:14:23Z</time>
      </trkpt>
      <trkpt lat="45.57079" lon="6.6847">
        <ele>981</ele>
        <time>2013-04-01T08:14:27Z</time>
      </trkpt>
      <trkpt lat="45.57081" lon="6.6848">
        <ele>981</ele>
        <time>2013-04-01T08:14:31Z</time>
      </trkpt>
      <trkpt lat="45.57081" lon="6.68484">
        <ele>981</ele>
        <time>2013-04-01T08:14:33Z</time>
      </trkpt>
      <trkpt lat="45.5708" lon="6.68493">
        <ele>981</ele>
        <time>2013-04-01T08:14:37Z</time>
      </trkpt>
      <trkpt lat="45.57079" lon="6.68498">
        <ele>981</ele>
        <time>2013-04-01T08:14:39Z</time>
      </trkpt>
      <trkpt lat="45.57079" lon="6.68504">
        <ele>981</ele>
        <time>2013-04-01T08:14:42Z</time>
      </trkpt>
      <trkpt lat="45.57079" lon="6.68514">
        <ele>981</ele>
        <time>2013-04-01T08:14:47Z</time>
      </trkpt>
      <trkpt lat="45.5708" lon="6.68514">
        <ele>981</ele>
        <time>2013-04-01T08:14:49Z</time>
      </trkpt>
      <trkpt lat="45.5708" lon="6.68514">
        <ele>981</ele>
        <time>2013-04-01T08:14:51Z</time>
      </trkpt>
      <trkpt lat="45.5708" lon="6.68516">
        <ele>981</ele>
        <time>2013-04-01T08:14:57Z</time>
      </trkpt>
      <trkpt lat="45.57081" lon="6.68521">
        <ele>981</ele>
        <time>2013-04-01T08:15:05Z</time>
      </trkpt>
      <trkpt lat="45.57087" lon="6.68521">
        <ele>981</ele>
        <time>2013-04-01T08:15:11Z</time>
      </trkpt>
      <trkpt lat="45.57089" lon="6.68518">
        <ele>981</ele>
        <time>2013-04-01T08:15:13Z</time>
      </trkpt>
      <trkpt lat="45.5709" lon="6.68514">
        <ele>981</ele>
        <time>2013-04-01T08:15:15Z</time>
      </trkpt>
      <trkpt lat="45.57092" lon="6.68508">
        <ele>981</ele>
        <time>2013-04-01T08:15:18Z</time>
      </trkpt>
      <trkpt lat="45.57093" lon="6.68504">
        <ele>981</ele>
        <time>2013-04-01T08:15:20Z</time>
      </trkpt>
      <trkpt lat="45.57094" lon="6.68499">
        <ele>981</ele>
        <time>2013-04-01T08:15:22Z</time>
      </trkpt>
      <trkpt lat="45.57096" lon="6.68496">
        <ele>981</ele>
        <time>2013-04-01T08:15:24Z</time>
      </trkpt>
      <trkpt lat="45.571" lon="6.68485">
        <ele>981</ele>
        <time>2013-04-01T08:15:29Z</time>
      </trkpt>
      <trkpt lat="45.57101" lon="6.6848">
        <ele>981</ele>
        <time>2013-04-01T08:15:31Z</time>
      </trkpt>
      <trkpt lat="45.57104" lon="6.68478">
        <ele>981</ele>
        <time>2013-04-01T08:15:33Z</time>
      </trkpt>
      <trkpt lat="45.57107" lon="6.68471">
        <ele>981</ele>
        <time>2013-04-01T08:15:36Z</time>
      </trkpt>
      <trkpt lat="45.57112" lon="6.68461">
        <ele>985</ele>
        <time>2013-04-01T08:15:41Z</time>
      </trkpt>
      <trkpt lat="45.57113" lon="6.68457">
        <ele>985</ele>
        <time>2013-04-01T08:15:43Z</time>
      </trkpt>
      <trkpt lat="45.57114" lon="6.68451">
        <ele>985</ele>
        <time>2013-04-01T08:15:45Z</time>
      </trkpt>
      <trkpt lat="45.57113" lon="6.68433">
        <ele>985</ele>
        <time>2013-04-01T08:15:52Z</time>
      </trkpt>
      <trkpt lat="45.57113" lon="6.68428">
        <ele>985</ele>
        <time>2013-04-01T08:15:54Z</time>
      </trkpt>
      <trkpt lat="45.57112" lon="6.68423">
        <ele>985</ele>
        <time>2013-04-01T08:15:56Z</time>
      </trkpt>
      <trkpt lat="45.57112" lon="6.6841">
        <ele>985</ele>
        <time>2013-04-01T08:16:01Z</time>
      </trkpt>
      <trkpt lat="45.57111" lon="6.68404">
        <ele>985</ele>
        <time>2013-04-01T08:16:03Z</time>
      </trkpt>
      <trkpt lat="45.5711" lon="6.68398">
        <ele>985</ele>
        <time>2013-04-01T08:16:06Z</time>
      </trkpt>
      <trkpt lat="45.57109" lon="6.68381">
        <ele>985</ele>
        <time>2013-04-01T08:16:13Z</time>
      </trkpt>
      <trkpt lat="45.5711" lon="6.68376">
        <ele>992</ele>
        <time>2013-04-01T08:16:15Z</time>
      </trkpt>
      <trkpt lat="45.5711" lon="6.68371">
        <ele>992</ele>
        <time>2013-04-01T08:16:17Z</time>
      </trkpt>
      <trkpt lat="45.5711" lon="6.68358">
        <ele>992</ele>
        <time>2013-04-01T08:16:23Z</time>
      </trkpt>
      <trkpt lat="45.57112" lon="6.68352">
        <ele>992</ele>
        <time>2013-04-01T08:16:26Z</time>
      </trkpt>
      <trkpt lat="45.57113" lon="6.68348">
        <ele>992</ele>
        <time>2013-04-01T08:16:28Z</time>
      </trkpt>
      <trkpt lat="45.57116" lon="6.68333">
        <ele>992</ele>
        <time>2013-04-01T08:16:34Z</time>
      </trkpt>
      <trkpt lat="45.57118" lon="6.68326">
        <ele>992</ele>
        <time>2013-04-01T08:16:37Z</time>
      </trkpt>
      <trkpt lat="45.57119" lon="6.68321">
        <ele>992</ele>
        <time>2013-04-01T08:16:39Z</time>
      </trkpt>
      <trkpt lat="45.5712" lon="6.68319">
        <ele>992</ele>
        <time>2013-04-01T08:16:41Z</time>
      </trkpt>
      <trkpt lat="45.5712" lon="6.68319">
        <ele>992</ele>
        <time>2013-04-01T08:16:45Z</time>
      </trkpt>
      <trkpt lat="45.57122" lon="6.68325">
        <ele>992</ele>
        <time>2013-04-01T08:16:50Z</time>
      </trkpt>
      <trkpt lat="45.57123" lon="6.68327">
        <ele>992</ele>
        <time>2013-04-01T08:16:52Z</time>
      </trkpt>
      <trkpt lat="45.57123" lon="6.6833">
        <ele>992</ele>
        <time>2013-04-01T08:16:54Z</time>
      </trkpt>
      <trkpt lat="45.57123" lon="6.68334">
        <ele>992</ele>
        <time>2013-04-01T08:16:57Z</time>
      </trkpt>
      <trkpt lat="45.57124" lon="6.68336">
        <ele>992</ele>
        <time>2013-04-01T08:16:59Z</time>
      </trkpt>
      <trkpt lat="45.57124" lon="6.68338">
        <ele>992</ele>
        <time>2013-04-01T08:17:01Z</time>
      </trkpt>
      <trkpt lat="45.57126" lon="6.6834">
        <ele>992</ele>
        <time>2013-04-01T08:17:03Z</time>
      </trkpt>
      <trkpt lat="45.57126" lon="6.68346">
        <ele>992</ele>
        <time>2013-04-01T08:17:08Z</time>
      </trkpt>
      <trkpt lat="45.57127" lon="6.68349">
        <ele>992</ele>
        <time>2013-04-01T08:17:10Z</time>
      </trkpt>
      <trkpt lat="45.57128" lon="6.68352">
        <ele>992</ele>
        <time>2013-04-01T08:17:12Z</time>
      </trkpt>
      <trkpt lat="45.57132" lon="6.68357">
        <ele>1024</ele>
        <time>2013-04-01T08:17:17Z</time>
      </trkpt>
      <trkpt lat="45.57133" lon="6.68362">
        <ele>1024</ele>
        <time>2013-04-01T08:17:20Z</time>
      </trkpt>
      <trkpt lat="45.57135" lon="6.68365">
        <ele>1024</ele>
        <time>2013-04-01T08:17:23Z</time>
      </trkpt>
      <trkpt lat="45.57137" lon="6.68368">
        <ele>1024</ele>
        <time>2013-04-01T08:17:25Z</time>
      </trkpt>
      <trkpt lat="45.57138" lon="6.68372">
        <ele>1024</ele>
        <time>2013-04-01T08:17:27Z</time>
      </trkpt>
      <trkpt lat="45.57138" lon="6.68376">
        <ele>1024</ele>
        <time>2013-04-01T08:17:30Z</time>
      </trkpt>
      <trkpt lat="45.5714" lon="6.68378">
        <ele>1024</ele>
        <time>2013-04-01T08:17:32Z</time>
      </trkpt>
      <trkpt lat="45.57141" lon="6.68383">
        <ele>1020</ele>
        <time>2013-04-01T08:17:34Z</time>
      </trkpt>
      <trkpt lat="45.57144" lon="6.68389">
        <ele>1020</ele>
        <time>2013-04-01T08:17:39Z</time>
      </trkpt>
      <trkpt lat="45.57144" lon="6.68391">
        <ele>1020</ele>
        <time>2013-04-01T08:17:41Z</time>
      </trkpt>
      <trkpt lat="45.57145" lon="6.68393">
        <ele>1020</ele>
        <time>2013-04-01T08:17:43Z</time>
      </trkpt>
      <trkpt lat="45.57148" lon="6.68398">
        <ele>1020</ele>
        <time>2013-04-01T08:17:47Z</time>
      </trkpt>
      <trkpt lat="45.57149" lon="6.684">
        <ele>1020</ele>
        <time>2013-04-01T08:17:49Z</time>
      </trkpt>
      <trkpt lat="45.5715" lon="6.68402">
        <ele>1020</ele>
        <time>2013-04-01T08:17:51Z</time>
      </trkpt>
      <trkpt lat="45.57152" lon="6.68404">
        <ele>1020</ele>
        <time>2013-04-01T08:17:53Z</time>
      </trkpt>
      <trkpt lat="45.57153" lon="6.68407">
        <ele>1020</ele>
        <time>2013-04-01T08:17:55Z</time>
      </trkpt>
      <trkpt lat="45.57155" lon="6.6841">
        <ele>1020</ele>
        <time>2013-04-01T08:17:57Z</time>
      </trkpt>
      <trkpt lat="45.57156" lon="6.68412">
        <ele>1020</ele>
        <time>2013-04-01T08:17:59Z</time>
      </trkpt>
      <trkpt lat="45.57156" lon="6.68413">
        <ele>1020</ele>
        <time>2013-04-01T08:18:01Z</time>
      </trkpt>
      <trkpt lat="45.57158" lon="6.68416">
        <ele>1020</ele>
        <time>2013-04-01T08:18:03Z</time>
      </trkpt>
      <trkpt lat="45.57161" lon="6.68422">
        <ele>1020</ele>
        <time>2013-04-01T08:18:09Z</time>
      </trkpt>
      <trkpt lat="45.57162" lon="6.68426">
        <ele>1020</ele>
        <time>2013-04-01T08:18:12Z</time>
      </trkpt>
      <trkpt lat="45.57163" lon="6.6843">
        <ele>1020</ele>
        <time>2013-04-01T08:18:14Z</time>
      </trkpt>
      <trkpt lat="45.57164" lon="6.68433">
        <ele>1020</ele>
        <time>2013-04-01T08:18:16Z</time>
      </trkpt>
      <trkpt lat="45.57164" lon="6.68436">
        <ele>1020</ele>
        <time>2013-04-01T08:18:18Z</time>
      </trkpt>
      <trkpt lat="45.57165" lon="6.68438">
        <ele>1020</ele>
        <time>2013-04-01T08:18:20Z</time>
      </trkpt>
      <trkpt lat="45.57165" lon="6.68441">
        <ele>1020</ele>
        <time>2013-04-01T08:18:22Z</time>
      </trkpt>
      <trkpt lat="45.57164" lon="6.68446">
        <ele>1020</ele>
        <time>2013-04-01T08:18:26Z</time>
      </trkpt>
      <trkpt lat="45.57164" lon="6.6845">
        <ele>1020</ele>
        <time>2013-04-01T08:18:28Z</time>
      </trkpt>
      <trkpt lat="45.57165" lon="6.68453">
        <ele>1020</ele>
        <time>2013-04-01T08:18:30Z</time>
      </trkpt>
      <trkpt lat="45.57167" lon="6.6846">
        <ele>1020</ele>
        <time>2013-04-01T08:18:34Z</time>
      </trkpt>
      <trkpt lat="45.57168" lon="6.68462">
        <ele>1022</ele>
        <time>2013-04-01T08:18:36Z</time>
      </trkpt>
      <trkpt lat="45.5717" lon="6.68469">
        <ele>1022</ele>
        <time>2013-04-01T08:18:41Z</time>
      </trkpt>
      <trkpt lat="45.57171" lon="6.68471">
        <ele>1022</ele>
        <time>2013-04-01T08:18:43Z</time>
      </trkpt>
      <trkpt lat="45.57172" lon="6.68474">
        <ele>1022</ele>
        <time>2013-04-01T08:18:45Z</time>
      </trkpt>
      <trkpt lat="45.57173" lon="6.68476">
        <ele>1022</ele>
        <time>2013-04-01T08:18:47Z</time>
      </trkpt>
      <trkpt lat="45.57174" lon="6.68477">
        <ele>1022</ele>
        <time>2013-04-01T08:18:49Z</time>
      </trkpt>
      <trkpt lat="45.57173" lon="6.68477">
        <ele>1022</ele>
        <time>2013-04-01T08:18:51Z</time>
      </trkpt>
      <trkpt lat="45.57176" lon="6.68481">
        <ele>1022</ele>
        <time>2013-04-01T08:18:53Z</time>
      </trkpt>
      <trkpt lat="45.57177" lon="6.68487">
        <ele>1022</ele>
        <time>2013-04-01T08:18:56Z</time>
      </trkpt>
      <trkpt lat="45.57176" lon="6.68492">
        <ele>1022</ele>
        <time>2013-04-01T08:18:58Z</time>
      </trkpt>
      <trkpt lat="45.57177" lon="6.68496">
        <ele>1022</ele>
        <time>2013-04-01T08:19:00Z</time>
      </trkpt>
      <trkpt lat="45.57177" lon="6.68501">
        <ele>1022</ele>
        <time>2013-04-01T08:19:02Z</time>
      </trkpt>
      <trkpt lat="45.57179" lon="6.68509">
        <ele>1022</ele>
        <time>2013-04-01T08:19:06Z</time>
      </trkpt>
      <trkpt lat="45.57182" lon="6.68517">
        <ele>1022</ele>
        <time>2013-04-01T08:19:09Z</time>
      </trkpt>
      <trkpt lat="45.57184" lon="6.68521">
        <ele>1022</ele>
        <time>2013-04-01T08:19:11Z</time>
      </trkpt>
      <trkpt lat="45.57185" lon="6.6853">
        <ele>1022</ele>
        <time>2013-04-01T08:19:14Z</time>
      </trkpt>
      <trkpt lat="45.57186" lon="6.68538">
        <ele>1022</ele>
        <time>2013-04-01T08:19:18Z</time>
      </trkpt>
      <trkpt lat="45.57187" lon="6.6854">
        <ele>1022</ele>
        <time>2013-04-01T08:19:23Z</time>
      </trkpt>
      <trkpt lat="45.57186" lon="6.6854">
        <ele>1022</ele>
        <time>2013-04-01T08:19:34Z</time>
      </trkpt>
      <trkpt lat="45.57188" lon="6.68541">
        <ele>1022</ele>
        <time>2013-04-01T08:19:41Z</time>
      </trkpt>
      <trkpt lat="45.57192" lon="6.68541">
        <ele>1022</ele>
        <time>2013-04-01T08:19:49Z</time>
      </trkpt>
      <trkpt lat="45.57191" lon="6.68528">
        <ele>1022</ele>
        <time>2013-04-01T08:19:55Z</time>
      </trkpt>
      <trkpt lat="45.57191" lon="6.68523">
        <ele>1022</ele>
        <time>2013-04-01T08:19:57Z</time>
      </trkpt>
      <trkpt lat="45.57191" lon="6.68515">
        <ele>1022</ele>
        <time>2013-04-01T08:20:00Z</time>
      </trkpt>
      <trkpt lat="45.57193" lon="6.68506">
        <ele>1022</ele>
        <time>2013-04-01T08:20:04Z</time>
      </trkpt>
      <trkpt lat="45.57195" lon="6.68501">
        <ele>1022</ele>
        <time>2013-04-01T08:20:06Z</time>
      </trkpt>
      <trkpt lat="45.57198" lon="6.68497">
        <ele>1022</ele>
        <time>2013-04-01T08:20:08Z</time>
      </trkpt>
      <trkpt lat="45.57207" lon="6.68482">
        <ele>1022</ele>
        <time>2013-04-01T08:20:15Z</time>
      </trkpt>
      <trkpt lat="45.57209" lon="6.68477">
        <ele>1022</ele>
        <time>2013-04-01T08:20:17Z</time>
      </trkpt>
      <trkpt lat="45.57212" lon="6.68473">
        <ele>1062</ele>
        <time>2013-04-01T08:20:19Z</time>
      </trkpt>
      <trkpt lat="45.57216" lon="6.68465">
        <ele>1062</ele>
        <time>2013-04-01T08:20:23Z</time>
      </trkpt>
      <trkpt lat="45.57221" lon="6.68456">
        <ele>1055</ele>
        <time>2013-04-01T08:20:27Z</time>
      </trkpt>
      <trkpt lat="45.57223" lon="6.68451">
        <ele>1055</ele>
        <time>2013-04-01T08:20:29Z</time>
      </trkpt>
      <trkpt lat="45.57225" lon="6.68446">
        <ele>1055</ele>
        <time>2013-04-01T08:20:31Z</time>
      </trkpt>
      <trkpt lat="45.57231" lon="6.68427">
        <ele>1055</ele>
        <time>2013-04-01T08:20:39Z</time>
      </trkpt>
      <trkpt lat="45.57232" lon="6.68422">
        <ele>1055</ele>
        <time>2013-04-01T08:20:41Z</time>
      </trkpt>
      <trkpt lat="45.57233" lon="6.68417">
        <ele>1055</ele>
        <time>2013-04-01T08:20:43Z</time>
      </trkpt>
      <trkpt lat="45.57237" lon="6.68398">
        <ele>1055</ele>
        <time>2013-04-01T08:20:50Z</time>
      </trkpt>
      <trkpt lat="45.57238" lon="6.68392">
        <ele>1055</ele>
        <time>2013-04-01T08:20:52Z</time>
      </trkpt>
      <trkpt lat="45.5724" lon="6.6839">
        <ele>1055</ele>
        <time>2013-04-01T08:20:54Z</time>
      </trkpt>
      <trkpt lat="45.57244" lon="6.6839">
        <ele>1055</ele>
        <time>2013-04-01T08:20:59Z</time>
      </trkpt>
      <trkpt lat="45.57246" lon="6.6839">
        <ele>1055</ele>
        <time>2013-04-01T08:21:01Z</time>
      </trkpt>
      <trkpt lat="45.57248" lon="6.68391">
        <ele>1055</ele>
        <time>2013-04-01T08:21:03Z</time>
      </trkpt>
      <trkpt lat="45.57251" lon="6.68393">
        <ele>1055</ele>
        <time>2013-04-01T08:21:06Z</time>
      </trkpt>
      <trkpt lat="45.57253" lon="6.68394">
        <ele>1055</ele>
        <time>2013-04-01T08:21:08Z</time>
      </trkpt>
      <trkpt lat="45.57255" lon="6.68393">
        <ele>1055</ele>
        <time>2013-04-01T08:21:10Z</time>
      </trkpt>
      <trkpt lat="45.57258" lon="6.68397">
        <ele>1055</ele>
        <time>2013-04-01T08:21:13Z</time>
      </trkpt>
      <trkpt lat="45.57259" lon="6.68402">
        <ele>1055</ele>
        <time>2013-04-01T08:21:16Z</time>
      </trkpt>
      <trkpt lat="45.57259" lon="6.68411">
        <ele>1055</ele>
        <time>2013-04-01T08:21:21Z</time>
      </trkpt>
      <trkpt lat="45.57259" lon="6.68416">
        <ele>1055</ele>
        <time>2013-04-01T08:21:24Z</time>
      </trkpt>
      <trkpt lat="45.57258" lon="6.68428">
        <ele>1055</ele>
        <time>2013-04-01T08:21:29Z</time>
      </trkpt>
      <trkpt lat="45.57259" lon="6.68435">
        <ele>1055</ele>
        <time>2013-04-01T08:21:32Z</time>
      </trkpt>
      <trkpt lat="45.57261" lon="6.68437">
        <ele>1055</ele>
        <time>2013-04-01T08:21:34Z</time>
      </trkpt>
      <trkpt lat="45.57262" lon="6.68436">
        <ele>1055</ele>
        <time>2013-04-01T08:21:36Z</time>
      </trkpt>
      <trkpt lat="45.57263" lon="6.68436">
        <ele>1055</ele>
        <time>2013-04-01T08:21:38Z</time>
      </trkpt>
      <trkpt lat="45.57267" lon="6.6844">
        <ele>1055</ele>
        <time>2013-04-01T08:21:44Z</time>
      </trkpt>
      <trkpt lat="45.57268" lon="6.68442">
        <ele>1055</ele>
        <time>2013-04-01T08:21:46Z</time>
      </trkpt>
      <trkpt lat="45.57269" lon="6.68442">
        <ele>1055</ele>
        <time>2013-04-01T08:21:48Z</time>
      </trkpt>
      <trkpt lat="45.5727" lon="6.68443">
        <ele>1055</ele>
        <time>2013-04-01T08:21:50Z</time>
      </trkpt>
      <trkpt lat="45.57272" lon="6.68444">
        <ele>1055</ele>
        <time>2013-04-01T08:21:52Z</time>
      </trkpt>
      <trkpt lat="45.57273" lon="6.68446">
        <ele>1055</ele>
        <time>2013-04-01T08:21:54Z</time>
      </trkpt>
      <trkpt lat="45.57274" lon="6.68448">
        <ele>1055</ele>
        <time>2013-04-01T08:21:56Z</time>
      </trkpt>
      <trkpt lat="45.57275" lon="6.68449">
        <ele>1055</ele>
        <time>2013-04-01T08:21:58Z</time>
      </trkpt>
      <trkpt lat="45.57279" lon="6.68451">
        <ele>1055</ele>
        <time>2013-04-01T08:22:03Z</time>
      </trkpt>
      <trkpt lat="45.57279" lon="6.68451">
        <ele>1055</ele>
        <time>2013-04-01T08:22:05Z</time>
      </trkpt>
      <trkpt lat="45.5728" lon="6.68451">
        <ele>1055</ele>
        <time>2013-04-01T08:22:07Z</time>
      </trkpt>
      <trkpt lat="45.57282" lon="6.68452">
        <ele>1055</ele>
        <time>2013-04-01T08:22:09Z</time>
      </trkpt>
      <trkpt lat="45.57283" lon="6.68451">
        <ele>1055</ele>
        <time>2013-04-01T08:22:11Z</time>
      </trkpt>
      <trkpt lat="45.57286" lon="6.68453">
        <ele>1055</ele>
        <time>2013-04-01T08:22:15Z</time>
      </trkpt>
      <trkpt lat="45.57287" lon="6.68455">
        <ele>1055</ele>
        <time>2013-04-01T08:22:17Z</time>
      </trkpt>
      <trkpt lat="45.57288" lon="6.68456">
        <ele>1055</ele>
        <time>2013-04-01T08:22:19Z</time>
      </trkpt>
      <trkpt lat="45.5729" lon="6.68462">
        <ele>1062</ele>
        <time>2013-04-01T08:22:24Z</time>
      </trkpt>
      <trkpt lat="45.5729" lon="6.68464">
        <ele>1062</ele>
        <time>2013-04-01T08:22:26Z</time>
      </trkpt>
      <trkpt lat="45.5729" lon="6.68469">
        <ele>1062</ele>
        <time>2013-04-01T08:22:30Z</time>
      </trkpt>
      <trkpt lat="45.5729" lon="6.68473">
        <ele>1062</ele>
        <time>2013-04-01T08:22:33Z</time>
      </trkpt>
      <trkpt lat="45.5729" lon="6.68478">
        <ele>1062</ele>
        <time>2013-04-01T08:22:36Z</time>
      </trkpt>
      <trkpt lat="45.57291" lon="6.68482">
        <ele>1062</ele>
        <time>2013-04-01T08:22:41Z</time>
      </trkpt>
      <trkpt lat="45.5729" lon="6.68485">
        <ele>1062</ele>
        <time>2013-04-01T08:22:44Z</time>
      </trkpt>
      <trkpt lat="45.5729" lon="6.68487">
        <ele>1062</ele>
        <time>2013-04-01T08:22:46Z</time>
      </trkpt>
      <trkpt lat="45.57292" lon="6.6849">
        <ele>1062</ele>
        <time>2013-04-01T08:22:52Z</time>
      </trkpt>
      <trkpt lat="45.57294" lon="6.6849">
        <ele>1095</ele>
        <time>2013-04-01T08:22:54Z</time>
      </trkpt>
      <trkpt lat="45.57295" lon="6.68489">
        <ele>1095</ele>
        <time>2013-04-01T08:22:56Z</time>
      </trkpt>
      <trkpt lat="45.57298" lon="6.68488">
        <ele>1095</ele>
        <time>2013-04-01T08:23:00Z</time>
      </trkpt>
      <trkpt lat="45.57299" lon="6.68488">
        <ele>1095</ele>
        <time>2013-04-01T08:23:02Z</time>
      </trkpt>
      <trkpt lat="45.57301" lon="6.68488">
        <ele>1095</ele>
        <time>2013-04-01T08:23:04Z</time>
      </trkpt>
      <trkpt lat="45.57301" lon="6.68493">
        <ele>1095</ele>
        <time>2013-04-01T08:23:08Z</time>
      </trkpt>
      <trkpt lat="45.573" lon="6.68494">
        <ele>1095</ele>
        <time>2013-04-01T08:23:10Z</time>
      </trkpt>
      <trkpt lat="45.57299" lon="6.68496">
        <ele>1095</ele>
        <time>2013-04-01T08:23:12Z</time>
      </trkpt>
      <trkpt lat="45.57298" lon="6.68499">
        <ele>1095</ele>
        <time>2013-04-01T08:23:15Z</time>
      </trkpt>
      <trkpt lat="45.573" lon="6.68502">
        <ele>1095</ele>
        <time>2013-04-01T08:23:18Z</time>
      </trkpt>
      <trkpt lat="45.57301" lon="6.68504">
        <ele>1095</ele>
        <time>2013-04-01T08:23:20Z</time>
      </trkpt>
      <trkpt lat="45.57304" lon="6.68504">
        <ele>1095</ele>
        <time>2013-04-01T08:23:22Z</time>
      </trkpt>
      <trkpt lat="45.57305" lon="6.68504">
        <ele>1095</ele>
        <time>2013-04-01T08:23:24Z</time>
      </trkpt>
      <trkpt lat="45.57307" lon="6.68503">
        <ele>1095</ele>
        <time>2013-04-01T08:23:26Z</time>
      </trkpt>
      <trkpt lat="45.5731" lon="6.68503">
        <ele>1095</ele>
        <time>2013-04-01T08:23:28Z</time>
      </trkpt>
      <trkpt lat="45.5731" lon="6.68503">
        <ele>1095</ele>
        <time>2013-04-01T08:23:30Z</time>
      </trkpt>
      <trkpt lat="45.57312" lon="6.68505">
        <ele>1095</ele>
        <time>2013-04-01T08:23:32Z</time>
      </trkpt>
      <trkpt lat="45.57314" lon="6.68505">
        <ele>1095</ele>
        <time>2013-04-01T08:23:34Z</time>
      </trkpt>
      <trkpt lat="45.57317" lon="6.6851">
        <ele>1095</ele>
        <time>2013-04-01T08:23:37Z</time>
      </trkpt>
      <trkpt lat="45.5732" lon="6.68513">
        <ele>1095</ele>
        <time>2013-04-01T08:23:39Z</time>
      </trkpt>
      <trkpt lat="45.57322" lon="6.68514">
        <ele>1095</ele>
        <time>2013-04-01T08:23:41Z</time>
      </trkpt>
      <trkpt lat="45.57326" lon="6.68517">
        <ele>1095</ele>
        <time>2013-04-01T08:23:44Z</time>
      </trkpt>
      <trkpt lat="45.57329" lon="6.6852">
        <ele>1095</ele>
        <time>2013-04-01T08:23:46Z</time>
      </trkpt>
      <trkpt lat="45.57332" lon="6.68522">
        <ele>1095</ele>
        <time>2013-04-01T08:23:48Z</time>
      </trkpt>
      <trkpt lat="45.57343" lon="6.68529">
        <ele>1095</ele>
        <time>2013-04-01T08:23:54Z</time>
      </trkpt>
      <trkpt lat="45.57346" lon="6.68532">
        <ele>1095</ele>
        <time>2013-04-01T08:23:56Z</time>
      </trkpt>
      <trkpt lat="45.57351" lon="6.68534">
        <ele>1095</ele>
        <time>2013-04-01T08:23:58Z</time>
      </trkpt>
      <trkpt lat="45.57356" lon="6.68537">
        <ele>1095</ele>
        <time>2013-04-01T08:24:01Z</time>
      </trkpt>
      <trkpt lat="45.57359" lon="6.68539">
        <ele>1095</ele>
        <time>2013-04-01T08:24:03Z</time>
      </trkpt>
      <trkpt lat="45.57363" lon="6.68541">
        <ele>1095</ele>
        <time>2013-04-01T08:24:05Z</time>
      </trkpt>
      <trkpt lat="45.5737" lon="6.68544">
        <ele>1088</ele>
        <time>2013-04-01T08:24:08Z</time>
      </trkpt>
      <trkpt lat="45.57379" lon="6.68549">
        <ele>1114</ele>
        <time>2013-04-01T08:24:13Z</time>
      </trkpt>
      <trkpt lat="45.57382" lon="6.68552">
        <ele>1114</ele>
        <time>2013-04-01T08:24:15Z</time>
      </trkpt>
      <trkpt lat="45.57391" lon="6.68557">
        <ele>1114</ele>
        <time>2013-04-01T08:24:19Z</time>
      </trkpt>
      <trkpt lat="45.57396" lon="6.68561">
        <ele>1114</ele>
        <time>2013-04-01T08:24:22Z</time>
      </trkpt>
      <trkpt lat="45.57399" lon="6.68565">
        <ele>1114</ele>
        <time>2013-04-01T08:24:24Z</time>
      </trkpt>
      <trkpt lat="45.57402" lon="6.68567">
        <ele>1114</ele>
        <time>2013-04-01T08:24:26Z</time>
      </trkpt>
      <trkpt lat="45.57407" lon="6.68568">
        <ele>1114</ele>
        <time>2013-04-01T08:24:30Z</time>
      </trkpt>
      <trkpt lat="45.5741" lon="6.68568">
        <ele>1114</ele>
        <time>2013-04-01T08:24:32Z</time>
      </trkpt>
      <trkpt lat="45.57413" lon="6.68568">
        <ele>1114</ele>
        <time>2013-04-01T08:24:34Z</time>
      </trkpt>
      <trkpt lat="45.57417" lon="6.68567">
        <ele>1114</ele>
        <time>2013-04-01T08:24:38Z</time>
      </trkpt>
      <trkpt lat="45.57419" lon="6.68567">
        <ele>1114</ele>
        <time>2013-04-01T08:24:40Z</time>
      </trkpt>
      <trkpt lat="45.57421" lon="6.68566">
        <ele>1114</ele>
        <time>2013-04-01T08:24:42Z</time>
      </trkpt>
      <trkpt lat="45.57423" lon="6.68566">
        <ele>1114</ele>
        <time>2013-04-01T08:24:44Z</time>
      </trkpt>
      <trkpt lat="45.57426" lon="6.68565">
        <ele>1114</ele>
        <time>2013-04-01T08:24:46Z</time>
      </trkpt>
      <trkpt lat="45.57429" lon="6.68565">
        <ele>1114</ele>
        <time>2013-04-01T08:24:48Z</time>
      </trkpt>
      <trkpt lat="45.5743" lon="6.68563">
        <ele>1114</ele>
        <time>2013-04-01T08:24:50Z</time>
      </trkpt>
      <trkpt lat="45.57432" lon="6.68563">
        <ele>1114</ele>
        <time>2013-04-01T08:24:52Z</time>
      </trkpt>
      <trkpt lat="45.57434" lon="6.68562">
        <ele>1114</ele>
        <time>2013-04-01T08:24:54Z</time>
      </trkpt>
      <trkpt lat="45.57435" lon="6.6856">
        <ele>1114</ele>
        <time>2013-04-01T08:24:56Z</time>
      </trkpt>
      <trkpt lat="45.57438" lon="6.68558">
        <ele>1114</ele>
        <time>2013-04-01T08:24:58Z</time>
      </trkpt>
      <trkpt lat="45.5744" lon="6.68557">
        <ele>1114</ele>
        <time>2013-04-01T08:25:00Z</time>
      </trkpt>
      <trkpt lat="45.57443" lon="6.68556">
        <ele>1114</ele>
        <time>2013-04-01T08:25:03Z</time>
      </trkpt>
      <trkpt lat="45.57444" lon="6.68553">
        <ele>1114</ele>
        <time>2013-04-01T08:25:05Z</time>
      </trkpt>
      <trkpt lat="45.57446" lon="6.68548">
        <ele>1114</ele>
        <time>2013-04-01T08:25:07Z</time>
      </trkpt>
      <trkpt lat="45.57449" lon="6.68536">
        <ele>1116</ele>
        <time>2013-04-01T08:25:13Z</time>
      </trkpt>
      <trkpt lat="45.5745" lon="6.68533">
        <ele>1116</ele>
        <time>2013-04-01T08:25:15Z</time>
      </trkpt>
      <trkpt lat="45.57452" lon="6.6853">
        <ele>1116</ele>
        <time>2013-04-01T08:25:17Z</time>
      </trkpt>
      <trkpt lat="45.57458" lon="6.68524">
        <ele>1116</ele>
        <time>2013-04-01T08:25:22Z</time>
      </trkpt>
      <trkpt lat="45.5746" lon="6.68522">
        <ele>1116</ele>
        <time>2013-04-01T08:25:24Z</time>
      </trkpt>
      <trkpt lat="45.57464" lon="6.68519">
        <ele>1116</ele>
        <time>2013-04-01T08:25:27Z</time>
      </trkpt>
      <trkpt lat="45.57468" lon="6.68517">
        <ele>1138</ele>
        <time>2013-04-01T08:25:30Z</time>
      </trkpt>
      <trkpt lat="45.5747" lon="6.68517">
        <ele>1138</ele>
        <time>2013-04-01T08:25:32Z</time>
      </trkpt>
      <trkpt lat="45.5747" lon="6.68518">
        <ele>1138</ele>
        <time>2013-04-01T08:25:34Z</time>
      </trkpt>
      <trkpt lat="45.57474" lon="6.68518">
        <ele>1138</ele>
        <time>2013-04-01T08:25:37Z</time>
      </trkpt>
      <trkpt lat="45.57476" lon="6.68516">
        <ele>1138</ele>
        <time>2013-04-01T08:25:39Z</time>
      </trkpt>
      <trkpt lat="45.57478" lon="6.68513">
        <ele>1138</ele>
        <time>2013-04-01T08:25:41Z</time>
      </trkpt>
      <trkpt lat="45.5748" lon="6.6851">
        <ele>1138</ele>
        <time>2013-04-01T08:25:43Z</time>
      </trkpt>
      <trkpt lat="45.5748" lon="6.68506">
        <ele>1138</ele>
        <time>2013-04-01T08:25:45Z</time>
      </trkpt>
      <trkpt lat="45.57478" lon="6.68496">
        <ele>1138</ele>
        <time>2013-04-01T08:25:51Z</time>
      </trkpt>
      <trkpt lat="45.57481" lon="6.68494">
        <ele>1138</ele>
        <time>2013-04-01T08:25:53Z</time>
      </trkpt>
      <trkpt lat="45.57482" lon="6.68495">
        <ele>1138</ele>
        <time>2013-04-01T08:25:55Z</time>
      </trkpt>
      <trkpt lat="45.57486" lon="6.68497">
        <ele>1138</ele>
        <time>2013-04-01T08:25:58Z</time>
      </trkpt>
      <trkpt lat="45.57487" lon="6.685">
        <ele>1138</ele>
        <time>2013-04-01T08:26:00Z</time>
      </trkpt>
      <trkpt lat="45.57489" lon="6.68507">
        <ele>1138</ele>
        <time>2013-04-01T08:26:02Z</time>
      </trkpt>
      <trkpt lat="45.5749" lon="6.68513">
        <ele>1138</ele>
        <time>2013-04-01T08:26:04Z</time>
      </trkpt>
      <trkpt lat="45.57492" lon="6.68519">
        <ele>1138</ele>
        <time>2013-04-01T08:26:06Z</time>
      </trkpt>
      <trkpt lat="45.57493" lon="6.68526">
        <ele>1138</ele>
        <time>2013-04-01T08:26:08Z</time>
      </trkpt>
      <trkpt lat="45.57494" lon="6.68534">
        <ele>1138</ele>
        <time>2013-04-01T08:26:11Z</time>
      </trkpt>
      <trkpt lat="45.57499" lon="6.68541">
        <ele>1138</ele>
        <time>2013-04-01T08:26:16Z</time>
      </trkpt>
      <trkpt lat="45.57507" lon="6.68537">
        <ele>1138</ele>
        <time>2013-04-01T08:26:24Z</time>
      </trkpt>
      <trkpt lat="45.57509" lon="6.68535">
        <ele>1138</ele>
        <time>2013-04-01T08:26:26Z</time>
      </trkpt>
      <trkpt lat="45.57511" lon="6.68533">
        <ele>1138</ele>
        <time>2013-04-01T08:26:28Z</time>
      </trkpt>
      <trkpt lat="45.57512" lon="6.6853">
        <ele>1138</ele>
        <time>2013-04-01T08:26:30Z</time>
      </trkpt>
      <trkpt lat="45.57514" lon="6.68527">
        <ele>1138</ele>
        <time>2013-04-01T08:26:32Z</time>
      </trkpt>
      <trkpt lat="45.57515" lon="6.68524">
        <ele>1138</ele>
        <time>2013-04-01T08:26:34Z</time>
      </trkpt>
      <trkpt lat="45.57516" lon="6.68519">
        <ele>1138</ele>
        <time>2013-04-01T08:26:37Z</time>
      </trkpt>
      <trkpt lat="45.57516" lon="6.68515">
        <ele>1138</ele>
        <time>2013-04-01T08:26:39Z</time>
      </trkpt>
      <trkpt lat="45.57518" lon="6.68514">
        <ele>1138</ele>
        <time>2013-04-01T08:26:41Z</time>
      </trkpt>
      <trkpt lat="45.5752" lon="6.68511">
        <ele>1138</ele>
        <time>2013-04-01T08:26:43Z</time>
      </trkpt>
      <trkpt lat="45.57521" lon="6.68505">
        <ele>1138</ele>
        <time>2013-04-01T08:26:45Z</time>
      </trkpt>
      <trkpt lat="45.57522" lon="6.68498">
        <ele>1138</ele>
        <time>2013-04-01T08:26:47Z</time>
      </trkpt>
      <trkpt lat="45.57521" lon="6.68479">
        <ele>1138</ele>
        <time>2013-04-01T08:26:53Z</time>
      </trkpt>
      <trkpt lat="45.57515" lon="6.68451">
        <ele>1147</ele>
        <time>2013-04-01T08:27:06Z</time>
      </trkpt>
      <trkpt lat="45.57512" lon="6.68444">
        <ele>1147</ele>
        <time>2013-04-01T08:27:10Z</time>
      </trkpt>
      <trkpt lat="45.57514" lon="6.68439">
        <ele>1147</ele>
        <time>2013-04-01T08:27:12Z</time>
      </trkpt>
      <trkpt lat="45.57512" lon="6.68435">
        <ele>1147</ele>
        <time>2013-04-01T08:27:15Z</time>
      </trkpt>
      <trkpt lat="45.5751" lon="6.68429">
        <ele>1147</ele>
        <time>2013-04-01T08:27:20Z</time>
      </trkpt>
      <trkpt lat="45.57511" lon="6.68425">
        <ele>1147</ele>
        <time>2013-04-01T08:27:22Z</time>
      </trkpt>
      <trkpt lat="45.5751" lon="6.6842">
        <ele>1147</ele>
        <time>2013-04-01T08:27:25Z</time>
      </trkpt>
      <trkpt lat="45.57509" lon="6.68415">
        <ele>1147</ele>
        <time>2013-04-01T08:27:28Z</time>
      </trkpt>
      <trkpt lat="45.57507" lon="6.6841">
        <ele>1147</ele>
        <time>2013-04-01T08:27:31Z</time>
      </trkpt>
      <trkpt lat="45.57507" lon="6.68407">
        <ele>1147</ele>
        <time>2013-04-01T08:27:33Z</time>
      </trkpt>
      <trkpt lat="45.57504" lon="6.68401">
        <ele>1147</ele>
        <time>2013-04-01T08:27:37Z</time>
      </trkpt>
      <trkpt lat="45.57503" lon="6.68398">
        <ele>1147</ele>
        <time>2013-04-01T08:27:39Z</time>
      </trkpt>
      <trkpt lat="45.57503" lon="6.68395">
        <ele>1147</ele>
        <time>2013-04-01T08:27:41Z</time>
      </trkpt>
      <trkpt lat="45.57504" lon="6.68391">
        <ele>1147</ele>
        <time>2013-04-01T08:27:43Z</time>
      </trkpt>
      <trkpt lat="45.57507" lon="6.68394">
        <ele>1147</ele>
        <time>2013-04-01T08:27:45Z</time>
      </trkpt>
      <trkpt lat="45.57509" lon="6.68396">
        <ele>1147</ele>
        <time>2013-04-01T08:27:47Z</time>
      </trkpt>
      <trkpt lat="45.57511" lon="6.684">
        <ele>1147</ele>
        <time>2013-04-01T08:27:49Z</time>
      </trkpt>
      <trkpt lat="45.57512" lon="6.68403">
        <ele>1147</ele>
        <time>2013-04-01T08:27:51Z</time>
      </trkpt>
      <trkpt lat="45.57518" lon="6.68413">
        <ele>1147</ele>
        <time>2013-04-01T08:27:56Z</time>
      </trkpt>
      <trkpt lat="45.57522" lon="6.68416">
        <ele>1147</ele>
        <time>2013-04-01T08:27:58Z</time>
      </trkpt>
      <trkpt lat="45.57528" lon="6.68422">
        <ele>1147</ele>
        <time>2013-04-01T08:28:01Z</time>
      </trkpt>
      <trkpt lat="45.57536" lon="6.68431">
        <ele>1147</ele>
        <time>2013-04-01T08:28:06Z</time>
      </trkpt>
      <trkpt lat="45.57544" lon="6.6844">
        <ele>1147</ele>
        <time>2013-04-01T08:28:11Z</time>
      </trkpt>
      <trkpt lat="45.57547" lon="6.68445">
        <ele>1175</ele>
        <time>2013-04-01T08:28:14Z</time>
      </trkpt>
      <trkpt lat="45.57551" lon="6.6845">
        <ele>1175</ele>
        <time>2013-04-01T08:28:17Z</time>
      </trkpt>
      <trkpt lat="45.57551" lon="6.68454">
        <ele>1175</ele>
        <time>2013-04-01T08:28:19Z</time>
      </trkpt>
      <trkpt lat="45.57552" lon="6.68458">
        <ele>1175</ele>
        <time>2013-04-01T08:28:21Z</time>
      </trkpt>
      <trkpt lat="45.57554" lon="6.68462">
        <ele>1165</ele>
        <time>2013-04-01T08:28:23Z</time>
      </trkpt>
      <trkpt lat="45.57555" lon="6.68473">
        <ele>1165</ele>
        <time>2013-04-01T08:28:27Z</time>
      </trkpt>
      <trkpt lat="45.57556" lon="6.68477">
        <ele>1165</ele>
        <time>2013-04-01T08:28:29Z</time>
      </trkpt>
      <trkpt lat="45.57556" lon="6.68485">
        <ele>1165</ele>
        <time>2013-04-01T08:28:32Z</time>
      </trkpt>
      <trkpt lat="45.57555" lon="6.6849">
        <ele>1165</ele>
        <time>2013-04-01T08:28:34Z</time>
      </trkpt>
      <trkpt lat="45.57552" lon="6.68504">
        <ele>1165</ele>
        <time>2013-04-01T08:28:40Z</time>
      </trkpt>
      <trkpt lat="45.57552" lon="6.6851">
        <ele>1165</ele>
        <time>2013-04-01T08:28:42Z</time>
      </trkpt>
      <trkpt lat="45.57551" lon="6.68515">
        <ele>1165</ele>
        <time>2013-04-01T08:28:44Z</time>
      </trkpt>
      <trkpt lat="45.57553" lon="6.68528">
        <ele>1165</ele>
        <time>2013-04-01T08:28:49Z</time>
      </trkpt>
      <trkpt lat="45.57557" lon="6.68532">
        <ele>1165</ele>
        <time>2013-04-01T08:28:52Z</time>
      </trkpt>
      <trkpt lat="45.57557" lon="6.68531">
        <ele>1165</ele>
        <time>2013-04-01T08:28:54Z</time>
      </trkpt>
      <trkpt lat="45.57558" lon="6.68533">
        <ele>1165</ele>
        <time>2013-04-01T08:28:56Z</time>
      </trkpt>
      <trkpt lat="45.57566" lon="6.68534">
        <ele>1165</ele>
        <time>2013-04-01T08:29:00Z</time>
      </trkpt>
      <trkpt lat="45.57581" lon="6.68535">
        <ele>1165</ele>
        <time>2013-04-01T08:29:08Z</time>
      </trkpt>
      <trkpt lat="45.57585" lon="6.68536">
        <ele>1165</ele>
        <time>2013-04-01T08:29:10Z</time>
      </trkpt>
      <trkpt lat="45.57594" lon="6.68538">
        <ele>1165</ele>
        <time>2013-04-01T08:29:15Z</time>
      </trkpt>
      <trkpt lat="45.57602" lon="6.6854">
        <ele>1165</ele>
        <time>2013-04-01T08:29:19Z</time>
      </trkpt>
      <trkpt lat="45.57605" lon="6.6854">
        <ele>1165</ele>
        <time>2013-04-01T08:29:21Z</time>
      </trkpt>
      <trkpt lat="45.57609" lon="6.68541">
        <ele>1165</ele>
        <time>2013-04-01T08:29:23Z</time>
      </trkpt>
      <trkpt lat="45.57618" lon="6.68541">
        <ele>1165</ele>
        <time>2013-04-01T08:29:28Z</time>
      </trkpt>
      <trkpt lat="45.5762" lon="6.6854">
        <ele>1165</ele>
        <time>2013-04-01T08:29:30Z</time>
      </trkpt>
      <trkpt lat="45.57622" lon="6.68538">
        <ele>1165</ele>
        <time>2013-04-01T08:29:32Z</time>
      </trkpt>
      <trkpt lat="45.57625" lon="6.68535">
        <ele>1165</ele>
        <time>2013-04-01T08:29:35Z</time>
      </trkpt>
      <trkpt lat="45.57627" lon="6.68532">
        <ele>1165</ele>
        <time>2013-04-01T08:29:37Z</time>
      </trkpt>
      <trkpt lat="45.57625" lon="6.68534">
        <ele>1165</ele>
        <time>2013-04-01T08:29:39Z</time>
      </trkpt>
      <trkpt lat="45.57628" lon="6.68529">
        <ele>1165</ele>
        <time>2013-04-01T08:29:43Z</time>
      </trkpt>
      <trkpt lat="45.5763" lon="6.68529">
        <ele>1186</ele>
        <time>2013-04-01T08:29:45Z</time>
      </trkpt>
      <trkpt lat="45.57632" lon="6.68526">
        <ele>1186</ele>
        <time>2013-04-01T08:29:47Z</time>
      </trkpt>
      <trkpt lat="45.57631" lon="6.68527">
        <ele>1186</ele>
        <time>2013-04-01T08:29:50Z</time>
      </trkpt>
      <trkpt lat="45.57641" lon="6.6852">
        <ele>1186</ele>
        <time>2013-04-01T08:30:01Z</time>
      </trkpt>
      <trkpt lat="45.57644" lon="6.68518">
        <ele>1186</ele>
        <time>2013-04-01T08:30:04Z</time>
      </trkpt>
      <trkpt lat="45.57644" lon="6.68516">
        <ele>1186</ele>
        <time>2013-04-01T08:30:06Z</time>
      </trkpt>
      <trkpt lat="45.57646" lon="6.68515">
        <ele>1186</ele>
        <time>2013-04-01T08:30:08Z</time>
      </trkpt>
      <trkpt lat="45.57648" lon="6.68513">
        <ele>1186</ele>
        <time>2013-04-01T08:30:10Z</time>
      </trkpt>
      <trkpt lat="45.57649" lon="6.68512">
        <ele>1186</ele>
        <time>2013-04-01T08:30:12Z</time>
      </trkpt>
      <trkpt lat="45.5765" lon="6.68509">
        <ele>1186</ele>
        <time>2013-04-01T08:30:14Z</time>
      </trkpt>
      <trkpt lat="45.57652" lon="6.68507">
        <ele>1186</ele>
        <time>2013-04-01T08:30:16Z</time>
      </trkpt>
      <trkpt lat="45.57653" lon="6.68506">
        <ele>1186</ele>
        <time>2013-04-01T08:30:18Z</time>
      </trkpt>
      <trkpt lat="45.57656" lon="6.68503">
        <ele>1186</ele>
        <time>2013-04-01T08:30:21Z</time>
      </trkpt>
      <trkpt lat="45.57658" lon="6.68502">
        <ele>1186</ele>
        <time>2013-04-01T08:30:23Z</time>
      </trkpt>
      <trkpt lat="45.5766" lon="6.685">
        <ele>1186</ele>
        <time>2013-04-01T08:30:25Z</time>
      </trkpt>
      <trkpt lat="45.57662" lon="6.68498">
        <ele>1186</ele>
        <time>2013-04-01T08:30:27Z</time>
      </trkpt>
      <trkpt lat="45.57664" lon="6.68496">
        <ele>1186</ele>
        <time>2013-04-01T08:30:29Z</time>
      </trkpt>
      <trkpt lat="45.57666" lon="6.68494">
        <ele>1186</ele>
        <time>2013-04-01T08:30:31Z</time>
      </trkpt>
      <trkpt lat="45.57668" lon="6.68493">
        <ele>1186</ele>
        <time>2013-04-01T08:30:33Z</time>
      </trkpt>
      <trkpt lat="45.57669" lon="6.68491">
        <ele>1186</ele>
        <time>2013-04-01T08:30:35Z</time>
      </trkpt>
      <trkpt lat="45.57672" lon="6.68489">
        <ele>1186</ele>
        <time>2013-04-01T08:30:37Z</time>
      </trkpt>
      <trkpt lat="45.57674" lon="6.68488">
        <ele>1186</ele>
        <time>2013-04-01T08:30:39Z</time>
      </trkpt>
      <trkpt lat="45.57676" lon="6.68486">
        <ele>1186</ele>
        <time>2013-04-01T08:30:41Z</time>
      </trkpt>
      <trkpt lat="45.57678" lon="6.68484">
        <ele>1186</ele>
        <time>2013-04-01T08:30:45Z</time>
      </trkpt>
      <trkpt lat="45.57677" lon="6.68484">
        <ele>1186</ele>
        <time>2013-04-01T08:30:47Z</time>
      </trkpt>
      <trkpt lat="45.57679" lon="6.68483">
        <ele>1186</ele>
        <time>2013-04-01T08:30:49Z</time>
      </trkpt>
      <trkpt lat="45.57679" lon="6.68482">
        <ele>1186</ele>
        <time>2013-04-01T08:30:51Z</time>
      </trkpt>
      <trkpt lat="45.57681" lon="6.6848">
        <ele>1186</ele>
        <time>2013-04-01T08:30:59Z</time>
      </trkpt>
      <trkpt lat="45.57682" lon="6.68479">
        <ele>1186</ele>
        <time>2013-04-01T08:31:01Z</time>
      </trkpt>
      <trkpt lat="45.57682" lon="6.68477">
        <ele>1186</ele>
        <time>2013-04-01T08:31:04Z</time>
      </trkpt>
      <trkpt lat="45.57684" lon="6.68453">
        <ele>1199</ele>
        <time>2013-04-01T08:31:17Z</time>
      </trkpt>
      <trkpt lat="45.57684" lon="6.68449">
        <ele>1199</ele>
        <time>2013-04-01T08:31:19Z</time>
      </trkpt>
      <trkpt lat="45.57684" lon="6.68445">
        <ele>1199</ele>
        <time>2013-04-01T08:31:21Z</time>
      </trkpt>
      <trkpt lat="45.57684" lon="6.68437">
        <ele>1199</ele>
        <time>2013-04-01T08:31:25Z</time>
      </trkpt>
      <trkpt lat="45.57679" lon="6.68427">
        <ele>1199</ele>
        <time>2013-04-01T08:31:32Z</time>
      </trkpt>
      <trkpt lat="45.5768" lon="6.68425">
        <ele>1199</ele>
        <time>2013-04-01T08:31:34Z</time>
      </trkpt>
      <trkpt lat="45.57675" lon="6.68422">
        <ele>1199</ele>
        <time>2013-04-01T08:31:44Z</time>
      </trkpt>
      <trkpt lat="45.57668" lon="6.68414">
        <ele>1199</ele>
        <time>2013-04-01T08:31:52Z</time>
      </trkpt>
      <trkpt lat="45.57667" lon="6.68412">
        <ele>1199</ele>
        <time>2013-04-01T08:31:54Z</time>
      </trkpt>
      <trkpt lat="45.57665" lon="6.68409">
        <ele>1199</ele>
        <time>2013-04-01T08:31:56Z</time>
      </trkpt>
      <trkpt lat="45.5766" lon="6.68401">
        <ele>1199</ele>
        <time>2013-04-01T08:32:04Z</time>
      </trkpt>
      <trkpt lat="45.57658" lon="6.68398">
        <ele>1199</ele>
        <time>2013-04-01T08:32:06Z</time>
      </trkpt>
      <trkpt lat="45.57656" lon="6.68396">
        <ele>1199</ele>
        <time>2013-04-01T08:32:08Z</time>
      </trkpt>
      <trkpt lat="45.57653" lon="6.68391">
        <ele>1199</ele>
        <time>2013-04-01T08:32:12Z</time>
      </trkpt>
      <trkpt lat="45.57646" lon="6.68371">
        <ele>1213</ele>
        <time>2013-04-01T08:32:24Z</time>
      </trkpt>
      <trkpt lat="45.57645" lon="6.68368">
        <ele>1213</ele>
        <time>2013-04-01T08:32:26Z</time>
      </trkpt>
      <trkpt lat="45.57643" lon="6.68364">
        <ele>1213</ele>
        <time>2013-04-01T08:32:28Z</time>
      </trkpt>
      <trkpt lat="45.57639" lon="6.68356">
        <ele>1213</ele>
        <time>2013-04-01T08:32:33Z</time>
      </trkpt>
      <trkpt lat="45.57638" lon="6.68353">
        <ele>1213</ele>
        <time>2013-04-01T08:32:35Z</time>
      </trkpt>
      <trkpt lat="45.57636" lon="6.68349">
        <ele>1213</ele>
        <time>2013-04-01T08:32:37Z</time>
      </trkpt>
      <trkpt lat="45.57632" lon="6.68336">
        <ele>1213</ele>
        <time>2013-04-01T08:32:44Z</time>
      </trkpt>
      <trkpt lat="45.57631" lon="6.68333">
        <ele>1213</ele>
        <time>2013-04-01T08:32:46Z</time>
      </trkpt>
      <trkpt lat="45.5763" lon="6.68329">
        <ele>1213</ele>
        <time>2013-04-01T08:32:48Z</time>
      </trkpt>
      <trkpt lat="45.57628" lon="6.68318">
        <ele>1192</ele>
        <time>2013-04-01T08:32:54Z</time>
      </trkpt>
      <trkpt lat="45.57627" lon="6.68314">
        <ele>1192</ele>
        <time>2013-04-01T08:32:56Z</time>
      </trkpt>
      <trkpt lat="45.57626" lon="6.68309">
        <ele>1192</ele>
        <time>2013-04-01T08:32:58Z</time>
      </trkpt>
      <trkpt lat="45.57628" lon="6.683">
        <ele>1192</ele>
        <time>2013-04-01T08:33:03Z</time>
      </trkpt>
      <trkpt lat="45.57632" lon="6.68293">
        <ele>1218</ele>
        <time>2013-04-01T08:33:09Z</time>
      </trkpt>
      <trkpt lat="45.57634" lon="6.68291">
        <ele>1218</ele>
        <time>2013-04-01T08:33:11Z</time>
      </trkpt>
      <trkpt lat="45.57635" lon="6.68288">
        <ele>1218</ele>
        <time>2013-04-01T08:33:13Z</time>
      </trkpt>
      <trkpt lat="45.57637" lon="6.68286">
        <ele>1218</ele>
        <time>2013-04-01T08:33:15Z</time>
      </trkpt>
      <trkpt lat="45.57636" lon="6.68273">
        <ele>1218</ele>
        <time>2013-04-01T08:33:22Z</time>
      </trkpt>
      <trkpt lat="45.57636" lon="6.68269">
        <ele>1218</ele>
        <time>2013-04-01T08:33:24Z</time>
      </trkpt>
      <trkpt lat="45.57635" lon="6.68266">
        <ele>1218</ele>
        <time>2013-04-01T08:33:26Z</time>
      </trkpt>
      <trkpt lat="45.57635" lon="6.68263">
        <ele>1218</ele>
        <time>2013-04-01T08:33:29Z</time>
      </trkpt>
      <trkpt lat="45.57638" lon="6.68261">
        <ele>1218</ele>
        <time>2013-04-01T08:33:34Z</time>
      </trkpt>
      <trkpt lat="45.57639" lon="6.6826">
        <ele>1218</ele>
        <time>2013-04-01T08:33:36Z</time>
      </trkpt>
      <trkpt lat="45.57642" lon="6.68258">
        <ele>1218</ele>
        <time>2013-04-01T08:33:38Z</time>
      </trkpt>
      <trkpt lat="45.57645" lon="6.68253">
        <ele>1218</ele>
        <time>2013-04-01T08:33:41Z</time>
      </trkpt>
      <trkpt lat="45.57644" lon="6.68253">
        <ele>1218</ele>
        <time>2013-04-01T08:33:54Z</time>
      </trkpt>
      <trkpt lat="45.57643" lon="6.68252">
        <ele>1218</ele>
        <time>2013-04-01T08:34:00Z</time>
      </trkpt>
      <trkpt lat="45.57636" lon="6.68258">
        <ele>1218</ele>
        <time>2013-04-01T08:34:07Z</time>
      </trkpt>
      <trkpt lat="45.57636" lon="6.68259">
        <ele>1218</ele>
        <time>2013-04-01T08:34:11Z</time>
      </trkpt>
      <trkpt lat="45.57634" lon="6.68255">
        <ele>1218</ele>
        <time>2013-04-01T08:34:26Z</time>
      </trkpt>
      <trkpt lat="45.57627" lon="6.68247">
        <ele>1196</ele>
        <time>2013-04-01T08:34:31Z</time>
      </trkpt>
      <trkpt lat="45.57626" lon="6.6824">
        <ele>1196</ele>
        <time>2013-04-01T08:34:33Z</time>
      </trkpt>
      <trkpt lat="45.57626" lon="6.68232">
        <ele>1196</ele>
        <time>2013-04-01T08:34:35Z</time>
      </trkpt>
      <trkpt lat="45.57626" lon="6.68224">
        <ele>1196</ele>
        <time>2013-04-01T08:34:37Z</time>
      </trkpt>
      <trkpt lat="45.57626" lon="6.6821">
        <ele>1193</ele>
        <time>2013-04-01T08:34:41Z</time>
      </trkpt>
      <trkpt lat="45.57627" lon="6.68202">
        <ele>1193</ele>
        <time>2013-04-01T08:34:43Z</time>
      </trkpt>
      <trkpt lat="45.57627" lon="6.68194">
        <ele>1193</ele>
        <time>2013-04-01T08:34:45Z</time>
      </trkpt>
      <trkpt lat="45.57625" lon="6.68185">
        <ele>1193</ele>
        <time>2013-04-01T08:34:47Z</time>
      </trkpt>
      <trkpt lat="45.57622" lon="6.68174">
        <ele>1193</ele>
        <time>2013-04-01T08:34:50Z</time>
      </trkpt>
      <trkpt lat="45.5762" lon="6.68166">
        <ele>1193</ele>
        <time>2013-04-01T08:34:52Z</time>
      </trkpt>
      <trkpt lat="45.57619" lon="6.68159">
        <ele>1193</ele>
        <time>2013-04-01T08:34:54Z</time>
      </trkpt>
      <trkpt lat="45.57618" lon="6.68151">
        <ele>1193</ele>
        <time>2013-04-01T08:34:56Z</time>
      </trkpt>
      <trkpt lat="45.57617" lon="6.68141">
        <ele>1193</ele>
        <time>2013-04-01T08:34:59Z</time>
      </trkpt>
      <trkpt lat="45.57612" lon="6.6813">
        <ele>1185</ele>
        <time>2013-04-01T08:35:03Z</time>
      </trkpt>
      <trkpt lat="45.57608" lon="6.68125">
        <ele>1185</ele>
        <time>2013-04-01T08:35:05Z</time>
      </trkpt>
      <trkpt lat="45.57605" lon="6.68119">
        <ele>1185</ele>
        <time>2013-04-01T08:35:07Z</time>
      </trkpt>
      <trkpt lat="45.57602" lon="6.68117">
        <ele>1185</ele>
        <time>2013-04-01T08:35:09Z</time>
      </trkpt>
      <trkpt lat="45.57598" lon="6.68114">
        <ele>1185</ele>
        <time>2013-04-01T08:35:11Z</time>
      </trkpt>
      <trkpt lat="45.57595" lon="6.68111">
        <ele>1185</ele>
        <time>2013-04-01T08:35:13Z</time>
      </trkpt>
      <trkpt lat="45.57592" lon="6.68108">
        <ele>1185</ele>
        <time>2013-04-01T08:35:15Z</time>
      </trkpt>
      <trkpt lat="45.57589" lon="6.68104">
        <ele>1185</ele>
        <time>2013-04-01T08:35:17Z</time>
      </trkpt>
      <trkpt lat="45.57585" lon="6.68099">
        <ele>1185</ele>
        <time>2013-04-01T08:35:19Z</time>
      </trkpt>
      <trkpt lat="45.57583" lon="6.68096">
        <ele>1185</ele>
        <time>2013-04-01T08:35:21Z</time>
      </trkpt>
      <trkpt lat="45.57581" lon="6.68091">
        <ele>1185</ele>
        <time>2013-04-01T08:35:23Z</time>
      </trkpt>
      <trkpt lat="45.57579" lon="6.68087">
        <ele>1185</ele>
        <time>2013-04-01T08:35:25Z</time>
      </trkpt>
      <trkpt lat="45.57576" lon="6.68083">
        <ele>1185</ele>
        <time>2013-04-01T08:35:27Z</time>
      </trkpt>
      <trkpt lat="45.57574" lon="6.6808">
        <ele>1185</ele>
        <time>2013-04-01T08:35:29Z</time>
      </trkpt>
      <trkpt lat="45.5757" lon="6.68077">
        <ele>1185</ele>
        <time>2013-04-01T08:35:31Z</time>
      </trkpt>
      <trkpt lat="45.57566" lon="6.68074">
        <ele>1185</ele>
        <time>2013-04-01T08:35:33Z</time>
      </trkpt>
      <trkpt lat="45.57563" lon="6.68072">
        <ele>1185</ele>
        <time>2013-04-01T08:35:35Z</time>
      </trkpt>
      <trkpt lat="45.57559" lon="6.68072">
        <ele>1185</ele>
        <time>2013-04-01T08:35:37Z</time>
      </trkpt>
      <trkpt lat="45.57555" lon="6.68071">
        <ele>1185</ele>
        <time>2013-04-01T08:35:39Z</time>
      </trkpt>
      <trkpt lat="45.57553" lon="6.68068">
        <ele>1185</ele>
        <time>2013-04-01T08:35:41Z</time>
      </trkpt>
      <trkpt lat="45.57548" lon="6.68067">
        <ele>1185</ele>
        <time>2013-04-01T08:35:43Z</time>
      </trkpt>
      <trkpt lat="45.57545" lon="6.68065">
        <ele>1158</ele>
        <time>2013-04-01T08:35:45Z</time>
      </trkpt>
      <trkpt lat="45.57542" lon="6.68062">
        <ele>1158</ele>
        <time>2013-04-01T08:35:47Z</time>
      </trkpt>
      <trkpt lat="45.57539" lon="6.6806">
        <ele>1158</ele>
        <time>2013-04-01T08:35:49Z</time>
      </trkpt>
      <trkpt lat="45.57536" lon="6.68059">
        <ele>1158</ele>
        <time>2013-04-01T08:35:51Z</time>
      </trkpt>
      <trkpt lat="45.57532" lon="6.68059">
        <ele>1158</ele>
        <time>2013-04-01T08:35:53Z</time>
      </trkpt>
      <trkpt lat="45.5753" lon="6.68062">
        <ele>1158</ele>
        <time>2013-04-01T08:35:55Z</time>
      </trkpt>
      <trkpt lat="45.57527" lon="6.68067">
        <ele>1158</ele>
        <time>2013-04-01T08:35:57Z</time>
      </trkpt>
      <trkpt lat="45.57524" lon="6.68071">
        <ele>1158</ele>
        <time>2013-04-01T08:35:59Z</time>
      </trkpt>
      <trkpt lat="45.57522" lon="6.68075">
        <ele>1158</ele>
        <time>2013-04-01T08:36:01Z</time>
      </trkpt>
      <trkpt lat="45.57519" lon="6.68077">
        <ele>1158</ele>
        <time>2013-04-01T08:36:03Z</time>
      </trkpt>
      <trkpt lat="45.57523" lon="6.68061">
        <ele>1158</ele>
        <time>2013-04-01T08:36:08Z</time>
      </trkpt>
      <trkpt lat="45.57527" lon="6.68053">
        <ele>1158</ele>
        <time>2013-04-01T08:36:11Z</time>
      </trkpt>
      <trkpt lat="45.57527" lon="6.68051">
        <ele>1158</ele>
        <time>2013-04-01T08:36:13Z</time>
      </trkpt>
      <trkpt lat="45.57525" lon="6.68053">
        <ele>1158</ele>
        <time>2013-04-01T08:36:15Z</time>
      </trkpt>
      <trkpt lat="45.5752" lon="6.68059">
        <ele>1158</ele>
        <time>2013-04-01T08:36:19Z</time>
      </trkpt>
      <trkpt lat="45.57516" lon="6.68064">
        <ele>1158</ele>
        <time>2013-04-01T08:36:21Z</time>
      </trkpt>
      <trkpt lat="45.57511" lon="6.68067">
        <ele>1158</ele>
        <time>2013-04-01T08:36:23Z</time>
      </trkpt>
      <trkpt lat="45.57508" lon="6.68068">
        <ele>1158</ele>
        <time>2013-04-01T08:36:25Z</time>
      </trkpt>
      <trkpt lat="45.57503" lon="6.68071">
        <ele>1158</ele>
        <time>2013-04-01T08:36:27Z</time>
      </trkpt>
      <trkpt lat="45.575" lon="6.68072">
        <ele>1158</ele>
        <time>2013-04-01T08:36:29Z</time>
      </trkpt>
      <trkpt lat="45.57497" lon="6.68074">
        <ele>1158</ele>
        <time>2013-04-01T08:36:31Z</time>
      </trkpt>
      <trkpt lat="45.57496" lon="6.68074">
        <ele>1158</ele>
        <time>2013-04-01T08:36:33Z</time>
      </trkpt>
      <trkpt lat="45.575" lon="6.68073">
        <ele>1158</ele>
        <time>2013-04-01T08:36:38Z</time>
      </trkpt>
      <trkpt lat="45.57515" lon="6.68066">
        <ele>1158</ele>
        <time>2013-04-01T08:36:47Z</time>
      </trkpt>
      <trkpt lat="45.57521" lon="6.6806">
        <ele>1158</ele>
        <time>2013-04-01T08:36:51Z</time>
      </trkpt>
      <trkpt lat="45.57523" lon="6.68056">
        <ele>1158</ele>
        <time>2013-04-01T08:36:53Z</time>
      </trkpt>
      <trkpt lat="45.57529" lon="6.68052">
        <ele>1158</ele>
        <time>2013-04-01T08:36:56Z</time>
      </trkpt>
      <trkpt lat="45.57533" lon="6.68047">
        <ele>1162</ele>
        <time>2013-04-01T08:36:58Z</time>
      </trkpt>
      <trkpt lat="45.57537" lon="6.68042">
        <ele>1162</ele>
        <time>2013-04-01T08:37:00Z</time>
      </trkpt>
      <trkpt lat="45.57545" lon="6.68035">
        <ele>1162</ele>
        <time>2013-04-01T08:37:03Z</time>
      </trkpt>
      <trkpt lat="45.57546" lon="6.68023">
        <ele>1162</ele>
        <time>2013-04-01T08:37:06Z</time>
      </trkpt>
      <trkpt lat="45.57543" lon="6.68018">
        <ele>1162</ele>
        <time>2013-04-01T08:37:08Z</time>
      </trkpt>
      <trkpt lat="45.57539" lon="6.68015">
        <ele>1162</ele>
        <time>2013-04-01T08:37:10Z</time>
      </trkpt>
      <trkpt lat="45.57523" lon="6.68013">
        <ele>1162</ele>
        <time>2013-04-01T08:37:17Z</time>
      </trkpt>
      <trkpt lat="45.5752" lon="6.68011">
        <ele>1162</ele>
        <time>2013-04-01T08:37:19Z</time>
      </trkpt>
      <trkpt lat="45.57517" lon="6.68008">
        <ele>1162</ele>
        <time>2013-04-01T08:37:21Z</time>
      </trkpt>
      <trkpt lat="45.57514" lon="6.68005">
        <ele>1162</ele>
        <time>2013-04-01T08:37:23Z</time>
      </trkpt>
      <trkpt lat="45.5751" lon="6.6799">
        <ele>1162</ele>
        <time>2013-04-01T08:37:28Z</time>
      </trkpt>
      <trkpt lat="45.57508" lon="6.67983">
        <ele>1162</ele>
        <time>2013-04-01T08:37:30Z</time>
      </trkpt>
      <trkpt lat="45.57507" lon="6.67976">
        <ele>1162</ele>
        <time>2013-04-01T08:37:32Z</time>
      </trkpt>
      <trkpt lat="45.57507" lon="6.67969">
        <ele>1162</ele>
        <time>2013-04-01T08:37:34Z</time>
      </trkpt>
      <trkpt lat="45.57505" lon="6.6796">
        <ele>1166</ele>
        <time>2013-04-01T08:37:37Z</time>
      </trkpt>
      <trkpt lat="45.57495" lon="6.67927">
        <ele>1166</ele>
        <time>2013-04-01T08:37:46Z</time>
      </trkpt>
      <trkpt lat="45.57492" lon="6.67918">
        <ele>1166</ele>
        <time>2013-04-01T08:37:48Z</time>
      </trkpt>
      <trkpt lat="45.5749" lon="6.67912">
        <ele>1166</ele>
        <time>2013-04-01T08:37:50Z</time>
      </trkpt>
      <trkpt lat="45.57487" lon="6.67901">
        <ele>1166</ele>
        <time>2013-04-01T08:37:53Z</time>
      </trkpt>
      <trkpt lat="45.57486" lon="6.67893">
        <ele>1166</ele>
        <time>2013-04-01T08:37:55Z</time>
      </trkpt>
      <trkpt lat="45.57485" lon="6.67885">
        <ele>1169</ele>
        <time>2013-04-01T08:37:57Z</time>
      </trkpt>
      <trkpt lat="45.57485" lon="6.6787">
        <ele>1169</ele>
        <time>2013-04-01T08:38:01Z</time>
      </trkpt>
      <trkpt lat="45.57481" lon="6.67831">
        <ele>1169</ele>
        <time>2013-04-01T08:38:11Z</time>
      </trkpt>
      <trkpt lat="45.57479" lon="6.67823">
        <ele>1169</ele>
        <time>2013-04-01T08:38:13Z</time>
      </trkpt>
      <trkpt lat="45.57479" lon="6.67811">
        <ele>1169</ele>
        <time>2013-04-01T08:38:16Z</time>
      </trkpt>
      <trkpt lat="45.57479" lon="6.67796">
        <ele>1170</ele>
        <time>2013-04-01T08:38:20Z</time>
      </trkpt>
      <trkpt lat="45.57478" lon="6.67776">
        <ele>1170</ele>
        <time>2013-04-01T08:38:25Z</time>
      </trkpt>
      <trkpt lat="45.57472" lon="6.67756">
        <ele>1170</ele>
        <time>2013-04-01T08:38:30Z</time>
      </trkpt>
      <trkpt lat="45.57469" lon="6.67748">
        <ele>1170</ele>
        <time>2013-04-01T08:38:32Z</time>
      </trkpt>
      <trkpt lat="45.57467" lon="6.67741">
        <ele>1170</ele>
        <time>2013-04-01T08:38:34Z</time>
      </trkpt>
      <trkpt lat="45.57456" lon="6.67723">
        <ele>1151</ele>
        <time>2013-04-01T08:38:41Z</time>
      </trkpt>
      <trkpt lat="45.57451" lon="6.6772">
        <ele>1163</ele>
        <time>2013-04-01T08:38:43Z</time>
      </trkpt>
      <trkpt lat="45.57449" lon="6.6772">
        <ele>1163</ele>
        <time>2013-04-01T08:38:45Z</time>
      </trkpt>
      <trkpt lat="45.57447" lon="6.67718">
        <ele>1163</ele>
        <time>2013-04-01T08:38:47Z</time>
      </trkpt>
      <trkpt lat="45.57443" lon="6.67718">
        <ele>1163</ele>
        <time>2013-04-01T08:38:52Z</time>
      </trkpt>
      <trkpt lat="45.57439" lon="6.67717">
        <ele>1163</ele>
        <time>2013-04-01T08:38:55Z</time>
      </trkpt>
      <trkpt lat="45.57435" lon="6.67717">
        <ele>1163</ele>
        <time>2013-04-01T08:38:57Z</time>
      </trkpt>
      <trkpt lat="45.57432" lon="6.67716">
        <ele>1163</ele>
        <time>2013-04-01T08:38:59Z</time>
      </trkpt>
      <trkpt lat="45.57429" lon="6.67716">
        <ele>1163</ele>
        <time>2013-04-01T08:39:01Z</time>
      </trkpt>
      <trkpt lat="45.57426" lon="6.67717">
        <ele>1163</ele>
        <time>2013-04-01T08:39:03Z</time>
      </trkpt>
      <trkpt lat="45.57422" lon="6.67718">
        <ele>1163</ele>
        <time>2013-04-01T08:39:05Z</time>
      </trkpt>
      <trkpt lat="45.5742" lon="6.67719">
        <ele>1163</ele>
        <time>2013-04-01T08:39:07Z</time>
      </trkpt>
      <trkpt lat="45.57418" lon="6.6772">
        <ele>1163</ele>
        <time>2013-04-01T08:39:09Z</time>
      </trkpt>
      <trkpt lat="45.57416" lon="6.67722">
        <ele>1151</ele>
        <time>2013-04-01T08:39:11Z</time>
      </trkpt>
      <trkpt lat="45.57414" lon="6.67723">
        <ele>1151</ele>
        <time>2013-04-01T08:39:13Z</time>
      </trkpt>
      <trkpt lat="45.57412" lon="6.67725">
        <ele>1151</ele>
        <time>2013-04-01T08:39:15Z</time>
      </trkpt>
      <trkpt lat="45.57409" lon="6.67727">
        <ele>1151</ele>
        <time>2013-04-01T08:39:17Z</time>
      </trkpt>
      <trkpt lat="45.57405" lon="6.67728">
        <ele>1151</ele>
        <time>2013-04-01T08:39:19Z</time>
      </trkpt>
      <trkpt lat="45.57403" lon="6.67731">
        <ele>1151</ele>
        <time>2013-04-01T08:39:21Z</time>
      </trkpt>
      <trkpt lat="45.57401" lon="6.67733">
        <ele>1151</ele>
        <time>2013-04-01T08:39:23Z</time>
      </trkpt>
      <trkpt lat="45.57399" lon="6.67736">
        <ele>1151</ele>
        <time>2013-04-01T08:39:25Z</time>
      </trkpt>
      <trkpt lat="45.57396" lon="6.67741">
        <ele>1151</ele>
        <time>2013-04-01T08:39:27Z</time>
      </trkpt>
      <trkpt lat="45.57392" lon="6.67744">
        <ele>1151</ele>
        <time>2013-04-01T08:39:29Z</time>
      </trkpt>
      <trkpt lat="45.57391" lon="6.67748">
        <ele>1151</ele>
        <time>2013-04-01T08:39:31Z</time>
      </trkpt>
      <trkpt lat="45.57387" lon="6.6775">
        <ele>1151</ele>
        <time>2013-04-01T08:39:33Z</time>
      </trkpt>
      <trkpt lat="45.57382" lon="6.67753">
        <ele>1151</ele>
        <time>2013-04-01T08:39:35Z</time>
      </trkpt>
      <trkpt lat="45.57379" lon="6.67752">
        <ele>1151</ele>
        <time>2013-04-01T08:39:37Z</time>
      </trkpt>
      <trkpt lat="45.57376" lon="6.67753">
        <ele>1151</ele>
        <time>2013-04-01T08:39:39Z</time>
      </trkpt>
      <trkpt lat="45.57372" lon="6.67753">
        <ele>1124</ele>
        <time>2013-04-01T08:39:41Z</time>
      </trkpt>
      <trkpt lat="45.57367" lon="6.67753">
        <ele>1124</ele>
        <time>2013-04-01T08:39:43Z</time>
      </trkpt>
      <trkpt lat="45.57363" lon="6.67753">
        <ele>1124</ele>
        <time>2013-04-01T08:39:45Z</time>
      </trkpt>
      <trkpt lat="45.57358" lon="6.67753">
        <ele>1124</ele>
        <time>2013-04-01T08:39:47Z</time>
      </trkpt>
      <trkpt lat="45.57353" lon="6.67752">
        <ele>1124</ele>
        <time>2013-04-01T08:39:49Z</time>
      </trkpt>
      <trkpt lat="45.5735" lon="6.67752">
        <ele>1124</ele>
        <time>2013-04-01T08:39:51Z</time>
      </trkpt>
      <trkpt lat="45.57347" lon="6.67754">
        <ele>1124</ele>
        <time>2013-04-01T08:39:53Z</time>
      </trkpt>
      <trkpt lat="45.57345" lon="6.67754">
        <ele>1124</ele>
        <time>2013-04-01T08:39:55Z</time>
      </trkpt>
      <trkpt lat="45.57341" lon="6.67753">
        <ele>1124</ele>
        <time>2013-04-01T08:39:57Z</time>
      </trkpt>
      <trkpt lat="45.57336" lon="6.67752">
        <ele>1124</ele>
        <time>2013-04-01T08:39:59Z</time>
      </trkpt>
      <trkpt lat="45.57335" lon="6.67752">
        <ele>1124</ele>
        <time>2013-04-01T08:40:01Z</time>
      </trkpt>
      <trkpt lat="45.57334" lon="6.67751">
        <ele>1124</ele>
        <time>2013-04-01T08:40:03Z</time>
      </trkpt>
      <trkpt lat="45.57325" lon="6.67748">
        <ele>1124</ele>
        <time>2013-04-01T08:40:07Z</time>
      </trkpt>
      <trkpt lat="45.57321" lon="6.67747">
        <ele>1124</ele>
        <time>2013-04-01T08:40:09Z</time>
      </trkpt>
      <trkpt lat="45.57316" lon="6.67744">
        <ele>1124</ele>
        <time>2013-04-01T08:40:11Z</time>
      </trkpt>
      <trkpt lat="45.57311" lon="6.67742">
        <ele>1124</ele>
        <time>2013-04-01T08:40:13Z</time>
      </trkpt>
      <trkpt lat="45.57306" lon="6.6774">
        <ele>1124</ele>
        <time>2013-04-01T08:40:15Z</time>
      </trkpt>
      <trkpt lat="45.57301" lon="6.67738">
        <ele>1124</ele>
        <time>2013-04-01T08:40:17Z</time>
      </trkpt>
      <trkpt lat="45.57296" lon="6.67735">
        <ele>1124</ele>
        <time>2013-04-01T08:40:19Z</time>
      </trkpt>
      <trkpt lat="45.57292" lon="6.67732">
        <ele>1094</ele>
        <time>2013-04-01T08:40:21Z</time>
      </trkpt>
      <trkpt lat="45.57289" lon="6.6773">
        <ele>1094</ele>
        <time>2013-04-01T08:40:23Z</time>
      </trkpt>
      <trkpt lat="45.57285" lon="6.67728">
        <ele>1094</ele>
        <time>2013-04-01T08:40:25Z</time>
      </trkpt>
      <trkpt lat="45.57283" lon="6.67726">
        <ele>1094</ele>
        <time>2013-04-01T08:40:27Z</time>
      </trkpt>
      <trkpt lat="45.5728" lon="6.67722">
        <ele>1094</ele>
        <time>2013-04-01T08:40:29Z</time>
      </trkpt>
      <trkpt lat="45.57279" lon="6.67717">
        <ele>1106</ele>
        <time>2013-04-01T08:40:31Z</time>
      </trkpt>
      <trkpt lat="45.57278" lon="6.67712">
        <ele>1106</ele>
        <time>2013-04-01T08:40:33Z</time>
      </trkpt>
      <trkpt lat="45.57278" lon="6.67713">
        <ele>1106</ele>
        <time>2013-04-01T08:40:35Z</time>
      </trkpt>
      <trkpt lat="45.57278" lon="6.67712">
        <ele>1106</ele>
        <time>2013-04-01T08:40:37Z</time>
      </trkpt>
      <trkpt lat="45.57278" lon="6.67712">
        <ele>1106</ele>
        <time>2013-04-01T08:40:39Z</time>
      </trkpt>
      <trkpt lat="45.57278" lon="6.67712">
        <ele>1106</ele>
        <time>2013-04-01T08:40:42Z</time>
      </trkpt>
      <trkpt lat="45.57278" lon="6.67712">
        <ele>1106</ele>
        <time>2013-04-01T08:40:49Z</time>
      </trkpt>
      <trkpt lat="45.57275" lon="6.67707">
        <ele>1106</ele>
        <time>2013-04-01T08:41:00Z</time>
      </trkpt>
      <trkpt lat="45.57273" lon="6.67719">
        <ele>1106</ele>
        <time>2013-04-01T08:41:07Z</time>
      </trkpt>
      <trkpt lat="45.57268" lon="6.67718">
        <ele>1106</ele>
        <time>2013-04-01T08:41:10Z</time>
      </trkpt>
      <trkpt lat="45.57265" lon="6.67711">
        <ele>1106</ele>
        <time>2013-04-01T08:41:12Z</time>
      </trkpt>
      <trkpt lat="45.57263" lon="6.67704">
        <ele>1106</ele>
        <time>2013-04-01T08:41:14Z</time>
      </trkpt>
      <trkpt lat="45.57258" lon="6.67687">
        <ele>1106</ele>
        <time>2013-04-01T08:41:19Z</time>
      </trkpt>
      <trkpt lat="45.57251" lon="6.67661">
        <ele>1106</ele>
        <time>2013-04-01T08:41:27Z</time>
      </trkpt>
      <trkpt lat="45.5725" lon="6.67659">
        <ele>1106</ele>
        <time>2013-04-01T08:41:29Z</time>
      </trkpt>
      <trkpt lat="45.57249" lon="6.67658">
        <ele>1106</ele>
        <time>2013-04-01T08:41:31Z</time>
      </trkpt>
      <trkpt lat="45.57247" lon="6.67659">
        <ele>1106</ele>
        <time>2013-04-01T08:41:33Z</time>
      </trkpt>
      <trkpt lat="45.57247" lon="6.67659">
        <ele>1106</ele>
        <time>2013-04-01T08:41:36Z</time>
      </trkpt>
      <trkpt lat="45.57248" lon="6.67659">
        <ele>1106</ele>
        <time>2013-04-01T08:41:38Z</time>
      </trkpt>
      <trkpt lat="45.57247" lon="6.67659">
        <ele>1106</ele>
        <time>2013-04-01T08:41:40Z</time>
      </trkpt>
      <trkpt lat="45.57246" lon="6.67661">
        <ele>1106</ele>
        <time>2013-04-01T08:41:43Z</time>
      </trkpt>
      <trkpt lat="45.57246" lon="6.67663">
        <ele>1106</ele>
        <time>2013-04-01T08:41:55Z</time>
      </trkpt>
      <trkpt lat="45.57248" lon="6.67663">
        <ele>1106</ele>
        <time>2013-04-01T08:42:02Z</time>
      </trkpt>
      <trkpt lat="45.57245" lon="6.67673">
        <ele>1106</ele>
        <time>2013-04-01T08:42:13Z</time>
      </trkpt>
      <trkpt lat="45.57247" lon="6.67689">
        <ele>1106</ele>
        <time>2013-04-01T08:42:18Z</time>
      </trkpt>
      <trkpt lat="45.57244" lon="6.67705">
        <ele>1106</ele>
        <time>2013-04-01T08:42:23Z</time>
      </trkpt>
      <trkpt lat="45.5724" lon="6.67713">
        <ele>1106</ele>
        <time>2013-04-01T08:42:25Z</time>
      </trkpt>
      <trkpt lat="45.57239" lon="6.67722">
        <ele>1094</ele>
        <time>2013-04-01T08:42:27Z</time>
      </trkpt>
      <trkpt lat="45.57238" lon="6.6773">
        <ele>1094</ele>
        <time>2013-04-01T08:42:29Z</time>
      </trkpt>
      <trkpt lat="45.57237" lon="6.67739">
        <ele>1094</ele>
        <time>2013-04-01T08:42:31Z</time>
      </trkpt>
      <trkpt lat="45.57239" lon="6.67748">
        <ele>1094</ele>
        <time>2013-04-01T08:42:33Z</time>
      </trkpt>
      <trkpt lat="45.57241" lon="6.67757">
        <ele>1094</ele>
        <time>2013-04-01T08:42:36Z</time>
      </trkpt>
      <trkpt lat="45.57246" lon="6.67763">
        <ele>1094</ele>
        <time>2013-04-01T08:42:38Z</time>
      </trkpt>
      <trkpt lat="45.57248" lon="6.67769">
        <ele>1094</ele>
        <time>2013-04-01T08:42:40Z</time>
      </trkpt>
      <trkpt lat="45.57251" lon="6.67778">
        <ele>1094</ele>
        <time>2013-04-01T08:42:42Z</time>
      </trkpt>
      <trkpt lat="45.57252" lon="6.67784">
        <ele>1094</ele>
        <time>2013-04-01T08:42:44Z</time>
      </trkpt>
      <trkpt lat="45.57257" lon="6.67793">
        <ele>1094</ele>
        <time>2013-04-01T08:42:46Z</time>
      </trkpt>
      <trkpt lat="45.57258" lon="6.67801">
        <ele>1094</ele>
        <time>2013-04-01T08:42:48Z</time>
      </trkpt>
      <trkpt lat="45.57255" lon="6.67815">
        <ele>1086</ele>
        <time>2013-04-01T08:42:51Z</time>
      </trkpt>
      <trkpt lat="45.57256" lon="6.67824">
        <ele>1086</ele>
        <time>2013-04-01T08:42:53Z</time>
      </trkpt>
      <trkpt lat="45.57256" lon="6.67833">
        <ele>1086</ele>
        <time>2013-04-01T08:42:55Z</time>
      </trkpt>
      <trkpt lat="45.57255" lon="6.67841">
        <ele>1086</ele>
        <time>2013-04-01T08:42:57Z</time>
      </trkpt>
      <trkpt lat="45.57255" lon="6.67845">
        <ele>1086</ele>
        <time>2013-04-01T08:42:59Z</time>
      </trkpt>
      <trkpt lat="45.57256" lon="6.67845">
        <ele>1086</ele>
        <time>2013-04-01T08:43:04Z</time>
      </trkpt>
      <trkpt lat="45.57257" lon="6.67854">
        <ele>1086</ele>
        <time>2013-04-01T08:43:06Z</time>
      </trkpt>
      <trkpt lat="45.57258" lon="6.67861">
        <ele>1086</ele>
        <time>2013-04-01T08:43:08Z</time>
      </trkpt>
      <trkpt lat="45.57263" lon="6.67877">
        <ele>1086</ele>
        <time>2013-04-01T08:43:12Z</time>
      </trkpt>
      <trkpt lat="45.57266" lon="6.67895">
        <ele>1078</ele>
        <time>2013-04-01T08:43:17Z</time>
      </trkpt>
      <trkpt lat="45.5727" lon="6.67903">
        <ele>1078</ele>
        <time>2013-04-01T08:43:19Z</time>
      </trkpt>
      <trkpt lat="45.57271" lon="6.67916">
        <ele>1078</ele>
        <time>2013-04-01T08:43:22Z</time>
      </trkpt>
      <trkpt lat="45.5727" lon="6.67924">
        <ele>1078</ele>
        <time>2013-04-01T08:43:24Z</time>
      </trkpt>
      <trkpt lat="45.57269" lon="6.67932">
        <ele>1078</ele>
        <time>2013-04-01T08:43:26Z</time>
      </trkpt>
      <trkpt lat="45.57262" lon="6.67932">
        <ele>1078</ele>
        <time>2013-04-01T08:43:29Z</time>
      </trkpt>
      <trkpt lat="45.57259" lon="6.67923">
        <ele>1078</ele>
        <time>2013-04-01T08:43:31Z</time>
      </trkpt>
      <trkpt lat="45.57256" lon="6.67915">
        <ele>1078</ele>
        <time>2013-04-01T08:43:33Z</time>
      </trkpt>
      <trkpt lat="45.57256" lon="6.67907">
        <ele>1078</ele>
        <time>2013-04-01T08:43:35Z</time>
      </trkpt>
      <trkpt lat="45.57252" lon="6.679">
        <ele>1078</ele>
        <time>2013-04-01T08:43:37Z</time>
      </trkpt>
      <trkpt lat="45.57249" lon="6.67895">
        <ele>1078</ele>
        <time>2013-04-01T08:43:39Z</time>
      </trkpt>
      <trkpt lat="45.57247" lon="6.67892">
        <ele>1078</ele>
        <time>2013-04-01T08:43:41Z</time>
      </trkpt>
      <trkpt lat="45.57237" lon="6.67885">
        <ele>1086</ele>
        <time>2013-04-01T08:43:46Z</time>
      </trkpt>
      <trkpt lat="45.57236" lon="6.67884">
        <ele>1086</ele>
        <time>2013-04-01T08:43:48Z</time>
      </trkpt>
      <trkpt lat="45.5723" lon="6.67882">
        <ele>1086</ele>
        <time>2013-04-01T08:43:50Z</time>
      </trkpt>
      <trkpt lat="45.57222" lon="6.67877">
        <ele>1086</ele>
        <time>2013-04-01T08:43:53Z</time>
      </trkpt>
      <trkpt lat="45.57214" lon="6.67869">
        <ele>1086</ele>
        <time>2013-04-01T08:43:56Z</time>
      </trkpt>
      <trkpt lat="45.57209" lon="6.67864">
        <ele>1062</ele>
        <time>2013-04-01T08:43:58Z</time>
      </trkpt>
      <trkpt lat="45.57204" lon="6.67858">
        <ele>1062</ele>
        <time>2013-04-01T08:44:00Z</time>
      </trkpt>
      <trkpt lat="45.57199" lon="6.6785">
        <ele>1062</ele>
        <time>2013-04-01T08:44:02Z</time>
      </trkpt>
      <trkpt lat="45.57194" lon="6.67845">
        <ele>1062</ele>
        <time>2013-04-01T08:44:04Z</time>
      </trkpt>
      <trkpt lat="45.57188" lon="6.67839">
        <ele>1062</ele>
        <time>2013-04-01T08:44:06Z</time>
      </trkpt>
      <trkpt lat="45.57184" lon="6.67834">
        <ele>1062</ele>
        <time>2013-04-01T08:44:08Z</time>
      </trkpt>
      <trkpt lat="45.57178" lon="6.67832">
        <ele>1062</ele>
        <time>2013-04-01T08:44:10Z</time>
      </trkpt>
      <trkpt lat="45.57173" lon="6.6783">
        <ele>1062</ele>
        <time>2013-04-01T08:44:12Z</time>
      </trkpt>
      <trkpt lat="45.57167" lon="6.67828">
        <ele>1062</ele>
        <time>2013-04-01T08:44:14Z</time>
      </trkpt>
      <trkpt lat="45.57157" lon="6.67822">
        <ele>1062</ele>
        <time>2013-04-01T08:44:18Z</time>
      </trkpt>
      <trkpt lat="45.57154" lon="6.67817">
        <ele>1062</ele>
        <time>2013-04-01T08:44:20Z</time>
      </trkpt>
      <trkpt lat="45.57151" lon="6.67809">
        <ele>1062</ele>
        <time>2013-04-01T08:44:22Z</time>
      </trkpt>
      <trkpt lat="45.57152" lon="6.678">
        <ele>1067</ele>
        <time>2013-04-01T08:44:24Z</time>
      </trkpt>
      <trkpt lat="45.57153" lon="6.67788">
        <ele>1067</ele>
        <time>2013-04-01T08:44:27Z</time>
      </trkpt>
      <trkpt lat="45.57154" lon="6.67781">
        <ele>1067</ele>
        <time>2013-04-01T08:44:29Z</time>
      </trkpt>
      <trkpt lat="45.57157" lon="6.67773">
        <ele>1067</ele>
        <time>2013-04-01T08:44:31Z</time>
      </trkpt>
      <trkpt lat="45.5716" lon="6.6775">
        <ele>1067</ele>
        <time>2013-04-01T08:44:36Z</time>
      </trkpt>
      <trkpt lat="45.57157" lon="6.67744">
        <ele>1067</ele>
        <time>2013-04-01T08:44:38Z</time>
      </trkpt>
      <trkpt lat="45.57155" lon="6.67736">
        <ele>1067</ele>
        <time>2013-04-01T08:44:40Z</time>
      </trkpt>
      <trkpt lat="45.57147" lon="6.67724">
        <ele>1067</ele>
        <time>2013-04-01T08:44:45Z</time>
      </trkpt>
      <trkpt lat="45.57144" lon="6.67713">
        <ele>1083</ele>
        <time>2013-04-01T08:44:48Z</time>
      </trkpt>
      <trkpt lat="45.57143" lon="6.67707">
        <ele>1083</ele>
        <time>2013-04-01T08:44:50Z</time>
      </trkpt>
      <trkpt lat="45.57139" lon="6.67698">
        <ele>1083</ele>
        <time>2013-04-01T08:44:55Z</time>
      </trkpt>
      <trkpt lat="45.57129" lon="6.67693">
        <ele>1058</ele>
        <time>2013-04-01T08:45:01Z</time>
      </trkpt>
      <trkpt lat="45.57123" lon="6.67692">
        <ele>1058</ele>
        <time>2013-04-01T08:45:03Z</time>
      </trkpt>
      <trkpt lat="45.57117" lon="6.67689">
        <ele>1058</ele>
        <time>2013-04-01T08:45:05Z</time>
      </trkpt>
      <trkpt lat="45.57111" lon="6.67687">
        <ele>1058</ele>
        <time>2013-04-01T08:45:07Z</time>
      </trkpt>
      <trkpt lat="45.57098" lon="6.67684">
        <ele>1058</ele>
        <time>2013-04-01T08:45:11Z</time>
      </trkpt>
      <trkpt lat="45.57083" lon="6.67679">
        <ele>1058</ele>
        <time>2013-04-01T08:45:17Z</time>
      </trkpt>
      <trkpt lat="45.57073" lon="6.67668">
        <ele>1058</ele>
        <time>2013-04-01T08:45:21Z</time>
      </trkpt>
      <trkpt lat="45.5707" lon="6.67638">
        <ele>1058</ele>
        <time>2013-04-01T08:45:29Z</time>
      </trkpt>
      <trkpt lat="45.57075" lon="6.67619">
        <ele>1062</ele>
        <time>2013-04-01T08:45:34Z</time>
      </trkpt>
      <trkpt lat="45.57086" lon="6.6758">
        <ele>1062</ele>
        <time>2013-04-01T08:45:44Z</time>
      </trkpt>
      <trkpt lat="45.57087" lon="6.67572">
        <ele>1062</ele>
        <time>2013-04-01T08:45:46Z</time>
      </trkpt>
      <trkpt lat="45.57088" lon="6.67563">
        <ele>1062</ele>
        <time>2013-04-01T08:45:48Z</time>
      </trkpt>
      <trkpt lat="45.57086" lon="6.67548">
        <ele>1062</ele>
        <time>2013-04-01T08:45:52Z</time>
      </trkpt>
      <trkpt lat="45.57086" lon="6.67535">
        <ele>1060</ele>
        <time>2013-04-01T08:45:55Z</time>
      </trkpt>
      <trkpt lat="45.57087" lon="6.67527">
        <ele>1060</ele>
        <time>2013-04-01T08:45:57Z</time>
      </trkpt>
      <trkpt lat="45.57087" lon="6.67519">
        <ele>1060</ele>
        <time>2013-04-01T08:45:59Z</time>
      </trkpt>
      <trkpt lat="45.57085" lon="6.67511">
        <ele>1060</ele>
        <time>2013-04-01T08:46:01Z</time>
      </trkpt>
      <trkpt lat="45.57082" lon="6.67505">
        <ele>1060</ele>
        <time>2013-04-01T08:46:03Z</time>
      </trkpt>
      <trkpt lat="45.57076" lon="6.67499">
        <ele>1060</ele>
        <time>2013-04-01T08:46:05Z</time>
      </trkpt>
      <trkpt lat="45.57072" lon="6.67494">
        <ele>1060</ele>
        <time>2013-04-01T08:46:07Z</time>
      </trkpt>
      <trkpt lat="45.57067" lon="6.67488">
        <ele>1060</ele>
        <time>2013-04-01T08:46:09Z</time>
      </trkpt>
      <trkpt lat="45.57063" lon="6.67482">
        <ele>1060</ele>
        <time>2013-04-01T08:46:11Z</time>
      </trkpt>
      <trkpt lat="45.57059" lon="6.67477">
        <ele>1060</ele>
        <time>2013-04-01T08:46:13Z</time>
      </trkpt>
      <trkpt lat="45.57056" lon="6.6747">
        <ele>1060</ele>
        <time>2013-04-01T08:46:15Z</time>
      </trkpt>
      <trkpt lat="45.57051" lon="6.6746">
        <ele>1062</ele>
        <time>2013-04-01T08:46:18Z</time>
      </trkpt>
      <trkpt lat="45.57044" lon="6.67452">
        <ele>1040</ele>
        <time>2013-04-01T08:46:21Z</time>
      </trkpt>
      <trkpt lat="45.57041" lon="6.67447">
        <ele>1040</ele>
        <time>2013-04-01T08:46:23Z</time>
      </trkpt>
      <trkpt lat="45.57036" lon="6.67441">
        <ele>1040</ele>
        <time>2013-04-01T08:46:25Z</time>
      </trkpt>
      <trkpt lat="45.57029" lon="6.67433">
        <ele>1040</ele>
        <time>2013-04-01T08:46:28Z</time>
      </trkpt>
      <trkpt lat="45.57025" lon="6.67427">
        <ele>1040</ele>
        <time>2013-04-01T08:46:30Z</time>
      </trkpt>
      <trkpt lat="45.57015" lon="6.67415">
        <ele>1040</ele>
        <time>2013-04-01T08:46:35Z</time>
      </trkpt>
      <trkpt lat="45.57011" lon="6.67409">
        <ele>1040</ele>
        <time>2013-04-01T08:46:37Z</time>
      </trkpt>
      <trkpt lat="45.57007" lon="6.67404">
        <ele>1040</ele>
        <time>2013-04-01T08:46:39Z</time>
      </trkpt>
      <trkpt lat="45.57001" lon="6.67396">
        <ele>1040</ele>
        <time>2013-04-01T08:46:42Z</time>
      </trkpt>
      <trkpt lat="45.56996" lon="6.6739">
        <ele>1040</ele>
        <time>2013-04-01T08:46:44Z</time>
      </trkpt>
      <trkpt lat="45.56992" lon="6.67386">
        <ele>1040</ele>
        <time>2013-04-01T08:46:46Z</time>
      </trkpt>
      <trkpt lat="45.56986" lon="6.67382">
        <ele>1040</ele>
        <time>2013-04-01T08:46:48Z</time>
      </trkpt>
      <trkpt lat="45.56983" lon="6.67377">
        <ele>1044</ele>
        <time>2013-04-01T08:46:50Z</time>
      </trkpt>
      <trkpt lat="45.56976" lon="6.67372">
        <ele>1044</ele>
        <time>2013-04-01T08:46:52Z</time>
      </trkpt>
      <trkpt lat="45.5697" lon="6.6737">
        <ele>1044</ele>
        <time>2013-04-01T08:46:54Z</time>
      </trkpt>
      <trkpt lat="45.56965" lon="6.67366">
        <ele>1044</ele>
        <time>2013-04-01T08:46:56Z</time>
      </trkpt>
      <trkpt lat="45.5696" lon="6.67364">
        <ele>1017</ele>
        <time>2013-04-01T08:46:58Z</time>
      </trkpt>
      <trkpt lat="45.56955" lon="6.67363">
        <ele>1017</ele>
        <time>2013-04-01T08:47:00Z</time>
      </trkpt>
      <trkpt lat="45.56949" lon="6.6736">
        <ele>1017</ele>
        <time>2013-04-01T08:47:02Z</time>
      </trkpt>
      <trkpt lat="45.56934" lon="6.67357">
        <ele>1017</ele>
        <time>2013-04-01T08:47:09Z</time>
      </trkpt>
      <trkpt lat="45.56929" lon="6.67357">
        <ele>1017</ele>
        <time>2013-04-01T08:47:11Z</time>
      </trkpt>
      <trkpt lat="45.56924" lon="6.67355">
        <ele>1017</ele>
        <time>2013-04-01T08:47:13Z</time>
      </trkpt>
      <trkpt lat="45.56918" lon="6.67349">
        <ele>1017</ele>
        <time>2013-04-01T08:47:16Z</time>
      </trkpt>
      <trkpt lat="45.56915" lon="6.67343">
        <ele>1017</ele>
        <time>2013-04-01T08:47:18Z</time>
      </trkpt>
      <trkpt lat="45.56912" lon="6.67337">
        <ele>1017</ele>
        <time>2013-04-01T08:47:20Z</time>
      </trkpt>
      <trkpt lat="45.56909" lon="6.6733">
        <ele>1017</ele>
        <time>2013-04-01T08:47:22Z</time>
      </trkpt>
      <trkpt lat="45.56906" lon="6.67324">
        <ele>1017</ele>
        <time>2013-04-01T08:47:24Z</time>
      </trkpt>
      <trkpt lat="45.56903" lon="6.67318">
        <ele>1017</ele>
        <time>2013-04-01T08:47:26Z</time>
      </trkpt>
      <trkpt lat="45.569" lon="6.67313">
        <ele>1017</ele>
        <time>2013-04-01T08:47:28Z</time>
      </trkpt>
      <trkpt lat="45.56896" lon="6.67307">
        <ele>1017</ele>
        <time>2013-04-01T08:47:30Z</time>
      </trkpt>
      <trkpt lat="45.56892" lon="6.67301">
        <ele>1017</ele>
        <time>2013-04-01T08:47:32Z</time>
      </trkpt>
      <trkpt lat="45.56889" lon="6.67295">
        <ele>1020</ele>
        <time>2013-04-01T08:47:34Z</time>
      </trkpt>
      <trkpt lat="45.56885" lon="6.6729">
        <ele>1020</ele>
        <time>2013-04-01T08:47:36Z</time>
      </trkpt>
      <trkpt lat="45.56881" lon="6.67284">
        <ele>1020</ele>
        <time>2013-04-01T08:47:38Z</time>
      </trkpt>
      <trkpt lat="45.56877" lon="6.67278">
        <ele>1020</ele>
        <time>2013-04-01T08:47:40Z</time>
      </trkpt>
      <trkpt lat="45.56873" lon="6.67274">
        <ele>993</ele>
        <time>2013-04-01T08:47:42Z</time>
      </trkpt>
      <trkpt lat="45.56869" lon="6.67267">
        <ele>993</ele>
        <time>2013-04-01T08:47:44Z</time>
      </trkpt>
      <trkpt lat="45.56866" lon="6.67262">
        <ele>993</ele>
        <time>2013-04-01T08:47:46Z</time>
      </trkpt>
      <trkpt lat="45.56862" lon="6.67256">
        <ele>993</ele>
        <time>2013-04-01T08:47:48Z</time>
      </trkpt>
      <trkpt lat="45.5686" lon="6.67252">
        <ele>993</ele>
        <time>2013-04-01T08:47:50Z</time>
      </trkpt>
      <trkpt lat="45.56858" lon="6.67245">
        <ele>993</ele>
        <time>2013-04-01T08:47:52Z</time>
      </trkpt>
      <trkpt lat="45.56856" lon="6.67238">
        <ele>993</ele>
        <time>2013-04-01T08:47:54Z</time>
      </trkpt>
      <trkpt lat="45.56854" lon="6.6723">
        <ele>993</ele>
        <time>2013-04-01T08:47:56Z</time>
      </trkpt>
      <trkpt lat="45.56853" lon="6.67219">
        <ele>993</ele>
        <time>2013-04-01T08:47:59Z</time>
      </trkpt>
      <trkpt lat="45.56852" lon="6.67211">
        <ele>993</ele>
        <time>2013-04-01T08:48:01Z</time>
      </trkpt>
      <trkpt lat="45.56852" lon="6.67203">
        <ele>993</ele>
        <time>2013-04-01T08:48:03Z</time>
      </trkpt>
      <trkpt lat="45.56852" lon="6.67191">
        <ele>993</ele>
        <time>2013-04-01T08:48:06Z</time>
      </trkpt>
      <trkpt lat="45.56853" lon="6.67182">
        <ele>993</ele>
        <time>2013-04-01T08:48:08Z</time>
      </trkpt>
      <trkpt lat="45.56854" lon="6.67174">
        <ele>993</ele>
        <time>2013-04-01T08:48:10Z</time>
      </trkpt>
      <trkpt lat="45.56854" lon="6.67158">
        <ele>993</ele>
        <time>2013-04-01T08:48:14Z</time>
      </trkpt>
      <trkpt lat="45.56853" lon="6.67147">
        <ele>993</ele>
        <time>2013-04-01T08:48:17Z</time>
      </trkpt>
      <trkpt lat="45.56851" lon="6.67137">
        <ele>993</ele>
        <time>2013-04-01T08:48:19Z</time>
      </trkpt>
      <trkpt lat="45.5685" lon="6.67127">
        <ele>990</ele>
        <time>2013-04-01T08:48:22Z</time>
      </trkpt>
      <trkpt lat="45.56849" lon="6.67119">
        <ele>990</ele>
        <time>2013-04-01T08:48:24Z</time>
      </trkpt>
      <trkpt lat="45.56848" lon="6.67111">
        <ele>990</ele>
        <time>2013-04-01T08:48:26Z</time>
      </trkpt>
      <trkpt lat="45.56849" lon="6.67104">
        <ele>990</ele>
        <time>2013-04-01T08:48:28Z</time>
      </trkpt>
      <trkpt lat="45.56848" lon="6.67098">
        <ele>990</ele>
        <time>2013-04-01T08:48:30Z</time>
      </trkpt>
      <trkpt lat="45.56846" lon="6.67076">
        <ele>990</ele>
        <time>2013-04-01T08:48:36Z</time>
      </trkpt>
      <trkpt lat="45.56847" lon="6.67069">
        <ele>990</ele>
        <time>2013-04-01T08:48:38Z</time>
      </trkpt>
      <trkpt lat="45.56847" lon="6.67062">
        <ele>990</ele>
        <time>2013-04-01T08:48:40Z</time>
      </trkpt>
      <trkpt lat="45.56846" lon="6.67043">
        <ele>989</ele>
        <time>2013-04-01T08:48:45Z</time>
      </trkpt>
      <trkpt lat="45.56842" lon="6.67036">
        <ele>989</ele>
        <time>2013-04-01T08:48:47Z</time>
      </trkpt>
      <trkpt lat="45.56839" lon="6.67028">
        <ele>989</ele>
        <time>2013-04-01T08:48:49Z</time>
      </trkpt>
      <trkpt lat="45.56836" lon="6.67022">
        <ele>989</ele>
        <time>2013-04-01T08:48:51Z</time>
      </trkpt>
      <trkpt lat="45.56834" lon="6.67015">
        <ele>989</ele>
        <time>2013-04-01T08:48:53Z</time>
      </trkpt>
      <trkpt lat="45.5683" lon="6.67005">
        <ele>989</ele>
        <time>2013-04-01T08:48:56Z</time>
      </trkpt>
      <trkpt lat="45.56827" lon="6.66999">
        <ele>989</ele>
        <time>2013-04-01T08:48:58Z</time>
      </trkpt>
      <trkpt lat="45.56824" lon="6.66992">
        <ele>989</ele>
        <time>2013-04-01T08:49:00Z</time>
      </trkpt>
      <trkpt lat="45.56816" lon="6.66972">
        <ele>989</ele>
        <time>2013-04-01T08:49:06Z</time>
      </trkpt>
      <trkpt lat="45.56811" lon="6.66963">
        <ele>987</ele>
        <time>2013-04-01T08:49:09Z</time>
      </trkpt>
      <trkpt lat="45.56808" lon="6.66956">
        <ele>987</ele>
        <time>2013-04-01T08:49:11Z</time>
      </trkpt>
      <trkpt lat="45.56795" lon="6.66939">
        <ele>987</ele>
        <time>2013-04-01T08:49:17Z</time>
      </trkpt>
      <trkpt lat="45.5679" lon="6.66933">
        <ele>978</ele>
        <time>2013-04-01T08:49:19Z</time>
      </trkpt>
      <trkpt lat="45.56785" lon="6.66929">
        <ele>978</ele>
        <time>2013-04-01T08:49:21Z</time>
      </trkpt>
      <trkpt lat="45.56779" lon="6.66915">
        <ele>978</ele>
        <time>2013-04-01T08:49:25Z</time>
      </trkpt>
      <trkpt lat="45.56775" lon="6.6691">
        <ele>978</ele>
        <time>2013-04-01T08:49:27Z</time>
      </trkpt>
      <trkpt lat="45.56771" lon="6.66906">
        <ele>978</ele>
        <time>2013-04-01T08:49:29Z</time>
      </trkpt>
      <trkpt lat="45.56765" lon="6.66897">
        <ele>978</ele>
        <time>2013-04-01T08:49:32Z</time>
      </trkpt>
      <trkpt lat="45.56762" lon="6.66891">
        <ele>978</ele>
        <time>2013-04-01T08:49:34Z</time>
      </trkpt>
      <trkpt lat="45.56757" lon="6.66886">
        <ele>976</ele>
        <time>2013-04-01T08:49:36Z</time>
      </trkpt>
      <trkpt lat="45.56754" lon="6.6688">
        <ele>976</ele>
        <time>2013-04-01T08:49:38Z</time>
      </trkpt>
      <trkpt lat="45.56751" lon="6.66876">
        <ele>976</ele>
        <time>2013-04-01T08:49:40Z</time>
      </trkpt>
      <trkpt lat="45.56747" lon="6.6687">
        <ele>976</ele>
        <time>2013-04-01T08:49:42Z</time>
      </trkpt>
      <trkpt lat="45.56743" lon="6.66864">
        <ele>976</ele>
        <time>2013-04-01T08:49:44Z</time>
      </trkpt>
      <trkpt lat="45.56732" lon="6.66849">
        <ele>976</ele>
        <time>2013-04-01T08:49:50Z</time>
      </trkpt>
      <trkpt lat="45.56728" lon="6.66843">
        <ele>976</ele>
        <time>2013-04-01T08:49:52Z</time>
      </trkpt>
      <trkpt lat="45.56724" lon="6.66838">
        <ele>976</ele>
        <time>2013-04-01T08:49:54Z</time>
      </trkpt>
      <trkpt lat="45.56714" lon="6.66825">
        <ele>976</ele>
        <time>2013-04-01T08:49:59Z</time>
      </trkpt>
      <trkpt lat="45.56709" lon="6.66822">
        <ele>965</ele>
        <time>2013-04-01T08:50:01Z</time>
      </trkpt>
      <trkpt lat="45.56703" lon="6.66822">
        <ele>965</ele>
        <time>2013-04-01T08:50:03Z</time>
      </trkpt>
      <trkpt lat="45.56699" lon="6.66823">
        <ele>965</ele>
        <time>2013-04-01T08:50:05Z</time>
      </trkpt>
      <trkpt lat="45.56693" lon="6.66826">
        <ele>965</ele>
        <time>2013-04-01T08:50:07Z</time>
      </trkpt>
      <trkpt lat="45.56688" lon="6.66831">
        <ele>965</ele>
        <time>2013-04-01T08:50:09Z</time>
      </trkpt>
      <trkpt lat="45.5668" lon="6.66842">
        <ele>965</ele>
        <time>2013-04-01T08:50:13Z</time>
      </trkpt>
      <trkpt lat="45.56679" lon="6.6685">
        <ele>965</ele>
        <time>2013-04-01T08:50:15Z</time>
      </trkpt>
      <trkpt lat="45.56679" lon="6.66866">
        <ele>965</ele>
        <time>2013-04-01T08:50:19Z</time>
      </trkpt>
      <trkpt lat="45.56678" lon="6.66883">
        <ele>965</ele>
        <time>2013-04-01T08:50:23Z</time>
      </trkpt>
      <trkpt lat="45.56679" lon="6.66891">
        <ele>961</ele>
        <time>2013-04-01T08:50:25Z</time>
      </trkpt>
      <trkpt lat="45.56679" lon="6.66899">
        <ele>961</ele>
        <time>2013-04-01T08:50:27Z</time>
      </trkpt>
      <trkpt lat="45.56679" lon="6.66918">
        <ele>961</ele>
        <time>2013-04-01T08:50:32Z</time>
      </trkpt>
      <trkpt lat="45.56681" lon="6.66926">
        <ele>961</ele>
        <time>2013-04-01T08:50:34Z</time>
      </trkpt>
      <trkpt lat="45.56681" lon="6.66933">
        <ele>961</ele>
        <time>2013-04-01T08:50:36Z</time>
      </trkpt>
      <trkpt lat="45.56681" lon="6.66948">
        <ele>961</ele>
        <time>2013-04-01T08:50:40Z</time>
      </trkpt>
      <trkpt lat="45.56681" lon="6.66954">
        <ele>961</ele>
        <time>2013-04-01T08:50:42Z</time>
      </trkpt>
      <trkpt lat="45.56682" lon="6.66962">
        <ele>961</ele>
        <time>2013-04-01T08:50:44Z</time>
      </trkpt>
      <trkpt lat="45.56684" lon="6.66969">
        <ele>953</ele>
        <time>2013-04-01T08:50:46Z</time>
      </trkpt>
      <trkpt lat="45.5669" lon="6.66989">
        <ele>953</ele>
        <time>2013-04-01T08:50:52Z</time>
      </trkpt>
      <trkpt lat="45.56694" lon="6.66993">
        <ele>953</ele>
        <time>2013-04-01T08:50:54Z</time>
      </trkpt>
      <trkpt lat="45.56698" lon="6.66998">
        <ele>953</ele>
        <time>2013-04-01T08:50:56Z</time>
      </trkpt>
      <trkpt lat="45.5671" lon="6.67024">
        <ele>953</ele>
        <time>2013-04-01T08:51:04Z</time>
      </trkpt>
      <trkpt lat="45.56712" lon="6.6703">
        <ele>972</ele>
        <time>2013-04-01T08:51:06Z</time>
      </trkpt>
      <trkpt lat="45.56715" lon="6.67037">
        <ele>972</ele>
        <time>2013-04-01T08:51:08Z</time>
      </trkpt>
      <trkpt lat="45.56716" lon="6.67045">
        <ele>972</ele>
        <time>2013-04-01T08:51:10Z</time>
      </trkpt>
      <trkpt lat="45.56712" lon="6.67059">
        <ele>965</ele>
        <time>2013-04-01T08:51:14Z</time>
      </trkpt>
      <trkpt lat="45.567" lon="6.67064">
        <ele>943</ele>
        <time>2013-04-01T08:51:19Z</time>
      </trkpt>
      <trkpt lat="45.56696" lon="6.67059">
        <ele>943</ele>
        <time>2013-04-01T08:51:21Z</time>
      </trkpt>
      <trkpt lat="45.56693" lon="6.67053">
        <ele>943</ele>
        <time>2013-04-01T08:51:23Z</time>
      </trkpt>
      <trkpt lat="45.56685" lon="6.67037">
        <ele>953</ele>
        <time>2013-04-01T08:51:28Z</time>
      </trkpt>
      <trkpt lat="45.56681" lon="6.67029">
        <ele>953</ele>
        <time>2013-04-01T08:51:31Z</time>
      </trkpt>
      <trkpt lat="45.56678" lon="6.67022">
        <ele>953</ele>
        <time>2013-04-01T08:51:33Z</time>
      </trkpt>
      <trkpt lat="45.56676" lon="6.67017">
        <ele>953</ele>
        <time>2013-04-01T08:51:35Z</time>
      </trkpt>
      <trkpt lat="45.56666" lon="6.66994">
        <ele>953</ele>
        <time>2013-04-01T08:51:42Z</time>
      </trkpt>
      <trkpt lat="45.56663" lon="6.66987">
        <ele>953</ele>
        <time>2013-04-01T08:51:44Z</time>
      </trkpt>
      <trkpt lat="45.56661" lon="6.6698">
        <ele>953</ele>
        <time>2013-04-01T08:51:46Z</time>
      </trkpt>
      <trkpt lat="45.5665" lon="6.66956">
        <ele>961</ele>
        <time>2013-04-01T08:51:54Z</time>
      </trkpt>
      <trkpt lat="45.56647" lon="6.66949">
        <ele>961</ele>
        <time>2013-04-01T08:51:56Z</time>
      </trkpt>
      <trkpt lat="45.56644" lon="6.66942">
        <ele>961</ele>
        <time>2013-04-01T08:51:58Z</time>
      </trkpt>
      <trkpt lat="45.5664" lon="6.66932">
        <ele>961</ele>
        <time>2013-04-01T08:52:01Z</time>
      </trkpt>
      <trkpt lat="45.56633" lon="6.6692">
        <ele>961</ele>
        <time>2013-04-01T08:52:05Z</time>
      </trkpt>
      <trkpt lat="45.56629" lon="6.66915">
        <ele>961</ele>
        <time>2013-04-01T08:52:07Z</time>
      </trkpt>
      <trkpt lat="45.56626" lon="6.66908">
        <ele>938</ele>
        <time>2013-04-01T08:52:09Z</time>
      </trkpt>
      <trkpt lat="45.56617" lon="6.66893">
        <ele>938</ele>
        <time>2013-04-01T08:52:14Z</time>
      </trkpt>
      <trkpt lat="45.56613" lon="6.66888">
        <ele>938</ele>
        <time>2013-04-01T08:52:16Z</time>
      </trkpt>
      <trkpt lat="45.56607" lon="6.6688">
        <ele>944</ele>
        <time>2013-04-01T08:52:19Z</time>
      </trkpt>
      <trkpt lat="45.566" lon="6.66869">
        <ele>944</ele>
        <time>2013-04-01T08:52:23Z</time>
      </trkpt>
      <trkpt lat="45.56596" lon="6.66865">
        <ele>944</ele>
        <time>2013-04-01T08:52:25Z</time>
      </trkpt>
      <trkpt lat="45.56591" lon="6.6686">
        <ele>944</ele>
        <time>2013-04-01T08:52:27Z</time>
      </trkpt>
      <trkpt lat="45.56578" lon="6.6685">
        <ele>944</ele>
        <time>2013-04-01T08:52:33Z</time>
      </trkpt>
      <trkpt lat="45.56573" lon="6.66846">
        <ele>944</ele>
        <time>2013-04-01T08:52:35Z</time>
      </trkpt>
      <trkpt lat="45.56569" lon="6.66843">
        <ele>944</ele>
        <time>2013-04-01T08:52:37Z</time>
      </trkpt>
      <trkpt lat="45.56559" lon="6.66835">
        <ele>944</ele>
        <time>2013-04-01T08:52:41Z</time>
      </trkpt>
      <trkpt lat="45.56554" lon="6.66833">
        <ele>944</ele>
        <time>2013-04-01T08:52:43Z</time>
      </trkpt>
      <trkpt lat="45.56549" lon="6.6683">
        <ele>944</ele>
        <time>2013-04-01T08:52:45Z</time>
      </trkpt>
      <trkpt lat="45.56535" lon="6.66819">
        <ele>925</ele>
        <time>2013-04-01T08:52:51Z</time>
      </trkpt>
      <trkpt lat="45.56531" lon="6.66815">
        <ele>925</ele>
        <time>2013-04-01T08:52:53Z</time>
      </trkpt>
      <trkpt lat="45.56526" lon="6.66811">
        <ele>925</ele>
        <time>2013-04-01T08:52:55Z</time>
      </trkpt>
      <trkpt lat="45.56514" lon="6.66802">
        <ele>930</ele>
        <time>2013-04-01T08:53:00Z</time>
      </trkpt>
      <trkpt lat="45.5651" lon="6.66796">
        <ele>930</ele>
        <time>2013-04-01T08:53:02Z</time>
      </trkpt>
      <trkpt lat="45.56503" lon="6.66785">
        <ele>930</ele>
        <time>2013-04-01T08:53:06Z</time>
      </trkpt>
      <trkpt lat="45.56497" lon="6.66769">
        <ele>930</ele>
        <time>2013-04-01T08:53:11Z</time>
      </trkpt>
      <trkpt lat="45.56495" lon="6.66762">
        <ele>930</ele>
        <time>2013-04-01T08:53:13Z</time>
      </trkpt>
      <trkpt lat="45.5649" lon="6.66743">
        <ele>930</ele>
        <time>2013-04-01T08:53:18Z</time>
      </trkpt>
      <trkpt lat="45.56488" lon="6.66736">
        <ele>930</ele>
        <time>2013-04-01T08:53:20Z</time>
      </trkpt>
      <trkpt lat="45.56486" lon="6.66727">
        <ele>930</ele>
        <time>2013-04-01T08:53:22Z</time>
      </trkpt>
      <trkpt lat="45.56485" lon="6.66712">
        <ele>928</ele>
        <time>2013-04-01T08:53:26Z</time>
      </trkpt>
      <trkpt lat="45.56484" lon="6.66703">
        <ele>928</ele>
        <time>2013-04-01T08:53:28Z</time>
      </trkpt>
      <trkpt lat="45.56483" lon="6.66696">
        <ele>928</ele>
        <time>2013-04-01T08:53:30Z</time>
      </trkpt>
      <trkpt lat="45.56481" lon="6.66688">
        <ele>928</ele>
        <time>2013-04-01T08:53:32Z</time>
      </trkpt>
      <trkpt lat="45.5648" lon="6.66677">
        <ele>928</ele>
        <time>2013-04-01T08:53:35Z</time>
      </trkpt>
      <trkpt lat="45.56479" lon="6.66669">
        <ele>928</ele>
        <time>2013-04-01T08:53:37Z</time>
      </trkpt>
      <trkpt lat="45.56478" lon="6.66662">
        <ele>928</ele>
        <time>2013-04-01T08:53:39Z</time>
      </trkpt>
      <trkpt lat="45.56474" lon="6.66641">
        <ele>928</ele>
        <time>2013-04-01T08:53:44Z</time>
      </trkpt>
      <trkpt lat="45.56473" lon="6.66634">
        <ele>928</ele>
        <time>2013-04-01T08:53:46Z</time>
      </trkpt>
      <trkpt lat="45.56472" lon="6.66626">
        <ele>928</ele>
        <time>2013-04-01T08:53:48Z</time>
      </trkpt>
      <trkpt lat="45.5647" lon="6.66614">
        <ele>928</ele>
        <time>2013-04-01T08:53:51Z</time>
      </trkpt>
      <trkpt lat="45.56468" lon="6.66607">
        <ele>928</ele>
        <time>2013-04-01T08:53:53Z</time>
      </trkpt>
      <trkpt lat="45.56467" lon="6.666">
        <ele>928</ele>
        <time>2013-04-01T08:53:55Z</time>
      </trkpt>
      <trkpt lat="45.56463" lon="6.66581">
        <ele>900</ele>
        <time>2013-04-01T08:54:00Z</time>
      </trkpt>
      <trkpt lat="45.56462" lon="6.66572">
        <ele>900</ele>
        <time>2013-04-01T08:54:02Z</time>
      </trkpt>
      <trkpt lat="45.56461" lon="6.66564">
        <ele>900</ele>
        <time>2013-04-01T08:54:04Z</time>
      </trkpt>
      <trkpt lat="45.56453" lon="6.66518">
        <ele>903</ele>
        <time>2013-04-01T08:54:16Z</time>
      </trkpt>
      <trkpt lat="45.56452" lon="6.6651">
        <ele>903</ele>
        <time>2013-04-01T08:54:18Z</time>
      </trkpt>
      <trkpt lat="45.56451" lon="6.66503">
        <ele>903</ele>
        <time>2013-04-01T08:54:20Z</time>
      </trkpt>
      <trkpt lat="45.5645" lon="6.66483">
        <ele>903</ele>
        <time>2013-04-01T08:54:25Z</time>
      </trkpt>
      <trkpt lat="45.56448" lon="6.66472">
        <ele>903</ele>
        <time>2013-04-01T08:54:28Z</time>
      </trkpt>
      <trkpt lat="45.56447" lon="6.66466">
        <ele>903</ele>
        <time>2013-04-01T08:54:30Z</time>
      </trkpt>
      <trkpt lat="45.56445" lon="6.66458">
        <ele>904</ele>
        <time>2013-04-01T08:54:32Z</time>
      </trkpt>
      <trkpt lat="45.56442" lon="6.66452">
        <ele>904</ele>
        <time>2013-04-01T08:54:34Z</time>
      </trkpt>
      <trkpt lat="45.56438" lon="6.66441">
        <ele>904</ele>
        <time>2013-04-01T08:54:37Z</time>
      </trkpt>
      <trkpt lat="45.56435" lon="6.66435">
        <ele>904</ele>
        <time>2013-04-01T08:54:39Z</time>
      </trkpt>
      <trkpt lat="45.56433" lon="6.6643">
        <ele>904</ele>
        <time>2013-04-01T08:54:41Z</time>
      </trkpt>
      <trkpt lat="45.56427" lon="6.66419">
        <ele>904</ele>
        <time>2013-04-01T08:54:45Z</time>
      </trkpt>
      <trkpt lat="45.56421" lon="6.6641">
        <ele>904</ele>
        <time>2013-04-01T08:54:48Z</time>
      </trkpt>
      <trkpt lat="45.56411" lon="6.6639">
        <ele>904</ele>
        <time>2013-04-01T08:54:55Z</time>
      </trkpt>
      <trkpt lat="45.56408" lon="6.66383">
        <ele>904</ele>
        <time>2013-04-01T08:54:57Z</time>
      </trkpt>
      <trkpt lat="45.56406" lon="6.66376">
        <ele>899</ele>
        <time>2013-04-01T08:54:59Z</time>
      </trkpt>
      <trkpt lat="45.56398" lon="6.66347">
        <ele>899</ele>
        <time>2013-04-01T08:55:07Z</time>
      </trkpt>
      <trkpt lat="45.56394" lon="6.66333">
        <ele>899</ele>
        <time>2013-04-01T08:55:11Z</time>
      </trkpt>
      <trkpt lat="45.56392" lon="6.66325">
        <ele>899</ele>
        <time>2013-04-01T08:55:13Z</time>
      </trkpt>
      <trkpt lat="45.5639" lon="6.66319">
        <ele>899</ele>
        <time>2013-04-01T08:55:15Z</time>
      </trkpt>
      <trkpt lat="45.56389" lon="6.66301">
        <ele>899</ele>
        <time>2013-04-01T08:55:20Z</time>
      </trkpt>
      <trkpt lat="45.56389" lon="6.66294">
        <ele>883</ele>
        <time>2013-04-01T08:55:22Z</time>
      </trkpt>
      <trkpt lat="45.56388" lon="6.66287">
        <ele>883</ele>
        <time>2013-04-01T08:55:24Z</time>
      </trkpt>
      <trkpt lat="45.56389" lon="6.66273">
        <ele>883</ele>
        <time>2013-04-01T08:55:30Z</time>
      </trkpt>
      <trkpt lat="45.56387" lon="6.66273">
        <ele>883</ele>
        <time>2013-04-01T08:55:32Z</time>
      </trkpt>
      <trkpt lat="45.56372" lon="6.66258">
        <ele>883</ele>
        <time>2013-04-01T08:55:39Z</time>
      </trkpt>
      <trkpt lat="45.56373" lon="6.66251">
        <ele>883</ele>
        <time>2013-04-01T08:55:41Z</time>
      </trkpt>
      <trkpt lat="45.56375" lon="6.66243">
        <ele>883</ele>
        <time>2013-04-01T08:55:43Z</time>
      </trkpt>
      <trkpt lat="45.56373" lon="6.66231">
        <ele>883</ele>
        <time>2013-04-01T08:55:46Z</time>
      </trkpt>
      <trkpt lat="45.56372" lon="6.66223">
        <ele>883</ele>
        <time>2013-04-01T08:55:48Z</time>
      </trkpt>
      <trkpt lat="45.56371" lon="6.66211">
        <ele>882</ele>
        <time>2013-04-01T08:55:51Z</time>
      </trkpt>
      <trkpt lat="45.56368" lon="6.6618">
        <ele>882</ele>
        <time>2013-04-01T08:55:59Z</time>
      </trkpt>
      <trkpt lat="45.56363" lon="6.66164">
        <ele>882</ele>
        <time>2013-04-01T08:56:03Z</time>
      </trkpt>
      <trkpt lat="45.56358" lon="6.66152">
        <ele>882</ele>
        <time>2013-04-01T08:56:07Z</time>
      </trkpt>
      <trkpt lat="45.56351" lon="6.66141">
        <ele>882</ele>
        <time>2013-04-01T08:56:11Z</time>
      </trkpt>
      <trkpt lat="45.56343" lon="6.66126">
        <ele>878</ele>
        <time>2013-04-01T08:56:16Z</time>
      </trkpt>
      <trkpt lat="45.56337" lon="6.66113">
        <ele>878</ele>
        <time>2013-04-01T08:56:20Z</time>
      </trkpt>
      <trkpt lat="45.5633" lon="6.661">
        <ele>878</ele>
        <time>2013-04-01T08:56:24Z</time>
      </trkpt>
      <trkpt lat="45.56325" lon="6.6608">
        <ele>878</ele>
        <time>2013-04-01T08:56:29Z</time>
      </trkpt>
      <trkpt lat="45.56325" lon="6.66064">
        <ele>878</ele>
        <time>2013-04-01T08:56:33Z</time>
      </trkpt>
      <trkpt lat="45.56329" lon="6.66029">
        <ele>872</ele>
        <time>2013-04-01T08:56:42Z</time>
      </trkpt>
      <trkpt lat="45.5633" lon="6.66013">
        <ele>872</ele>
        <time>2013-04-01T08:56:46Z</time>
      </trkpt>
      <trkpt lat="45.56328" lon="6.65989">
        <ele>872</ele>
        <time>2013-04-01T08:56:52Z</time>
      </trkpt>
      <trkpt lat="45.56325" lon="6.65966">
        <ele>861</ele>
        <time>2013-04-01T08:56:58Z</time>
      </trkpt>
      <trkpt lat="45.56321" lon="6.65952">
        <ele>861</ele>
        <time>2013-04-01T08:57:02Z</time>
      </trkpt>
      <trkpt lat="45.56314" lon="6.65933">
        <ele>861</ele>
        <time>2013-04-01T08:57:08Z</time>
      </trkpt>
      <trkpt lat="45.56303" lon="6.65918">
        <ele>861</ele>
        <time>2013-04-01T08:57:14Z</time>
      </trkpt>
      <trkpt lat="45.56291" lon="6.65905">
        <ele>864</ele>
        <time>2013-04-01T08:57:20Z</time>
      </trkpt>
      <trkpt lat="45.56282" lon="6.65896">
        <ele>864</ele>
        <time>2013-04-01T08:57:24Z</time>
      </trkpt>
      <trkpt lat="45.56274" lon="6.65889">
        <ele>864</ele>
        <time>2013-04-01T08:57:28Z</time>
      </trkpt>
      <trkpt lat="45.56265" lon="6.65883">
        <ele>850</ele>
        <time>2013-04-01T08:57:32Z</time>
      </trkpt>
      <trkpt lat="45.56247" lon="6.65868">
        <ele>850</ele>
        <time>2013-04-01T08:57:41Z</time>
      </trkpt>
      <trkpt lat="45.56239" lon="6.65863">
        <ele>850</ele>
        <time>2013-04-01T08:57:45Z</time>
      </trkpt>
      <trkpt lat="45.56226" lon="6.65853">
        <ele>850</ele>
        <time>2013-04-01T08:57:51Z</time>
      </trkpt>
      <trkpt lat="45.56216" lon="6.65844">
        <ele>850</ele>
        <time>2013-04-01T08:57:55Z</time>
      </trkpt>
      <trkpt lat="45.56208" lon="6.65836">
        <ele>843</ele>
        <time>2013-04-01T08:57:59Z</time>
      </trkpt>
      <trkpt lat="45.562" lon="6.65829">
        <ele>843</ele>
        <time>2013-04-01T08:58:03Z</time>
      </trkpt>
      <trkpt lat="45.56193" lon="6.65823">
        <ele>843</ele>
        <time>2013-04-01T08:58:07Z</time>
      </trkpt>
      <trkpt lat="45.56186" lon="6.65816">
        <ele>843</ele>
        <time>2013-04-01T08:58:11Z</time>
      </trkpt>
      <trkpt lat="45.5618" lon="6.6581">
        <ele>843</ele>
        <time>2013-04-01T08:58:15Z</time>
      </trkpt>
      <trkpt lat="45.56174" lon="6.65802">
        <ele>827</ele>
        <time>2013-04-01T08:58:19Z</time>
      </trkpt>
      <trkpt lat="45.56171" lon="6.65794">
        <ele>827</ele>
        <time>2013-04-01T08:58:23Z</time>
      </trkpt>
      <trkpt lat="45.56165" lon="6.65789">
        <ele>827</ele>
        <time>2013-04-01T08:58:27Z</time>
      </trkpt>
      <trkpt lat="45.56162" lon="6.65788">
        <ele>827</ele>
        <time>2013-04-01T08:58:31Z</time>
      </trkpt>
      <trkpt lat="45.56161" lon="6.65787">
        <ele>827</ele>
        <time>2013-04-01T08:58:35Z</time>
      </trkpt>
      <trkpt lat="45.56161" lon="6.65785">
        <ele>827</ele>
        <time>2013-04-01T08:58:42Z</time>
      </trkpt>
      <trkpt lat="45.56148" lon="6.6578">
        <ele>827</ele>
        <time>2013-04-01T08:58:57Z</time>
      </trkpt>
      <trkpt lat="45.56141" lon="6.65782">
        <ele>827</ele>
        <time>2013-04-01T08:59:01Z</time>
      </trkpt>
      <trkpt lat="45.56132" lon="6.6578">
        <ele>827</ele>
        <time>2013-04-01T08:59:05Z</time>
      </trkpt>
      <trkpt lat="45.56122" lon="6.65773">
        <ele>820</ele>
        <time>2013-04-01T08:59:09Z</time>
      </trkpt>
      <trkpt lat="45.56113" lon="6.65766">
        <ele>820</ele>
        <time>2013-04-01T08:59:13Z</time>
      </trkpt>
      <trkpt lat="45.56105" lon="6.65759">
        <ele>820</ele>
        <time>2013-04-01T08:59:17Z</time>
      </trkpt>
      <trkpt lat="45.561" lon="6.65749">
        <ele>820</ele>
        <time>2013-04-01T08:59:21Z</time>
      </trkpt>
      <trkpt lat="45.56094" lon="6.65739">
        <ele>820</ele>
        <time>2013-04-01T08:59:25Z</time>
      </trkpt>
      <trkpt lat="45.56088" lon="6.65728">
        <ele>820</ele>
        <time>2013-04-01T08:59:29Z</time>
      </trkpt>
      <trkpt lat="45.5608" lon="6.65718">
        <ele>801</ele>
        <time>2013-04-01T08:59:34Z</time>
      </trkpt>
      <trkpt lat="45.56081" lon="6.65718">
        <ele>801</ele>
        <time>2013-04-01T08:59:38Z</time>
      </trkpt>
      <trkpt lat="45.5608" lon="6.65715">
        <ele>801</ele>
        <time>2013-04-01T08:59:45Z</time>
      </trkpt>
      <trkpt lat="45.56071" lon="6.65705">
        <ele>801</ele>
        <time>2013-04-01T08:59:56Z</time>
      </trkpt>
      <trkpt lat="45.56065" lon="6.65683">
        <ele>801</ele>
        <time>2013-04-01T09:00:04Z</time>
      </trkpt>
      <trkpt lat="45.5606" lon="6.65671">
        <ele>801</ele>
        <time>2013-04-01T09:00:08Z</time>
      </trkpt>
      <trkpt lat="45.5606" lon="6.6566">
        <ele>801</ele>
        <time>2013-04-01T09:00:13Z</time>
      </trkpt>
      <trkpt lat="45.56059" lon="6.6565">
        <ele>801</ele>
        <time>2013-04-01T09:00:18Z</time>
      </trkpt>
      <trkpt lat="45.56059" lon="6.6565">
        <ele>801</ele>
        <time>2013-04-01T09:00:22Z</time>
      </trkpt>
      <trkpt lat="45.5606" lon="6.65633">
        <ele>801</ele>
        <time>2013-04-01T09:00:32Z</time>
      </trkpt>
      <trkpt lat="45.5606" lon="6.65623">
        <ele>778</ele>
        <time>2013-04-01T09:00:36Z</time>
      </trkpt>
      <trkpt lat="45.56058" lon="6.65611">
        <ele>778</ele>
        <time>2013-04-01T09:00:40Z</time>
      </trkpt>
      <trkpt lat="45.56058" lon="6.65598">
        <ele>778</ele>
        <time>2013-04-01T09:00:44Z</time>
      </trkpt>
      <trkpt lat="45.56051" lon="6.65582">
        <ele>778</ele>
        <time>2013-04-01T09:00:48Z</time>
      </trkpt>
      <trkpt lat="45.56042" lon="6.65573">
        <ele>773</ele>
        <time>2013-04-01T09:00:52Z</time>
      </trkpt>
      <trkpt lat="45.56035" lon="6.65563">
        <ele>773</ele>
        <time>2013-04-01T09:00:56Z</time>
      </trkpt>
      <trkpt lat="45.56027" lon="6.65556">
        <ele>773</ele>
        <time>2013-04-01T09:01:00Z</time>
      </trkpt>
      <trkpt lat="45.5602" lon="6.65544">
        <ele>773</ele>
        <time>2013-04-01T09:01:04Z</time>
      </trkpt>
      <trkpt lat="45.56014" lon="6.65531">
        <ele>758</ele>
        <time>2013-04-01T09:01:08Z</time>
      </trkpt>
      <trkpt lat="45.56011" lon="6.65518">
        <ele>758</ele>
        <time>2013-04-01T09:01:12Z</time>
      </trkpt>
      <trkpt lat="45.56006" lon="6.65511">
        <ele>758</ele>
        <time>2013-04-01T09:01:16Z</time>
      </trkpt>
      <trkpt lat="45.56001" lon="6.65495">
        <ele>758</ele>
        <time>2013-04-01T09:01:22Z</time>
      </trkpt>
      <trkpt lat="45.56001" lon="6.6548">
        <ele>758</ele>
        <time>2013-04-01T09:01:27Z</time>
      </trkpt>
      <trkpt lat="45.55996" lon="6.65469">
        <ele>758</ele>
        <time>2013-04-01T09:01:31Z</time>
      </trkpt>
      <trkpt lat="45.55993" lon="6.6546">
        <ele>731</ele>
        <time>2013-04-01T09:01:35Z</time>
      </trkpt>
      <trkpt lat="45.55993" lon="6.65451">
        <ele>731</ele>
        <time>2013-04-01T09:01:39Z</time>
      </trkpt>
      <trkpt lat="45.55993" lon="6.65441">
        <ele>731</ele>
        <time>2013-04-01T09:01:43Z</time>
      </trkpt>
      <trkpt lat="45.55988" lon="6.65434">
        <ele>731</ele>
        <time>2013-04-01T09:01:47Z</time>
      </trkpt>
      <trkpt lat="45.55981" lon="6.6543">
        <ele>731</ele>
        <time>2013-04-01T09:01:51Z</time>
      </trkpt>
      <trkpt lat="45.55973" lon="6.65416">
        <ele>731</ele>
        <time>2013-04-01T09:01:55Z</time>
      </trkpt>
      <trkpt lat="45.55965" lon="6.65405">
        <ele>731</ele>
        <time>2013-04-01T09:01:59Z</time>
      </trkpt>
      <trkpt lat="45.55956" lon="6.65397">
        <ele>723</ele>
        <time>2013-04-01T09:02:03Z</time>
      </trkpt>
      <trkpt lat="45.55944" lon="6.65395">
        <ele>723</ele>
        <time>2013-04-01T09:02:07Z</time>
      </trkpt>
      <trkpt lat="45.55936" lon="6.65391">
        <ele>723</ele>
        <time>2013-04-01T09:02:11Z</time>
      </trkpt>
      <trkpt lat="45.55933" lon="6.65382">
        <ele>723</ele>
        <time>2013-04-01T09:02:15Z</time>
      </trkpt>
      <trkpt lat="45.55928" lon="6.65378">
        <ele>708</ele>
        <time>2013-04-01T09:02:19Z</time>
      </trkpt>
      <trkpt lat="45.55925" lon="6.65384">
        <ele>723</ele>
        <time>2013-04-01T09:02:23Z</time>
      </trkpt>
      <trkpt lat="45.55921" lon="6.65389">
        <ele>723</ele>
        <time>2013-04-01T09:02:27Z</time>
      </trkpt>
      <trkpt lat="45.5592" lon="6.65396">
        <ele>723</ele>
        <time>2013-04-01T09:02:31Z</time>
      </trkpt>
      <trkpt lat="45.55915" lon="6.65399">
        <ele>723</ele>
        <time>2013-04-01T09:02:35Z</time>
      </trkpt>
      <trkpt lat="45.5591" lon="6.65402">
        <ele>723</ele>
        <time>2013-04-01T09:02:39Z</time>
      </trkpt>
      <trkpt lat="45.55907" lon="6.65395">
        <ele>723</ele>
        <time>2013-04-01T09:02:43Z</time>
      </trkpt>
      <trkpt lat="45.55903" lon="6.65384">
        <ele>723</ele>
        <time>2013-04-01T09:02:47Z</time>
      </trkpt>
      <trkpt lat="45.55903" lon="6.65369">
        <ele>708</ele>
        <time>2013-04-01T09:02:52Z</time>
      </trkpt>
      <trkpt lat="45.55904" lon="6.65361">
        <ele>708</ele>
        <time>2013-04-01T09:02:56Z</time>
      </trkpt>
      <trkpt lat="45.55905" lon="6.65355">
        <ele>708</ele>
        <time>2013-04-01T09:03:00Z</time>
      </trkpt>
      <trkpt lat="45.55906" lon="6.65349">
        <ele>708</ele>
        <time>2013-04-01T09:03:04Z</time>
      </trkpt>
      <trkpt lat="45.55906" lon="6.65349">
        <ele>708</ele>
        <time>2013-04-01T09:03:08Z</time>
      </trkpt>
      <trkpt lat="45.55905" lon="6.65344">
        <ele>708</ele>
        <time>2013-04-01T09:03:14Z</time>
      </trkpt>
      <trkpt lat="45.55905" lon="6.65346">
        <ele>708</ele>
        <time>2013-04-01T09:03:18Z</time>
      </trkpt>
      <trkpt lat="45.55903" lon="6.65343">
        <ele>708</ele>
        <time>2013-04-01T09:03:40Z</time>
      </trkpt>
      <trkpt lat="45.55903" lon="6.65337">
        <ele>708</ele>
        <time>2013-04-01T09:03:45Z</time>
      </trkpt>
      <trkpt lat="45.55922" lon="6.65316">
        <ele>708</ele>
        <time>2013-04-01T09:03:56Z</time>
      </trkpt>
      <trkpt lat="45.5593" lon="6.65309">
        <ele>708</ele>
        <time>2013-04-01T09:04:01Z</time>
      </trkpt>
      <trkpt lat="45.55941" lon="6.65301">
        <ele>708</ele>
        <time>2013-04-01T09:04:06Z</time>
      </trkpt>
      <trkpt lat="45.5595" lon="6.65293">
        <ele>702</ele>
        <time>2013-04-01T09:04:11Z</time>
      </trkpt>
      <trkpt lat="45.55952" lon="6.65281">
        <ele>702</ele>
        <time>2013-04-01T09:04:15Z</time>
      </trkpt>
      <trkpt lat="45.55942" lon="6.65265">
        <ele>702</ele>
        <time>2013-04-01T09:04:22Z</time>
      </trkpt>
      <trkpt lat="45.55931" lon="6.65263">
        <ele>702</ele>
        <time>2013-04-01T09:04:26Z</time>
      </trkpt>
      <trkpt lat="45.55922" lon="6.6526">
        <ele>702</ele>
        <time>2013-04-01T09:04:30Z</time>
      </trkpt>
      <trkpt lat="45.55912" lon="6.65255">
        <ele>702</ele>
        <time>2013-04-01T09:04:34Z</time>
      </trkpt>
      <trkpt lat="45.55901" lon="6.65254">
        <ele>702</ele>
        <time>2013-04-01T09:04:39Z</time>
      </trkpt>
      <trkpt lat="45.55884" lon="6.65248">
        <ele>702</ele>
        <time>2013-04-01T09:04:46Z</time>
      </trkpt>
      <trkpt lat="45.55867" lon="6.65266">
        <ele>694</ele>
        <time>2013-04-01T09:04:56Z</time>
      </trkpt>
      <trkpt lat="45.55865" lon="6.65279">
        <ele>694</ele>
        <time>2013-04-01T09:05:00Z</time>
      </trkpt>
      <trkpt lat="45.55847" lon="6.65314">
        <ele>693</ele>
        <time>2013-04-01T09:05:11Z</time>
      </trkpt>
      <trkpt lat="45.55837" lon="6.65321">
        <ele>693</ele>
        <time>2013-04-01T09:05:15Z</time>
      </trkpt>
      <trkpt lat="45.55814" lon="6.65348">
        <ele>693</ele>
        <time>2013-04-01T09:05:26Z</time>
      </trkpt>
      <trkpt lat="45.55812" lon="6.65362">
        <ele>693</ele>
        <time>2013-04-01T09:05:30Z</time>
      </trkpt>
      <trkpt lat="45.55809" lon="6.65378">
        <ele>693</ele>
        <time>2013-04-01T09:05:34Z</time>
      </trkpt>
      <trkpt lat="45.55797" lon="6.65414">
        <ele>694</ele>
        <time>2013-04-01T09:05:45Z</time>
      </trkpt>
      <trkpt lat="45.55785" lon="6.65422">
        <ele>682</ele>
        <time>2013-04-01T09:05:50Z</time>
      </trkpt>
      <trkpt lat="45.55775" lon="6.65427">
        <ele>682</ele>
        <time>2013-04-01T09:05:54Z</time>
      </trkpt>
      <trkpt lat="45.55761" lon="6.65436">
        <ele>682</ele>
        <time>2013-04-01T09:06:00Z</time>
      </trkpt>
      <trkpt lat="45.55751" lon="6.65443">
        <ele>682</ele>
        <time>2013-04-01T09:06:04Z</time>
      </trkpt>
      <trkpt lat="45.55749" lon="6.65466">
        <ele>681</ele>
        <time>2013-04-01T09:06:11Z</time>
      </trkpt>
      <trkpt lat="45.5575" lon="6.65483">
        <ele>681</ele>
        <time>2013-04-01T09:06:15Z</time>
      </trkpt>
      <trkpt lat="45.55751" lon="6.65509">
        <ele>681</ele>
        <time>2013-04-01T09:06:21Z</time>
      </trkpt>
      <trkpt lat="45.55744" lon="6.65532">
        <ele>681</ele>
        <time>2013-04-01T09:06:59Z</time>
      </trkpt>
      <trkpt lat="45.55739" lon="6.65558">
        <ele>684</ele>
        <time>2013-04-01T09:07:05Z</time>
      </trkpt>
      <trkpt lat="45.55736" lon="6.65576">
        <ele>684</ele>
        <time>2013-04-01T09:07:09Z</time>
      </trkpt>
      <trkpt lat="45.55731" lon="6.65599">
        <ele>684</ele>
        <time>2013-04-01T09:07:15Z</time>
      </trkpt>
      <trkpt lat="45.5572" lon="6.65628">
        <ele>691</ele>
        <time>2013-04-01T09:07:23Z</time>
      </trkpt>
      <trkpt lat="45.55695" lon="6.65682">
        <ele>672</ele>
        <time>2013-04-01T09:07:40Z</time>
      </trkpt>
      <trkpt lat="45.55677" lon="6.65679">
        <ele>672</ele>
        <time>2013-04-01T09:07:48Z</time>
      </trkpt>
      <trkpt lat="45.55674" lon="6.65697">
        <ele>672</ele>
        <time>2013-04-01T09:07:52Z</time>
      </trkpt>
      <trkpt lat="45.55673" lon="6.65714">
        <ele>672</ele>
        <time>2013-04-01T09:07:56Z</time>
      </trkpt>
      <trkpt lat="45.55669" lon="6.65744">
        <ele>680</ele>
        <time>2013-04-01T09:08:03Z</time>
      </trkpt>
      <trkpt lat="45.55667" lon="6.65762">
        <ele>680</ele>
        <time>2013-04-01T09:08:07Z</time>
      </trkpt>
      <trkpt lat="45.55663" lon="6.65784">
        <ele>680</ele>
        <time>2013-04-01T09:08:12Z</time>
      </trkpt>
      <trkpt lat="45.55661" lon="6.65799">
        <ele>680</ele>
        <time>2013-04-01T09:08:16Z</time>
      </trkpt>
      <trkpt lat="45.5566" lon="6.65835">
        <ele>678</ele>
        <time>2013-04-01T09:08:24Z</time>
      </trkpt>
      <trkpt lat="45.55658" lon="6.65897">
        <ele>677</ele>
        <time>2013-04-01T09:08:39Z</time>
      </trkpt>
      <trkpt lat="45.55658" lon="6.65914">
        <ele>677</ele>
        <time>2013-04-01T09:08:43Z</time>
      </trkpt>
      <trkpt lat="45.55664" lon="6.65949">
        <ele>677</ele>
        <time>2013-04-01T09:08:52Z</time>
      </trkpt>
      <trkpt lat="45.55664" lon="6.6598">
        <ele>673</ele>
        <time>2013-04-01T09:09:00Z</time>
      </trkpt>
      <trkpt lat="45.55657" lon="6.66014">
        <ele>673</ele>
        <time>2013-04-01T09:09:08Z</time>
      </trkpt>
      <trkpt lat="45.55659" lon="6.66053">
        <ele>671</ele>
        <time>2013-04-01T09:09:17Z</time>
      </trkpt>
      <trkpt lat="45.55666" lon="6.66085">
        <ele>671</ele>
        <time>2013-04-01T09:09:25Z</time>
      </trkpt>
      <trkpt lat="45.55678" lon="6.66131">
        <ele>671</ele>
        <time>2013-04-01T09:09:38Z</time>
      </trkpt>
      <trkpt lat="45.55693" lon="6.66185">
        <ele>666</ele>
        <time>2013-04-01T09:09:52Z</time>
      </trkpt>
      <trkpt lat="45.55696" lon="6.66223">
        <ele>662</ele>
        <time>2013-04-01T09:10:02Z</time>
      </trkpt>
      <trkpt lat="45.55716" lon="6.66291">
        <ele>686</ele>
        <time>2013-04-01T09:10:20Z</time>
      </trkpt>
      <trkpt lat="45.55726" lon="6.6633">
        <ele>668</ele>
        <time>2013-04-01T09:10:30Z</time>
      </trkpt>
      <trkpt lat="45.55732" lon="6.66357">
        <ele>668</ele>
        <time>2013-04-01T09:10:37Z</time>
      </trkpt>
      <trkpt lat="45.55728" lon="6.66377">
        <ele>668</ele>
        <time>2013-04-01T09:10:44Z</time>
      </trkpt>
      <trkpt lat="45.55719" lon="6.66384">
        <ele>662</ele>
        <time>2013-04-01T09:10:48Z</time>
      </trkpt>
      <trkpt lat="45.55708" lon="6.664">
        <ele>665</ele>
        <time>2013-04-01T09:10:55Z</time>
      </trkpt>
      <trkpt lat="45.5574" lon="6.66452">
        <ele>662</ele>
        <time>2013-04-01T09:11:12Z</time>
      </trkpt>
      <trkpt lat="45.55782" lon="6.66518">
        <ele>664</ele>
        <time>2013-04-01T09:11:35Z</time>
      </trkpt>
      <trkpt lat="45.55805" lon="6.66557">
        <ele>666</ele>
        <time>2013-04-01T09:11:49Z</time>
      </trkpt>
      <trkpt lat="45.55816" lon="6.66574">
        <ele>666</ele>
        <time>2013-04-01T09:11:55Z</time>
      </trkpt>
      <trkpt lat="45.55855" lon="6.66617">
        <ele>666</ele>
        <time>2013-04-01T09:12:13Z</time>
      </trkpt>
      <trkpt lat="45.5588" lon="6.66644">
        <ele>675</ele>
        <time>2013-04-01T09:12:26Z</time>
      </trkpt>
      <trkpt lat="45.55891" lon="6.66654">
        <ele>675</ele>
        <time>2013-04-01T09:12:30Z</time>
      </trkpt>
      <trkpt lat="45.55912" lon="6.66704">
        <ele>675</ele>
        <time>2013-04-01T09:12:46Z</time>
      </trkpt>
      <trkpt lat="45.55917" lon="6.66753">
        <ele>669</ele>
        <time>2013-04-01T09:12:59Z</time>
      </trkpt>
      <trkpt lat="45.55923" lon="6.6679">
        <ele>669</ele>
        <time>2013-04-01T09:13:09Z</time>
      </trkpt>
      <trkpt lat="45.55927" lon="6.66805">
        <ele>673</ele>
        <time>2013-04-01T09:13:13Z</time>
      </trkpt>
      <trkpt lat="45.55947" lon="6.6687">
        <ele>673</ele>
        <time>2013-04-01T09:13:31Z</time>
      </trkpt>
      <trkpt lat="45.55976" lon="6.66941">
        <ele>683</ele>
        <time>2013-04-01T09:13:53Z</time>
      </trkpt>
      <trkpt lat="45.55984" lon="6.66959">
        <ele>683</ele>
        <time>2013-04-01T09:13:59Z</time>
      </trkpt>
      <trkpt lat="45.55996" lon="6.66996">
        <ele>675</ele>
        <time>2013-04-01T09:14:10Z</time>
      </trkpt>
      <trkpt lat="45.5601" lon="6.67036">
        <ele>675</ele>
        <time>2013-04-01T09:14:22Z</time>
      </trkpt>
      <trkpt lat="45.56035" lon="6.67091">
        <ele>677</ele>
        <time>2013-04-01T09:14:37Z</time>
      </trkpt>
      <trkpt lat="45.56044" lon="6.67145">
        <ele>679</ele>
        <time>2013-04-01T09:14:52Z</time>
      </trkpt>
      <trkpt lat="45.5603" lon="6.67205">
        <ele>679</ele>
        <time>2013-04-01T09:15:09Z</time>
      </trkpt>
      <trkpt lat="45.56031" lon="6.67236">
        <ele>683</ele>
        <time>2013-04-01T09:15:17Z</time>
      </trkpt>
      <trkpt lat="45.56033" lon="6.6725">
        <ele>683</ele>
        <time>2013-04-01T09:15:21Z</time>
      </trkpt>
      <trkpt lat="45.56045" lon="6.67309">
        <ele>687</ele>
        <time>2013-04-01T09:15:37Z</time>
      </trkpt>
      <trkpt lat="45.56054" lon="6.67344">
        <ele>685</ele>
        <time>2013-04-01T09:15:46Z</time>
      </trkpt>
      <trkpt lat="45.56059" lon="6.67359">
        <ele>685</ele>
        <time>2013-04-01T09:15:50Z</time>
      </trkpt>
      <trkpt lat="45.56091" lon="6.67437">
        <ele>684</ele>
        <time>2013-04-01T09:16:12Z</time>
      </trkpt>
      <trkpt lat="45.56095" lon="6.6745">
        <ele>684</ele>
        <time>2013-04-01T09:16:16Z</time>
      </trkpt>
      <trkpt lat="45.56115" lon="6.67509">
        <ele>688</ele>
        <time>2013-04-01T09:16:33Z</time>
      </trkpt>
      <trkpt lat="45.56125" lon="6.67537">
        <ele>688</ele>
        <time>2013-04-01T09:16:42Z</time>
      </trkpt>
      <trkpt lat="45.56142" lon="6.6757">
        <ele>684</ele>
        <time>2013-04-01T09:16:53Z</time>
      </trkpt>
      <trkpt lat="45.56147" lon="6.67584">
        <ele>684</ele>
        <time>2013-04-01T09:16:57Z</time>
      </trkpt>
      <trkpt lat="45.56177" lon="6.6762">
        <ele>684</ele>
        <time>2013-04-01T09:17:11Z</time>
      </trkpt>
      <trkpt lat="45.5622" lon="6.67664">
        <ele>692</ele>
        <time>2013-04-01T09:17:31Z</time>
      </trkpt>
      <trkpt lat="45.56239" lon="6.67687">
        <ele>692</ele>
        <time>2013-04-01T09:17:40Z</time>
      </trkpt>
      <trkpt lat="45.56257" lon="6.67735">
        <ele>689</ele>
        <time>2013-04-01T09:17:55Z</time>
      </trkpt>
      <trkpt lat="45.56261" lon="6.67746">
        <ele>689</ele>
        <time>2013-04-01T09:17:59Z</time>
      </trkpt>
      <trkpt lat="45.5628" lon="6.67785">
        <ele>689</ele>
        <time>2013-04-01T09:18:11Z</time>
      </trkpt>
      <trkpt lat="45.56272" lon="6.67815">
        <ele>691</ele>
        <time>2013-04-01T09:18:25Z</time>
      </trkpt>
      <trkpt lat="45.5627" lon="6.67831">
        <ele>691</ele>
        <time>2013-04-01T09:18:32Z</time>
      </trkpt>
      <trkpt lat="45.56267" lon="6.67836">
        <ele>691</ele>
        <time>2013-04-01T09:18:36Z</time>
      </trkpt>
      <trkpt lat="45.56265" lon="6.6784">
        <ele>691</ele>
        <time>2013-04-01T09:18:43Z</time>
      </trkpt>
      <trkpt lat="45.56257" lon="6.67853">
        <ele>691</ele>
        <time>2013-04-01T09:18:51Z</time>
      </trkpt>
      <trkpt lat="45.5625" lon="6.67866">
        <ele>691</ele>
        <time>2013-04-01T09:19:00Z</time>
      </trkpt>
      <trkpt lat="45.56242" lon="6.67879">
        <ele>691</ele>
        <time>2013-04-01T09:19:09Z</time>
      </trkpt>
      <trkpt lat="45.56241" lon="6.67888">
        <ele>697</ele>
        <time>2013-04-01T09:19:15Z</time>
      </trkpt>
      <trkpt lat="45.56242" lon="6.67897">
        <ele>697</ele>
        <time>2013-04-01T09:19:20Z</time>
      </trkpt>
      <trkpt lat="45.56243" lon="6.67902">
        <ele>697</ele>
        <time>2013-04-01T09:19:24Z</time>
      </trkpt>
      <trkpt lat="45.56244" lon="6.67909">
        <ele>697</ele>
        <time>2013-04-01T09:19:28Z</time>
      </trkpt>
      <trkpt lat="45.5624" lon="6.67915">
        <ele>697</ele>
        <time>2013-04-01T09:19:32Z</time>
      </trkpt>
      <trkpt lat="45.56237" lon="6.67918">
        <ele>697</ele>
        <time>2013-04-01T09:19:36Z</time>
      </trkpt>
      <trkpt lat="45.56232" lon="6.6792">
        <ele>697</ele>
        <time>2013-04-01T09:19:40Z</time>
      </trkpt>
      <trkpt lat="45.56229" lon="6.67923">
        <ele>697</ele>
        <time>2013-04-01T09:19:44Z</time>
      </trkpt>
      <trkpt lat="45.56223" lon="6.6793">
        <ele>697</ele>
        <time>2013-04-01T09:19:49Z</time>
      </trkpt>
      <trkpt lat="45.56218" lon="6.67935">
        <ele>697</ele>
        <time>2013-04-01T09:19:54Z</time>
      </trkpt>
      <trkpt lat="45.56215" lon="6.67941">
        <ele>697</ele>
        <time>2013-04-01T09:19:58Z</time>
      </trkpt>
      <trkpt lat="45.56212" lon="6.67945">
        <ele>697</ele>
        <time>2013-04-01T09:20:02Z</time>
      </trkpt>
      <trkpt lat="45.56206" lon="6.67952">
        <ele>714</ele>
        <time>2013-04-01T09:20:07Z</time>
      </trkpt>
      <trkpt lat="45.56203" lon="6.67956">
        <ele>714</ele>
        <time>2013-04-01T09:20:11Z</time>
      </trkpt>
      <trkpt lat="45.56198" lon="6.67967">
        <ele>714</ele>
        <time>2013-04-01T09:20:17Z</time>
      </trkpt>
      <trkpt lat="45.56196" lon="6.67976">
        <ele>716</ele>
        <time>2013-04-01T09:20:22Z</time>
      </trkpt>
      <trkpt lat="45.56193" lon="6.67987">
        <ele>716</ele>
        <time>2013-04-01T09:20:27Z</time>
      </trkpt>
      <trkpt lat="45.56191" lon="6.68002">
        <ele>716</ele>
        <time>2013-04-01T09:20:34Z</time>
      </trkpt>
      <trkpt lat="45.5619" lon="6.68011">
        <ele>716</ele>
        <time>2013-04-01T09:20:39Z</time>
      </trkpt>
      <trkpt lat="45.5619" lon="6.68024">
        <ele>716</ele>
        <time>2013-04-01T09:20:46Z</time>
      </trkpt>
      <trkpt lat="45.56189" lon="6.68038">
        <ele>716</ele>
        <time>2013-04-01T09:20:53Z</time>
      </trkpt>
      <trkpt lat="45.56187" lon="6.68045">
        <ele>716</ele>
        <time>2013-04-01T09:20:57Z</time>
      </trkpt>
      <trkpt lat="45.56187" lon="6.68057">
        <ele>718</ele>
        <time>2013-04-01T09:21:04Z</time>
      </trkpt>
      <trkpt lat="45.56187" lon="6.68065">
        <ele>718</ele>
        <time>2013-04-01T09:21:08Z</time>
      </trkpt>
      <trkpt lat="45.56183" lon="6.68071">
        <ele>718</ele>
        <time>2013-04-01T09:21:13Z</time>
      </trkpt>
      <trkpt lat="45.5618" lon="6.68076">
        <ele>718</ele>
        <time>2013-04-01T09:21:17Z</time>
      </trkpt>
      <trkpt lat="45.56176" lon="6.68083">
        <ele>718</ele>
        <time>2013-04-01T09:21:22Z</time>
      </trkpt>
      <trkpt lat="45.56169" lon="6.68092">
        <ele>718</ele>
        <time>2013-04-01T09:21:30Z</time>
      </trkpt>
      <trkpt lat="45.56166" lon="6.68095">
        <ele>718</ele>
        <time>2013-04-01T09:21:34Z</time>
      </trkpt>
      <trkpt lat="45.56159" lon="6.68105">
        <ele>718</ele>
        <time>2013-04-01T09:21:43Z</time>
      </trkpt>
      <trkpt lat="45.56153" lon="6.68112">
        <ele>718</ele>
        <time>2013-04-01T09:21:48Z</time>
      </trkpt>
      <trkpt lat="45.5615" lon="6.68116">
        <ele>718</ele>
        <time>2013-04-01T09:21:52Z</time>
      </trkpt>
      <trkpt lat="45.56142" lon="6.68127">
        <ele>718</ele>
        <time>2013-04-01T09:22:00Z</time>
      </trkpt>
      <trkpt lat="45.56137" lon="6.68133">
        <ele>723</ele>
        <time>2013-04-01T09:22:05Z</time>
      </trkpt>
      <trkpt lat="45.56132" lon="6.68141">
        <ele>723</ele>
        <time>2013-04-01T09:22:10Z</time>
      </trkpt>
      <trkpt lat="45.56127" lon="6.68157">
        <ele>736</ele>
        <time>2013-04-01T09:22:19Z</time>
      </trkpt>
      <trkpt lat="45.56126" lon="6.68168">
        <ele>736</ele>
        <time>2013-04-01T09:22:23Z</time>
      </trkpt>
      <trkpt lat="45.56122" lon="6.6818">
        <ele>736</ele>
        <time>2013-04-01T09:22:28Z</time>
      </trkpt>
      <trkpt lat="45.56117" lon="6.68188">
        <ele>736</ele>
        <time>2013-04-01T09:22:32Z</time>
      </trkpt>
      <trkpt lat="45.56105" lon="6.68199">
        <ele>736</ele>
        <time>2013-04-01T09:22:40Z</time>
      </trkpt>
      <trkpt lat="45.561" lon="6.68206">
        <ele>736</ele>
        <time>2013-04-01T09:22:44Z</time>
      </trkpt>
      <trkpt lat="45.56094" lon="6.68212">
        <ele>736</ele>
        <time>2013-04-01T09:22:48Z</time>
      </trkpt>
      <trkpt lat="45.56085" lon="6.68222">
        <ele>738</ele>
        <time>2013-04-01T09:22:54Z</time>
      </trkpt>
      <trkpt lat="45.5608" lon="6.68231">
        <ele>738</ele>
        <time>2013-04-01T09:22:58Z</time>
      </trkpt>
      <trkpt lat="45.56075" lon="6.68252">
        <ele>738</ele>
        <time>2013-04-01T09:23:08Z</time>
      </trkpt>
      <trkpt lat="45.56066" lon="6.68253">
        <ele>738</ele>
        <time>2013-04-01T09:23:14Z</time>
      </trkpt>
      <trkpt lat="45.56059" lon="6.68251">
        <ele>738</ele>
        <time>2013-04-01T09:23:18Z</time>
      </trkpt>
      <trkpt lat="45.56047" lon="6.68251">
        <ele>738</ele>
        <time>2013-04-01T09:23:25Z</time>
      </trkpt>
      <trkpt lat="45.56038" lon="6.68252">
        <ele>751</ele>
        <time>2013-04-01T09:23:31Z</time>
      </trkpt>
      <trkpt lat="45.56032" lon="6.68255">
        <ele>751</ele>
        <time>2013-04-01T09:23:35Z</time>
      </trkpt>
      <trkpt lat="45.56025" lon="6.68262">
        <ele>751</ele>
        <time>2013-04-01T09:23:40Z</time>
      </trkpt>
      <trkpt lat="45.56016" lon="6.68268">
        <ele>751</ele>
        <time>2013-04-01T09:23:46Z</time>
      </trkpt>
      <trkpt lat="45.56005" lon="6.68273">
        <ele>751</ele>
        <time>2013-04-01T09:23:53Z</time>
      </trkpt>
      <trkpt lat="45.55999" lon="6.68276">
        <ele>751</ele>
        <time>2013-04-01T09:23:57Z</time>
      </trkpt>
      <trkpt lat="45.55988" lon="6.68279">
        <ele>751</ele>
        <time>2013-04-01T09:24:04Z</time>
      </trkpt>
      <trkpt lat="45.55979" lon="6.6828">
        <ele>751</ele>
        <time>2013-04-01T09:24:09Z</time>
      </trkpt>
      <trkpt lat="45.55969" lon="6.6828">
        <ele>751</ele>
        <time>2013-04-01T09:24:15Z</time>
      </trkpt>
      <trkpt lat="45.55961" lon="6.68282">
        <ele>765</ele>
        <time>2013-04-01T09:24:20Z</time>
      </trkpt>
      <trkpt lat="45.55948" lon="6.68287">
        <ele>765</ele>
        <time>2013-04-01T09:24:28Z</time>
      </trkpt>
      <trkpt lat="45.5594" lon="6.68291">
        <ele>765</ele>
        <time>2013-04-01T09:24:33Z</time>
      </trkpt>
      <trkpt lat="45.55932" lon="6.68299">
        <ele>767</ele>
        <time>2013-04-01T09:24:48Z</time>
      </trkpt>
      <trkpt lat="45.55924" lon="6.68309">
        <ele>767</ele>
        <time>2013-04-01T09:24:54Z</time>
      </trkpt>
      <trkpt lat="45.55915" lon="6.68317">
        <ele>767</ele>
        <time>2013-04-01T09:25:01Z</time>
      </trkpt>
      <trkpt lat="45.55908" lon="6.68322">
        <ele>767</ele>
        <time>2013-04-01T09:25:07Z</time>
      </trkpt>
      <trkpt lat="45.55902" lon="6.68324">
        <ele>767</ele>
        <time>2013-04-01T09:25:11Z</time>
      </trkpt>
      <trkpt lat="45.55893" lon="6.68324">
        <ele>767</ele>
        <time>2013-04-01T09:25:16Z</time>
      </trkpt>
      <trkpt lat="45.55885" lon="6.68326">
        <ele>767</ele>
        <time>2013-04-01T09:25:20Z</time>
      </trkpt>
      <trkpt lat="45.55873" lon="6.68328">
        <ele>781</ele>
        <time>2013-04-01T09:25:27Z</time>
      </trkpt>
      <trkpt lat="45.55861" lon="6.68334">
        <ele>781</ele>
        <time>2013-04-01T09:25:35Z</time>
      </trkpt>
      <trkpt lat="45.55856" lon="6.68338">
        <ele>781</ele>
        <time>2013-04-01T09:25:39Z</time>
      </trkpt>
      <trkpt lat="45.55851" lon="6.68339">
        <ele>781</ele>
        <time>2013-04-01T09:25:44Z</time>
      </trkpt>
      <trkpt lat="45.55844" lon="6.68338">
        <ele>781</ele>
        <time>2013-04-01T09:25:49Z</time>
      </trkpt>
      <trkpt lat="45.55832" lon="6.6834">
        <ele>781</ele>
        <time>2013-04-01T09:25:56Z</time>
      </trkpt>
      <trkpt lat="45.5582" lon="6.68341">
        <ele>781</ele>
        <time>2013-04-01T09:26:02Z</time>
      </trkpt>
      <trkpt lat="45.55811" lon="6.68342">
        <ele>781</ele>
        <time>2013-04-01T09:26:07Z</time>
      </trkpt>
      <trkpt lat="45.55802" lon="6.68341">
        <ele>781</ele>
        <time>2013-04-01T09:26:12Z</time>
      </trkpt>
      <trkpt lat="45.55794" lon="6.68344">
        <ele>781</ele>
        <time>2013-04-01T09:26:17Z</time>
      </trkpt>
      <trkpt lat="45.55788" lon="6.68346">
        <ele>798</ele>
        <time>2013-04-01T09:26:21Z</time>
      </trkpt>
      <trkpt lat="45.55774" lon="6.68348">
        <ele>798</ele>
        <time>2013-04-01T09:26:29Z</time>
      </trkpt>
      <trkpt lat="45.55765" lon="6.68348">
        <ele>798</ele>
        <time>2013-04-01T09:26:35Z</time>
      </trkpt>
      <trkpt lat="45.55758" lon="6.68352">
        <ele>798</ele>
        <time>2013-04-01T09:26:39Z</time>
      </trkpt>
      <trkpt lat="45.55747" lon="6.68358">
        <ele>798</ele>
        <time>2013-04-01T09:26:46Z</time>
      </trkpt>
      <trkpt lat="45.55735" lon="6.68362">
        <ele>798</ele>
        <time>2013-04-01T09:26:53Z</time>
      </trkpt>
      <trkpt lat="45.55728" lon="6.68362">
        <ele>798</ele>
        <time>2013-04-01T09:26:57Z</time>
      </trkpt>
      <trkpt lat="45.55718" lon="6.68361">
        <ele>798</ele>
        <time>2013-04-01T09:27:02Z</time>
      </trkpt>
      <trkpt lat="45.55711" lon="6.68361">
        <ele>798</ele>
        <time>2013-04-01T09:27:06Z</time>
      </trkpt>
      <trkpt lat="45.557" lon="6.68359">
        <ele>809</ele>
        <time>2013-04-01T09:27:12Z</time>
      </trkpt>
      <trkpt lat="45.55689" lon="6.68355">
        <ele>809</ele>
        <time>2013-04-01T09:27:19Z</time>
      </trkpt>
      <trkpt lat="45.55682" lon="6.68358">
        <ele>809</ele>
        <time>2013-04-01T09:27:23Z</time>
      </trkpt>
      <trkpt lat="45.55673" lon="6.68359">
        <ele>809</ele>
        <time>2013-04-01T09:27:28Z</time>
      </trkpt>
      <trkpt lat="45.55664" lon="6.68364">
        <ele>809</ele>
        <time>2013-04-01T09:27:33Z</time>
      </trkpt>
      <trkpt lat="45.55654" lon="6.68366">
        <ele>809</ele>
        <time>2013-04-01T09:27:39Z</time>
      </trkpt>
      <trkpt lat="45.55645" lon="6.68373">
        <ele>809</ele>
        <time>2013-04-01T09:27:45Z</time>
      </trkpt>
      <trkpt lat="45.55639" lon="6.68378">
        <ele>809</ele>
        <time>2013-04-01T09:27:49Z</time>
      </trkpt>
      <trkpt lat="45.55629" lon="6.68383">
        <ele>827</ele>
        <time>2013-04-01T09:27:55Z</time>
      </trkpt>
      <trkpt lat="45.55622" lon="6.68389">
        <ele>827</ele>
        <time>2013-04-01T09:27:59Z</time>
      </trkpt>
      <trkpt lat="45.55615" lon="6.68395">
        <ele>827</ele>
        <time>2013-04-01T09:28:05Z</time>
      </trkpt>
      <trkpt lat="45.55611" lon="6.68407">
        <ele>827</ele>
        <time>2013-04-01T09:28:11Z</time>
      </trkpt>
      <trkpt lat="45.55615" lon="6.68411">
        <ele>827</ele>
        <time>2013-04-01T09:28:15Z</time>
      </trkpt>
      <trkpt lat="45.55633" lon="6.68393">
        <ele>815</ele>
        <time>2013-04-01T09:28:26Z</time>
      </trkpt>
      <trkpt lat="45.5565" lon="6.68385">
        <ele>815</ele>
        <time>2013-04-01T09:28:34Z</time>
      </trkpt>
      <trkpt lat="45.55668" lon="6.68382">
        <ele>815</ele>
        <time>2013-04-01T09:28:42Z</time>
      </trkpt>
      <trkpt lat="45.55679" lon="6.68376">
        <ele>809</ele>
        <time>2013-04-01T09:28:48Z</time>
      </trkpt>
      <trkpt lat="45.55679" lon="6.68326">
        <ele>809</ele>
        <time>2013-04-01T09:29:04Z</time>
      </trkpt>
      <trkpt lat="45.55647" lon="6.68268">
        <ele>803</ele>
        <time>2013-04-01T09:29:24Z</time>
      </trkpt>
      <trkpt lat="45.55608" lon="6.68213">
        <ele>802</ele>
        <time>2013-04-01T09:29:45Z</time>
      </trkpt>
      <trkpt lat="45.55592" lon="6.68187">
        <ele>802</ele>
        <time>2013-04-01T09:29:54Z</time>
      </trkpt>
      <trkpt lat="45.55581" lon="6.6817">
        <ele>802</ele>
        <time>2013-04-01T09:30:01Z</time>
      </trkpt>
      <trkpt lat="45.55574" lon="6.68159">
        <ele>802</ele>
        <time>2013-04-01T09:30:05Z</time>
      </trkpt>
      <trkpt lat="45.55559" lon="6.68138">
        <ele>802</ele>
        <time>2013-04-01T09:30:14Z</time>
      </trkpt>
      <trkpt lat="45.55544" lon="6.68111">
        <ele>822</ele>
        <time>2013-04-01T09:30:23Z</time>
      </trkpt>
      <trkpt lat="45.55532" lon="6.6809">
        <ele>822</ele>
        <time>2013-04-01T09:30:30Z</time>
      </trkpt>
      <trkpt lat="45.55524" lon="6.68067">
        <ele>822</ele>
        <time>2013-04-01T09:30:38Z</time>
      </trkpt>
      <trkpt lat="45.55517" lon="6.68056">
        <ele>822</ele>
        <time>2013-04-01T09:30:42Z</time>
      </trkpt>
      <trkpt lat="45.55496" lon="6.68011">
        <ele>799</ele>
        <time>2013-04-01T09:30:57Z</time>
      </trkpt>
      <trkpt lat="45.55491" lon="6.67991">
        <ele>799</ele>
        <time>2013-04-01T09:31:03Z</time>
      </trkpt>
      <trkpt lat="45.55481" lon="6.67961">
        <ele>782</ele>
        <time>2013-04-01T09:31:13Z</time>
      </trkpt>
      <trkpt lat="45.55475" lon="6.67947">
        <ele>782</ele>
        <time>2013-04-01T09:31:17Z</time>
      </trkpt>
      <trkpt lat="45.55461" lon="6.67921">
        <ele>822</ele>
        <time>2013-04-01T09:31:26Z</time>
      </trkpt>
      <trkpt lat="45.55456" lon="6.67909">
        <ele>822</ele>
        <time>2013-04-01T09:31:30Z</time>
      </trkpt>
      <trkpt lat="45.55446" lon="6.67881">
        <ele>801</ele>
        <time>2013-04-01T09:31:39Z</time>
      </trkpt>
      <trkpt lat="45.55439" lon="6.67867">
        <ele>801</ele>
        <time>2013-04-01T09:31:44Z</time>
      </trkpt>
      <trkpt lat="45.55431" lon="6.67821">
        <ele>801</ele>
        <time>2013-04-01T09:31:58Z</time>
      </trkpt>
      <trkpt lat="45.55428" lon="6.67808">
        <ele>801</ele>
        <time>2013-04-01T09:32:02Z</time>
      </trkpt>
      <trkpt lat="45.55421" lon="6.67773">
        <ele>788</ele>
        <time>2013-04-01T09:32:14Z</time>
      </trkpt>
      <trkpt lat="45.55421" lon="6.67727">
        <ele>788</ele>
        <time>2013-04-01T09:32:29Z</time>
      </trkpt>
    </trkseg>
  </trk>
</gpx>